[[{"header":{"parameterUnit":"m.s-1","parameterCategory":1,"la1":30.6,"la2":29.2853,"lo1":-89.7004,"lo2":-87.6739,"dy":0.0162,"dx":0.0183,"nx":112,"ny":82,"refTime":"2026-03-09T00:00:00:Z","depth":0,"parameterNumber":2,"parameterNumberName":"U-component_of_WINDS"},"data":[0.0,0.0,0.0,0.0,0.0,0.0,0.0,0.0,0.0,0.0,0.0,0.0,0.0,0.0,0.0,0.0,0.0,0.0,0.0,0.0,0.0,0.0,0.0,0.0,0.0,0.0,0.0,0.0,0.0,0.0,0.0,0.0,0.0,0.0,0.0,0.0,0.0,0.0,0.0,0.0,0.0,0.0,0.0,0.0,0.0,0.0,0.0,0.0,0.0,0.0,0.0,0.0,0.0,0.0,0.0,0.0,0.0,0.0,0.0,0.0,0.0,0.0,0.0,0.0,0.0,0.0,0.0,0.0,0.0,0.0,0.0,0.0,0.0,0.0,0.0,0.0,0.0,0.0,0.0,0.0,0.0,0.0,0.0,0.0,0.0,0.0,0.0,0.0,0.0,0.0,-0.8999,-1.1897,-1.2255,-1.1381,-0.91,-0.934,-0.8255,-0.5075,0.0,0.0,0.0,0.0,0.0,0.0,0.0,0.0,0.0,0.0,0.0,0.0,0.0,0.0,0.0,0.0,0.0,0.0,0.0,0.0,0.0,0.0,0.0,0.0,0.0,0.0,0.0,0.0,0.0,0.0,0.0,0.0,0.0,0.0,0.0,0.0,0.0,0.0,0.0,0.0,0.0,0.0,0.0,0.0,0.0,0.0,0.0,0.0,0.0,0.0,0.0,0.0,0.0,0.0,0.0,0.0,0.0,0.0,0.0,0.0,0.0,0.0,0.0,0.0,0.0,0.0,0.0,0.0,0.0,0.0,0.0,0.0,0.0,0.0,0.0,0.0,0.0,0.0,0.0,0.0,0.0,0.0,0.0,0.0,0.0,0.0,0.0,0.0,0.0,0.0,0.0,0.0,0.0,0.0,0.0,0.0,0.0,0.0,0.0,0.0,0.0,0.0,0.0,0.0,-0.8999,-1.1897,-1.0079,-0.874,-0.888,-0.9081,-0.7917,-0.4926,0.0,0.0,0.0,0.0,0.0,0.0,0.0,0.0,0.0,0.0,0.0,0.0,0.0,0.0,0.0,0.0,0.0,0.0,0.0,0.0,0.0,0.0,0.0,0.0,0.0,0.0,0.0,0.0,0.0,0.0,0.0,0.0,0.0,0.0,0.0,0.0,0.0,0.0,0.0,0.0,0.0,0.0,0.0,0.0,0.0,0.0,0.0,0.0,0.0,0.0,0.0,0.0,0.0,0.0,0.0,0.0,0.0,0.0,0.0,0.0,0.0,0.0,0.0,0.0,0.0,0.0,0.0,0.0,0.0,0.0,0.0,0.0,0.0,0.0,0.0,0.0,0.0,0.0,0.0,0.0,0.0,0.0,0.0,0.0,0.0,0.0,0.0,0.0,0.0,0.0,0.0,0.0,0.0,0.0,0.0,0.0,0.0,0.0,0.0,0.0,0.0,0.0,0.0,-0.804,-0.8514,-0.9835,-1.0121,-0.9728,-0.8459,-0.727,-0.6067,-0.479,-0.5309,0.0,0.0,0.0,0.0,0.0,0.0,0.0,0.0,0.0,0.0,0.0,0.0,0.0,0.0,0.0,0.0,0.0,0.0,0.0,0.0,0.0,0.0,0.0,0.0,0.0,0.0,0.0,0.0,0.0,0.0,0.0,0.0,0.0,0.0,0.0,0.0,0.0,0.0,0.0,0.0,0.0,0.0,0.0,0.0,0.0,0.0,0.0,0.0,0.0,0.0,0.0,0.0,0.0,0.0,0.0,0.0,0.0,0.0,0.0,0.0,0.0,0.0,0.0,0.0,0.0,0.0,0.0,0.0,0.0,0.0,0.0,0.0,0.0,0.0,0.0,0.0,0.0,0.0,0.0,0.0,0.0,0.0,0.0,0.0,0.0,0.0,0.0,0.0,0.0,0.0,0.0,0.0,0.0,0.0,0.0,0.0,0.0,0.0,0.0,0.0,0.0,0.0,-0.7669,-0.8094,-0.8094,-0.9956,-1.006,-0.7286,-0.5481,-0.4575,-0.4711,-0.4013,0.0,0.0,0.0,0.0,0.0,0.0,0.0,0.0,0.0,0.0,0.0,0.0,0.0,0.0,0.0,0.0,0.0,0.0,0.0,0.0,0.0,0.0,0.0,0.0,0.0,0.0,0.0,0.0,0.0,0.0,0.0,0.0,0.0,0.0,0.0,0.0,0.0,0.0,0.0,0.0,0.0,0.0,0.0,0.0,0.0,0.0,0.0,0.0,0.0,0.0,0.0,0.0,0.0,0.0,0.0,0.0,0.0,0.0,0.0,0.0,0.0,0.0,0.0,0.0,0.0,0.0,0.0,0.0,0.0,0.0,0.0,0.0,0.0,0.0,0.0,0.0,0.0,0.0,0.0,0.0,0.0,0.0,0.0,0.0,0.0,0.0,0.0,0.0,0.0,0.0,0.0,0.0,0.0,0.0,0.0,0.0,0.0,0.0,0.0,0.0,0.0,0.0,-0.6668,-0.8094,-0.8094,-0.8151,-0.7207,-0.4769,-0.4515,-0.4582,-0.4773,-0.4044,0.0,0.0,0.0,0.0,0.0,0.0,0.0,0.0,0.0,0.0,0.0,0.0,0.0,0.0,0.0,0.0,0.0,0.0,0.0,0.0,0.0,0.0,0.0,0.0,0.0,0.0,0.0,0.0,0.0,0.0,0.0,0.0,0.0,0.0,0.0,0.0,0.0,0.0,0.0,0.0,0.0,0.0,0.0,0.0,0.0,0.0,0.0,0.0,0.0,0.0,0.0,0.0,0.0,0.0,0.0,0.0,0.0,0.0,0.0,0.0,0.0,0.0,0.0,0.0,0.0,0.0,0.0,0.0,0.0,0.0,0.0,0.0,0.0,0.0,0.0,0.0,0.0,0.0,0.0,0.0,0.0,0.0,0.0,0.0,0.0,0.0,0.0,0.0,0.0,0.0,0.0,0.0,0.0,0.0,0.0,0.0,0.0,0.0,0.0,0.0,0.0,0.0,-0.7917,-0.8472,0.0,-0.8285,-0.733,-0.4702,-0.4535,-0.4577,-0.4614,0.0,0.0,0.0,0.0,0.0,0.0,0.0,0.0,0.0,0.0,0.0,0.0,0.0,0.0,0.0,0.0,0.0,0.0,0.0,0.0,0.0,0.0,0.0,0.0,0.0,0.0,0.0,0.0,0.0,0.0,0.0,0.0,0.0,0.0,0.0,0.0,0.0,0.0,0.0,0.0,0.0,0.0,0.0,0.0,0.0,0.0,0.0,0.0,0.0,0.0,0.0,0.0,0.0,0.0,0.0,0.0,0.0,0.0,0.0,0.0,0.0,0.0,0.0,0.0,0.0,0.0,0.0,0.0,0.0,0.0,0.0,0.0,0.0,0.0,0.0,0.0,0.0,0.0,0.0,0.0,0.0,0.0,0.0,0.0,0.0,0.0,0.0,0.0,0.0,0.0,0.0,0.0,0.0,0.0,0.0,0.0,0.0,0.0,0.0,0.0,0.0,0.0,-0.8137,-0.8665,-0.8636,0.0,-0.8554,-0.7637,-0.4832,-0.4679,-0.4714,-0.4692,0.0,0.0,0.0,0.0,0.0,0.0,0.0,0.0,0.0,0.0,0.0,0.0,0.0,0.0,0.0,0.0,0.0,0.0,0.0,0.0,0.0,0.0,0.0,0.0,0.0,0.0,0.0,0.0,0.0,0.0,0.0,0.0,0.0,0.0,0.0,0.0,0.0,0.0,0.0,0.0,0.0,0.0,0.0,0.0,0.0,0.0,0.0,0.0,0.0,0.0,0.0,0.0,0.0,0.0,0.0,0.0,0.0,0.0,0.0,0.0,0.0,0.0,0.0,0.0,0.0,0.0,0.0,0.0,0.0,0.0,0.0,0.0,0.0,0.0,0.0,0.0,0.0,0.0,0.0,0.0,0.0,0.0,0.0,0.0,0.0,0.0,0.0,0.0,0.0,0.0,0.0,0.0,0.0,0.0,0.0,0.0,0.0,0.0,0.0,0.0,0.0,0.0,-0.8125,-0.8508,-0.8512,-0.8556,-0.8764,-0.7737,-0.4843,-0.4892,-0.5079,0.0,0.0,0.0,0.0,0.0,0.0,0.0,0.0,0.0,0.0,0.0,0.0,0.0,0.0,0.0,0.0,0.0,0.0,0.0,0.0,0.0,0.0,0.0,0.0,0.0,0.0,0.0,0.0,0.0,0.0,0.0,0.0,0.0,0.0,0.0,0.0,0.0,0.0,0.0,0.0,0.0,0.0,0.0,0.0,0.0,0.0,0.0,0.0,0.0,0.0,0.0,0.0,0.0,0.0,0.0,0.0,0.0,0.0,0.0,0.0,0.0,0.0,0.0,0.0,0.0,0.0,0.0,0.0,0.0,0.0,0.0,0.0,0.0,0.0,0.0,0.0,0.0,0.0,0.0,0.0,0.0,0.0,0.0,0.0,0.0,0.0,0.0,0.0,0.0,0.0,0.0,0.0,0.0,0.0,0.0,0.0,0.0,0.0,0.0,0.0,0.0,0.0,0.0,-0.8388,-0.845,-0.9068,-1.1285,-1.0076,-0.7918,-0.4997,-0.711,-0.7592,-0.524,0.0,0.0,0.0,0.0,0.0,0.0,0.0,0.0,0.0,0.0,0.0,0.0,0.0,0.0,0.0,0.0,0.0,0.0,0.0,0.0,0.0,0.0,0.0,0.0,0.0,0.0,0.0,0.0,0.0,0.0,0.0,0.0,0.0,0.0,0.0,0.0,0.0,0.0,0.0,0.0,0.0,0.0,0.0,0.0,0.0,0.0,0.0,0.0,0.0,0.0,0.0,0.0,0.0,0.0,0.0,0.0,0.0,0.0,0.0,0.0,0.0,0.0,0.0,0.0,0.0,0.0,0.0,0.0,0.0,0.0,0.0,0.0,0.0,0.0,0.0,0.0,0.0,0.0,0.0,0.0,0.0,0.0,0.0,0.0,0.0,0.0,0.0,0.0,0.0,0.0,0.0,0.0,0.0,0.0,0.0,0.0,0.0,0.0,0.0,0.0,0.0,0.0,-0.8354,-0.9334,-1.0465,-1.2367,-1.1319,-0.9438,-0.6738,-0.8576,-0.9002,-0.699,0.0,0.0,0.0,0.0,0.0,0.0,0.0,0.0,0.0,0.0,0.0,0.0,0.0,0.0,0.0,0.0,0.0,0.0,0.0,0.0,0.0,0.0,0.0,0.0,0.0,0.0,0.0,0.0,0.0,0.0,0.0,0.0,0.0,0.0,0.0,0.0,0.0,0.0,0.0,0.0,0.0,0.0,0.0,0.0,0.0,0.0,0.0,0.0,0.0,0.0,0.0,0.0,0.0,0.0,0.0,0.0,0.0,0.0,0.0,0.0,0.0,0.0,0.0,0.0,0.0,0.0,0.0,0.0,0.0,0.0,0.0,0.0,0.0,0.0,0.0,0.0,0.0,0.0,0.0,0.0,0.0,0.0,0.0,0.0,0.0,0.0,0.0,0.0,0.0,0.0,0.0,0.0,0.0,0.0,0.0,0.0,0.0,0.0,0.0,0.0,0.0,0.0,-0.8502,-1.0761,-1.2112,-1.2153,-1.224,-1.1521,-0.9547,-0.9404,-0.9412,-0.9386,0.0,0.0,0.0,0.0,0.0,0.0,0.0,0.0,0.0,0.0,0.0,0.0,0.0,0.0,0.0,0.0,0.0,0.0,0.0,0.0,0.0,0.0,0.0,0.0,0.0,0.0,0.0,0.0,0.0,0.0,0.0,0.0,0.0,0.0,0.0,0.0,0.0,0.0,0.0,0.0,0.0,0.0,0.0,0.0,0.0,0.0,0.0,0.0,0.0,0.0,0.0,0.0,0.0,0.0,0.0,0.0,0.0,0.0,0.0,0.0,-0.8833,0.0,0.0,0.0,0.0,0.0,0.0,0.0,0.0,0.0,0.0,0.0,0.0,0.0,0.0,0.0,0.0,0.0,0.0,0.0,0.0,0.0,0.0,0.0,0.0,0.0,0.0,0.0,0.0,0.0,0.0,0.0,0.0,0.0,0.0,0.0,0.0,0.0,0.0,0.0,0.0,0.0,-1.1233,-1.1446,-1.1474,-1.1848,-1.1303,-1.1078,-1.1443,-0.9817,-0.8734,-0.8568,-0.691,0.0,0.0,0.0,0.0,0.0,0.0,0.0,0.0,0.0,0.0,0.0,0.0,0.0,0.0,0.0,0.0,0.0,0.0,0.0,0.0,0.0,0.0,0.0,0.0,0.0,0.0,0.0,0.0,0.0,0.0,0.0,0.0,0.0,0.0,0.0,0.0,0.0,0.0,0.0,0.0,0.0,0.0,0.0,0.0,0.0,0.0,0.0,0.0,0.0,0.0,0.0,0.0,0.0,0.0,0.0,0.0,0.0,0.0,0.0,0.0,-0.7645,0.0,0.0,0.0,0.0,0.0,0.0,0.0,0.0,0.0,0.0,0.0,0.0,0.0,0.0,0.0,0.0,0.0,0.0,0.0,0.0,0.0,0.0,0.0,0.0,0.0,0.0,0.0,0.0,0.0,0.0,0.0,0.0,0.0,0.0,0.0,0.0,0.0,0.0,0.0,0.0,-1.1197,-1.121,-1.1085,-1.1519,-1.1203,-1.1007,-1.1039,-1.0016,-0.8988,-0.8119,-0.6844,0.0,0.0,0.0,0.0,0.0,0.0,0.0,0.0,0.0,0.0,0.0,0.0,0.0,0.0,0.0,0.0,0.0,0.0,0.0,0.0,0.0,0.0,0.0,0.0,0.0,0.0,0.0,0.0,0.0,0.0,0.0,0.0,0.0,0.0,0.0,0.0,0.0,0.0,0.0,0.0,0.0,0.0,0.0,0.0,0.0,0.0,0.0,0.0,0.0,0.0,0.0,0.0,0.0,-0.8626,-1.0583,-1.1079,-1.0461,-1.0221,-1.0155,-0.7702,-0.8026,-1.0065,0.0,0.0,0.0,0.0,0.0,0.0,0.0,0.0,0.0,0.0,0.0,0.0,0.0,0.0,0.0,0.0,0.0,0.0,0.0,0.0,0.0,0.0,0.0,0.0,0.0,-1.471,-1.5244,0.0,0.0,0.0,0.0,0.0,0.0,0.0,0.0,0.0,0.0,0.0,0.0,-1.0376,-1.0729,-1.0818,-1.098,-1.1138,-1.0841,-0.9843,-0.9802,-0.9267,-0.7929,-0.6715,-0.6319,0.0,0.0,0.0,0.0,0.0,0.0,0.0,0.0,0.0,0.0,0.0,0.0,0.0,0.0,0.0,0.0,0.0,0.0,0.0,0.0,0.0,0.0,0.0,0.0,0.0,0.0,0.0,0.0,0.0,0.0,0.0,0.0,-0.5251,-0.4862,0.0,0.0,0.0,0.0,0.0,0.0,0.0,0.0,0.0,0.0,0.0,0.0,0.0,-0.5096,-0.5101,-0.5092,-0.5096,-0.5137,-0.8633,-1.1811,-1.452,-1.1544,-1.0199,-1.0351,-1.2846,0.0,-1.0247,-0.9674,0.0,0.0,0.0,0.0,0.0,0.0,0.0,0.0,0.0,0.0,0.0,0.0,0.0,0.0,0.0,0.0,0.0,0.0,0.0,0.0,0.0,0.0,-1.3528,-1.3652,-1.587,-1.802,0.0,-1.6465,-1.5468,-1.7512,0.0,0.0,0.0,0.0,0.0,0.0,0.0,0.0,-1.0664,-1.0897,-1.0727,-0.9908,-1.0056,-0.9926,-0.9273,-0.8683,-0.825,-0.7985,-0.7425,-0.6842,-0.6261,-0.545,0.0,0.0,0.0,0.0,0.0,0.0,0.0,0.0,0.0,0.0,0.0,0.0,0.0,0.0,0.0,0.0,0.0,0.0,0.0,0.0,0.0,0.0,0.0,0.0,0.0,0.0,0.0,0.0,0.0,-0.5284,-0.5733,-0.5731,-0.603,-0.5838,0.0,0.0,0.0,0.0,0.0,0.0,0.0,0.0,0.0,-0.9288,-0.6582,-0.6048,-0.7998,-0.8025,-0.8006,-0.7983,-0.947,-1.0964,-1.2324,-1.0824,-1.1215,-1.315,-1.4646,-1.4419,-1.2834,-1.0817,-0.9105,-0.7664,0.0,0.0,0.0,0.0,-0.6695,-0.4972,-0.4863,-0.4887,0.0,0.0,0.0,0.0,0.0,0.0,0.0,0.0,0.0,0.0,0.0,0.0,0.0,-1.5888,-1.6185,-1.6068,-1.6243,-1.5415,-1.4961,0.0,-1.5319,-1.3925,-1.2154,0.0,0.0,0.0,0.0,-1.0455,-1.0136,-1.0462,-1.0351,-0.9361,-0.9395,-0.9239,-0.8637,-0.825,-0.7843,-0.7423,-0.7119,-0.6642,-0.5907,-0.5222,-0.4411,0.0,0.0,0.0,0.0,0.0,0.0,0.0,0.0,0.0,0.0,0.0,0.0,0.0,0.0,0.0,0.0,0.0,0.0,0.0,0.0,0.0,0.0,0.0,0.0,0.0,0.0,0.0,0.0,-0.6508,-0.6456,-0.6547,-0.6519,-0.6126,0.0,0.0,0.0,0.0,0.0,0.0,-0.7155,-0.6202,-0.639,-0.8082,-0.6601,-0.7224,-1.0273,-1.0293,-1.0264,-1.0243,-1.1023,-1.1393,-1.134,-1.049,-1.1992,-1.5276,-1.5276,-1.5206,-1.4894,-1.23,-1.1232,-1.1024,-0.8906,-0.7333,-0.6531,-0.9129,-0.8416,-0.6074,-0.5276,-0.5554,-0.6705,-0.9373,0.0,-0.9952,-0.9757,0.0,0.0,0.0,0.0,-1.4779,-1.4727,-1.4846,-1.5621,-1.8055,-1.6986,-1.5478,-1.5613,-1.5735,-1.5496,0.0,-1.4306,-1.4306,-1.4002,0.0,0.0,0.0,0.0,-1.0788,-1.0406,-1.0466,-1.0166,-0.9216,-0.8982,-0.8655,-0.7975,-0.7828,-0.7538,-0.7017,-0.6841,-0.6451,-0.5775,-0.5098,-0.4374,-0.364,0.0,0.0,0.0,0.0,0.0,0.0,0.0,0.0,0.0,0.0,0.0,0.0,0.0,0.0,0.0,0.0,0.0,0.0,0.0,0.0,0.0,0.0,0.0,0.0,0.0,0.0,0.0,0.0,0.0,-0.7292,-0.7251,0.0,0.0,0.0,0.0,-0.4161,-0.4888,-0.5157,-0.4707,-0.6163,-0.6957,-0.6891,-0.7335,-0.8445,-1.0272,-1.0292,-1.031,-1.0325,-1.344,-1.4909,-1.4736,-1.1547,-1.1964,-1.5201,-1.5201,-1.5165,-1.5092,-1.4921,-1.4837,-1.4513,-1.1233,-0.98,-0.9566,-0.9684,-0.9685,-0.9211,-0.6073,-0.7169,-0.9943,-1.0066,-0.993,-0.968,-0.9483,-0.9271,0.0,0.0,-1.5835,-1.8011,-1.8216,-1.8538,-1.8871,-1.9034,-1.9057,-1.9099,-1.9281,-1.9328,-1.8374,0.0,-1.4281,-1.4096,-1.41,0.0,-1.4163,-1.3903,-1.3292,-1.2733,-1.2396,-1.1539,-1.055,-0.9494,-0.881,-0.8093,-0.7218,-0.7155,-0.7158,-0.7187,-0.6993,-0.6584,-0.5911,-0.5182,-0.4619,-0.4266,-0.3638,0.0,0.0,0.0,0.0,0.0,0.0,0.0,0.0,0.0,0.0,0.0,0.0,0.0,0.0,0.0,0.0,0.0,0.0,0.0,0.0,0.0,0.0,0.0,0.0,0.0,0.0,0.0,0.0,-0.8328,-0.8134,0.0,-0.651,-0.5767,-0.4887,-0.3761,-0.4032,-0.4594,-0.5424,-0.5923,-0.6658,-0.7677,-0.871,-0.9584,-1.0289,-1.2433,-1.4634,-1.6873,-1.8019,-1.8443,-1.8222,-1.7015,-1.7213,-1.8477,-1.8359,-1.765,-1.666,-1.7015,-1.6355,-1.4971,-1.3637,-1.1772,-0.9808,-0.9817,-0.9919,-0.9868,-0.8733,-0.9188,-1.0563,-1.2452,-1.2991,-1.3299,-1.5447,-1.5741,-1.5638,-1.6992,-1.7966,-1.8638,-1.8825,-1.9069,-1.9246,-1.939,-1.945,-1.9508,-1.9583,-1.9602,-1.9179,-1.7738,-1.7457,-1.6783,-1.4701,-1.4255,-1.415,-1.4096,-1.3771,-1.3223,-1.2406,-1.189,-1.0987,-0.9426,-0.8894,-0.8315,-0.7429,-0.7326,-0.7246,-0.7134,-0.6571,-0.592,-0.5152,-0.4667,-0.4179,-0.367,-0.393,-0.4079,0.0,0.0,0.0,0.0,0.0,0.0,0.0,0.0,0.0,0.0,0.0,0.0,0.0,0.0,0.0,0.0,0.0,0.0,0.0,0.0,0.0,0.0,0.0,0.0,0.0,0.0,-0.8824,-0.8895,-0.8646,-0.8021,-0.6878,-0.6172,-0.5331,-0.4166,-0.4133,-0.4714,-0.5966,-0.6523,-0.7523,-0.909,-1.0885,-1.1872,-1.199,-1.5365,-1.8181,-2.0434,-2.0392,-2.0249,-2.0028,-2.0004,-2.0107,-2.0296,-2.0087,-1.9152,-1.7822,-1.8156,-1.7472,-1.6078,-1.5247,-1.3603,-1.1615,-1.1091,-1.0564,-1.0317,-1.1533,-1.1933,-1.2245,-1.4171,-1.554,-1.6847,-1.9174,-1.9485,-1.9119,-1.9341,-1.9308,-1.9196,-1.9184,-1.9295,-1.9416,-1.9493,-1.9493,-1.9493,-1.9493,-1.9555,-1.9541,-1.9375,-1.8445,-1.733,-1.6237,-1.5083,-1.4293,-1.4263,-1.4091,-1.3643,-1.2808,-1.2332,-1.1462,-0.9874,-0.9297,-0.8635,-0.7752,-0.7513,-0.736,-0.7185,-0.6358,-0.5527,-0.4698,-0.4378,-0.3975,-0.3449,-0.4244,-0.4691,-0.4737,0.0,0.0,0.0,0.0,0.0,0.0,0.0,0.0,0.0,0.0,0.0,0.0,0.0,0.0,0.0,0.0,0.0,0.0,0.0,0.0,0.0,0.0,0.0,-0.9581,-0.9658,-0.9454,-0.8991,-0.8755,-0.8144,-0.688,-0.6544,-0.6078,-0.5291,-0.53,-0.5582,-0.6145,-0.799,-0.9672,-1.1068,-1.3727,-1.5251,-1.5458,-1.8698,-2.0313,-2.0312,-2.0312,-2.0225,-2.0108,-2.0017,-2.0107,-2.0269,-2.0087,-1.9411,-1.8446,-1.8384,-1.8355,-1.8137,-1.6036,-1.5284,-1.5192,-1.3503,-1.1803,-1.0863,-1.4355,-1.5357,-1.5105,-1.5144,-1.7272,-1.9832,-1.996,-1.9895,-1.9764,-1.9764,-1.9945,-2.0035,-1.9586,-1.9534,-1.9555,-1.9353,-1.9305,-1.932,-1.932,-1.946,-1.9625,-1.977,-1.6996,-1.5605,-1.8578,-1.6725,-1.4777,-1.4514,-1.4319,0.0,-1.3776,-1.2964,-1.1967,-1.0825,-0.9915,-0.9011,-0.8074,-0.768,-0.7411,-0.7275,-0.6379,-0.5475,-0.4627,-0.4407,-0.4114,-0.3743,-0.4572,-0.4998,-0.4995,0.0,0.0,0.0,0.0,0.0,0.0,0.0,0.0,0.0,0.0,0.0,0.0,0.0,0.0,0.0,0.0,0.0,0.0,0.0,0.0,0.0,-0.8302,-0.9068,-0.9435,-0.9932,-1.0125,-0.9807,-0.9501,-0.9039,-0.8289,-0.7114,-0.6298,-0.6024,-0.6103,-0.6673,-0.786,-0.915,-1.1051,-1.3676,-1.38,-1.5534,-1.9107,-1.7495,-1.7889,-2.0312,-2.0312,-2.0225,-2.0108,-2.0017,-2.0026,-2.0077,-2.0029,-1.983,-1.9545,-1.9482,-1.9498,-1.9397,-1.7975,-1.656,-1.5288,-1.4846,-1.4353,-1.4407,-1.7896,-1.7377,-1.5555,-1.7931,-1.9297,-2.001,-2.0059,-2.1582,-2.3296,-2.3296,-2.3356,-2.3385,-2.3247,-2.1489,-1.9673,-1.9365,-1.955,-1.9782,-1.9681,-1.9518,-1.9446,-1.9625,-1.8872,-1.8341,-1.8788,-1.8517,-1.7747,-1.6211,-1.4968,0.0,-1.4669,-1.3441,-1.2141,-1.1107,-0.9957,-0.8891,-0.8,-0.7185,-0.6659,-0.6588,-0.5319,-0.4547,-0.4453,-0.4172,-0.4208,-0.4626,-0.4868,-0.5008,0.0,0.0,0.0,0.0,0.0,0.0,0.0,0.0,0.0,0.0,0.0,0.0,0.0,0.0,0.0,0.0,0.0,0.0,0.0,0.0,0.0,0.0,-0.8942,-0.9414,-1.0796,-1.0826,-1.066,-1.0576,-1.031,-0.983,-0.905,-0.8004,-0.7328,-0.7223,-0.7417,-0.81,-0.9376,-1.0873,-1.2794,-1.5132,-1.5472,-1.7177,-2.0437,-1.8449,-1.8399,-2.0357,-2.1743,-2.1647,-2.0296,-2.0909,-2.1549,0.0,-2.1155,-2.0449,-2.0029,-2.0327,-2.0289,0.0,0.0,0.0,0.0,0.0,-1.5389,-1.5832,-1.9278,-1.9114,-1.7684,-1.9503,-2.0088,-2.0346,-2.1736,-2.3405,-2.4802,-2.4663,-2.3556,-2.2412,-2.2367,-2.0945,-1.9489,-1.9446,-1.9628,-1.9807,-1.9731,-1.962,-1.9489,-1.9405,0.0,0.0,-1.8984,-1.9232,-1.9059,-1.7871,-1.6869,-1.5998,-1.5315,-1.4069,-1.2713,-1.1366,-0.9902,-0.8658,-0.768,-0.667,0.0,0.0,0.0,-0.4286,-0.4438,-0.418,0.0,0.0,0.0,0.0,0.0,0.0,0.0,0.0,-0.4868,-0.4188,0.0,0.0,0.0,0.0,0.0,0.0,0.0,0.0,0.0,0.0,0.0,0.0,0.0,0.0,0.0,0.0,-0.9959,-1.0269,-1.3041,-1.2398,-1.16,-1.1452,-1.1191,-1.0628,-0.9561,-0.9125,-0.8884,-0.8861,-0.9232,-0.9923,-1.1021,0.0,0.0,0.0,0.0,-1.9208,-2.0122,-2.037,-2.0331,-2.0044,-2.302,-2.311,-2.0695,-2.1953,-2.334,-2.4611,-2.2439,-2.0944,-2.0077,-2.0788,-2.0695,-2.0041,-1.9332,-1.8988,-1.8656,-1.6709,-1.5972,-1.6385,-1.9381,0.0,0.0,-2.0728,-2.0642,-2.1128,-2.367,-2.4441,-2.4355,-2.4073,-2.1745,-1.9308,-1.9186,-1.9153,-1.9127,-1.9064,-1.9323,-1.9602,-1.9602,-1.9692,-1.9535,-1.8713,-1.8835,-1.907,-1.9105,-1.92,-1.9261,-1.9184,-1.8921,-1.795,-1.5814,-1.4553,-1.32,-1.1481,0.0,0.0,-0.7203,-0.6134,-0.5412,-0.5134,-0.4688,-0.4466,-0.4514,-0.4371,-0.4518,-0.5002,-0.5008,-0.5001,-0.5003,-0.4998,-0.4996,-0.4996,-0.4932,-0.4305,0.0,0.0,0.0,0.0,0.0,0.0,0.0,0.0,0.0,0.0,0.0,0.0,0.0,0.0,0.0,-1.1205,-1.2332,-1.343,-1.4698,-1.529,-1.4951,-1.3171,-1.2318,-1.1645,-1.1104,-1.0463,-1.0351,-1.1025,-1.1793,-1.274,-1.3934,-1.5256,0.0,-1.6753,-1.7927,-1.8691,-1.9016,-1.9958,-1.9453,-1.7587,0.0,0.0,-2.1617,-2.1043,-2.0962,-2.1236,-2.0604,-2.027,-2.0155,-2.0211,-2.0212,-2.0167,-2.0068,-2.0051,-2.0032,-1.9705,-1.9534,-1.9523,-2.0243,-2.2133,-2.4249,-2.41,-2.405,-2.367,-2.1597,-2.0979,0.0,-2.089,-2.0231,-1.9541,-1.9512,-1.9497,-1.8846,-1.6249,-1.7671,-1.9602,-1.9602,-1.9629,-1.8758,-1.5805,-1.7188,-1.8914,-1.907,-1.912,-1.912,-1.9053,-1.7555,-1.6424,-1.6358,-1.399,-1.1891,-1.0793,-0.9019,-0.7546,-0.6627,-0.568,-0.5141,-0.5176,-0.4846,-0.4622,-0.4581,-0.4803,-0.4985,-0.5087,-0.5027,-0.5021,-0.5089,-0.5017,-0.5005,-0.4998,-0.4995,-0.437,0.0,0.0,0.0,0.0,0.0,0.0,0.0,0.0,0.0,0.0,0.0,-0.8699,-1.0018,0.0,-1.2902,-1.5178,-1.5754,-1.6247,-1.7211,-1.7615,-1.6852,-1.4298,-1.3356,-1.2661,-1.2067,-1.133,-1.1391,-1.2549,-1.3119,-1.4017,-1.5478,-1.6568,-1.715,-1.7102,-1.807,-1.867,-1.8858,-1.932,-1.9231,-1.8603,-1.9415,-1.9654,-1.9427,-2.0012,-1.9815,-1.9037,-1.9779,-1.9802,-1.9344,-1.9878,-2.015,-2.0258,-2.032,-2.0122,-1.9805,-1.9763,-1.9695,-1.9549,-1.9177,-2.0635,-2.2618,-2.2543,-2.2495,-2.2192,-2.0505,-2.0012,-2.0012,-2.0012,-1.8696,-1.7307,-1.7307,-1.7162,-1.662,-1.4995,-1.591,-1.7121,-1.7058,-1.8392,-1.8504,-1.4819,-1.5365,-1.6967,-1.8662,-1.8284,-1.8081,-1.9054,-1.7829,-1.6661,-1.63,-1.4128,-1.1973,-1.0195,-0.8472,-0.7066,-0.6076,-0.5136,-0.469,-0.4883,-0.4749,-0.4716,-0.4851,-0.5004,-0.5105,-0.5105,-0.5029,-0.5019,-0.5057,-0.501,-0.4995,-0.4992,-0.462,-0.4101,0.0,0.0,0.0,0.0,0.0,0.0,0.0,0.0,-1.2187,-0.971,-1.0439,-1.2144,-1.4127,-1.5407,-1.7011,-1.9583,-1.9307,-1.903,-1.9893,-1.9522,-1.8267,-1.5816,-1.4636,-1.3779,-1.3147,-1.2406,-1.26,-1.4088,-1.4306,-1.5104,-1.6781,-1.769,-1.7863,-1.7213,-1.8193,-1.8644,-1.85,-1.8679,-1.9033,-1.9561,-2.0581,-1.9649,-1.7109,-1.8928,-1.9177,-1.8248,-1.9443,-1.9295,-1.8317,-1.9315,-1.9846,-2.0057,-2.0144,-1.9774,-1.9202,-1.9211,-1.9061,-1.8759,-1.7823,-1.8428,-1.965,-1.989,-1.9971,-2.0012,-2.0012,-2.0012,-1.9993,-2.0015,-1.7615,-1.487,-1.421,-1.3839,-1.3679,-1.3945,-1.4084,-1.423,-1.4489,-1.6688,-1.7679,-1.4556,-1.403,-1.4916,-1.7484,-1.7108,-1.7003,-1.8625,-1.7895,-1.6792,-1.5755,-1.4063,-1.2174,-1.0109,-0.8304,-0.6767,-0.5583,-0.48,-0.4467,-0.4694,-0.47,-0.4825,-0.5091,-0.5082,-0.5074,-0.5074,-0.5021,-0.5008,-0.4998,-0.5,-0.5003,-0.4983,-0.4203,-0.3784,-0.756,-0.7517,-0.7647,-0.7941,-0.7783,-0.8056,0.0,0.0,-1.3364,-1.3768,-1.5731,-1.7486,-1.795,-1.9488,-2.1007,-2.2,-2.2147,-2.2149,-2.2144,-2.1023,-1.9865,-1.8896,-1.6661,-1.5205,-1.5176,-1.4441,-1.4634,-1.6236,-1.6428,-1.7166,-1.8797,-1.921,-1.8726,-1.7244,-1.8241,-1.8117,-1.6688,-1.819,-1.8268,-1.6925,-1.7706,-1.7872,-1.7531,-1.7712,-1.858,-1.9894,-1.9311,-1.8521,-1.7693,-1.7907,-1.8434,-1.9169,-1.9284,-1.929,-1.9296,-2.0045,-1.9823,-1.8956,-1.7625,-1.7476,-1.8085,-1.9413,-1.9903,-2.0012,-2.0012,-2.0012,-2.0015,-2.0069,-1.7674,-1.4384,-1.1351,-1.0532,-1.0794,-1.1927,-1.224,-1.2743,-1.4325,-1.4873,-1.4879,-1.4212,-1.41,-1.4248,-1.4724,-1.5831,-1.6744,-1.6984,-1.5771,-1.4825,-1.4669,-1.2772,-1.1402,-1.1301,-0.8983,-0.6816,-0.5209,-0.502,-0.5011,-0.505,-0.504,-0.5054,-0.5095,-0.5034,-0.5021,-0.5021,-0.5008,-0.4998,-0.4998,-0.5008,-0.4992,-0.4981,-0.4063,-0.3618,-0.9047,-0.8816,-0.8815,-0.979,-1.0925,-1.206,-1.3008,-1.4774,-1.6336,-1.6777,-1.8552,-2.0424,-2.1698,-2.2978,-2.4118,0.0,-2.4745,-2.428,-2.3797,-2.2876,-2.1997,-2.1295,-1.903,-1.7081,-1.6007,-1.5102,-1.5253,-1.6873,-1.6503,-1.7164,-1.932,-1.8582,-1.8062,-1.8012,-1.7549,-1.75,-1.7905,-1.8124,-1.8381,-1.8657,-1.8409,-1.8037,-1.7536,-1.7509,-1.8193,-1.9316,-1.7969,-1.7767,-1.8338,-1.7927,-1.7979,-1.8318,-1.8406,-1.8449,-1.849,-1.89,-1.8475,-1.7536,-1.6431,-1.614,-1.6343,-1.6847,-1.6998,-1.7008,-1.712,-1.718,-1.7202,-1.724,-1.6239,-1.4367,-1.0893,-0.9965,-0.9837,-0.9386,-1.0031,-1.0918,-1.1634,-1.2502,-1.2811,-1.16,-1.1452,-1.1923,-1.3106,-1.3482,-1.3555,-1.334,-1.3637,-1.356,-1.2745,-1.1414,-1.0407,-1.0023,-0.8111,-0.6576,-0.5878,-0.5374,-0.511,-0.5102,-0.5094,-0.5101,-0.5105,-0.5029,-0.4995,-0.5008,-0.5001,-0.4993,-0.5005,-0.4992,-0.5,-0.4962,-0.364,-0.3213,-1.0024,-1.0075,-1.03,-1.1621,-1.348,-1.5098,-1.5576,-1.7541,-1.9318,-1.9546,-2.127,-2.3267,-2.5079,-2.5727,-2.6413,-2.762,-2.6728,-2.5755,-2.5456,-2.4469,-2.3505,-2.2771,-2.0748,-1.8692,-1.6868,-1.5405,-1.5218,-1.68,-1.6052,-1.6527,-1.8811,-1.7771,-1.7356,-1.7926,-1.6844,-1.6904,-1.8278,-1.7905,-1.8302,-1.9492,-1.9009,-1.8326,-1.751,-1.7719,-1.7909,-1.8023,-1.7297,-1.7442,-1.816,-1.7652,-1.7578,-1.7774,-1.7618,-1.7693,-1.7889,-1.7712,-1.7205,-1.6529,-1.5877,-1.5504,-1.5289,-1.5121,-1.5015,-1.4957,-1.5099,-1.5146,-1.519,-1.5189,-1.4499,-1.3313,-1.1413,-1.0628,-1.0007,-0.8706,-0.9276,-0.9943,-0.9334,-1.0426,-1.11,-0.9708,-0.9625,-1.0212,-1.1625,-1.1374,-1.0904,-1.0665,-1.1285,-1.1464,-1.0617,-1.0286,-0.9812,-0.9007,-0.7834,-0.6928,-0.6446,-0.5827,-0.5361,-0.5122,-0.5094,-0.5101,-0.5103,-0.5051,-0.5019,-0.5029,-0.5029,-0.5024,-0.5034,-0.501,-0.5,-0.4973,-0.3799,-0.3348,-1.0097,-1.1092,-1.2306,-1.3526,-1.5151,-1.666,-1.7514,-1.9722,-2.1756,-2.227,-2.4436,-2.6646,-2.7941,-2.7549,-2.7672,-2.9599,-2.7861,-2.6568,-2.7389,-2.559,-2.3851,-2.299,-2.1455,-1.9791,0.0,-1.5505,-1.4582,-1.6109,-1.5366,-1.556,-1.7191,-1.7359,-1.7055,-1.63,-1.6357,-1.6426,-1.649,-1.7291,-1.7725,-1.778,-1.8412,-1.827,-1.7536,-1.8308,-1.7757,-1.6272,-1.7975,-1.7868,-1.6484,-1.6509,-1.704,-1.7722,-1.6938,-1.7154,-1.7803,-1.7028,-1.6717,-1.6688,-1.66,-1.6017,-1.5299,-1.5289,-1.5299,-1.5265,-1.5207,-1.5146,-1.5113,-1.5177,-1.2766,-1.0624,-1.2662,-1.2341,-1.1352,-1.0975,-1.0885,-1.0333,-0.8377,-0.8913,-0.9721,-0.9534,-0.9752,-0.9995,-0.9984,-0.9971,-0.9949,-0.9925,-0.8639,-0.787,-0.8411,-0.9494,-0.9885,-0.9073,-0.8959,-0.8238,-0.6543,-0.6368,-0.5998,-0.5161,-0.5094,-0.5104,-0.5095,-0.5103,-0.5097,-0.5095,-0.5095,-0.5095,-0.5095,-0.5023,-0.4991,-0.5005,-0.4955,-0.4415,-1.3971,-1.4672,-1.5105,-1.7176,-1.8474,-1.9512,-2.0608,-2.1874,-2.3087,-2.4024,-2.5017,-2.5902,-2.6469,-2.6892,-2.7248,-2.7495,-2.6924,-2.6581,-2.694,-2.5925,-2.4826,-2.3982,-2.2392,0.0,0.0,0.0,0.0,-1.6254,-1.4929,-1.5025,-1.7226,-1.6319,-1.6166,-1.71,-1.6098,-1.6112,-1.7324,-1.6996,-1.7128,-1.7692,-1.7205,-1.682,-1.6498,-1.6234,-1.6413,-1.6931,-1.6529,-1.6368,-1.6368,-1.5848,-1.5799,-1.6057,-1.5873,-1.5968,-1.6146,-1.5929,-1.584,-1.5836,-1.5801,-1.5582,-1.5295,-1.5293,-1.5289,-1.5085,-1.3942,-1.4366,-1.5226,-1.5201,-1.4315,-1.3367,-1.3254,-1.3422,-1.3291,-1.1986,-1.137,-1.0401,-0.7907,-0.6893,-0.7079,-0.9213,-1.072,-1.1268,-1.0048,-0.9954,-0.9679,-0.86,-0.797,-0.7704,-0.7904,-0.8789,-0.9513,-0.9764,-0.9316,-0.877,-0.8179,-0.7595,-0.7145,-0.6848,-0.6826,-0.6797,-0.6754,-0.6769,-0.6754,-0.6767,-0.6767,-0.6501,-0.5966,-0.6477,-0.6428,-0.5854,-0.5271,-0.4532,-1.6027,-1.7042,-1.7889,-2.005,-2.1291,-2.2159,-2.2726,-2.3343,-2.3991,-2.4541,-2.4606,-2.4801,-2.561,-2.5609,-2.5683,-2.627,-2.5953,-2.5907,-2.6626,-2.634,-2.5651,-2.4525,-2.3691,-2.24,0.0,0.0,0.0,-1.6048,-1.5168,-1.5209,-1.6502,-1.5559,-1.5502,-1.6674,-1.5993,-1.6157,-1.7318,-1.7336,-1.7596,-1.8118,-1.6812,-1.6139,-1.6055,-1.5546,-1.5753,-1.6517,-1.6157,-1.6158,-1.6349,-1.5879,-1.565,-1.5641,-1.5469,-1.5368,-1.5265,-1.5026,-1.5135,-1.5391,-1.5409,-1.5374,-1.5338,-1.5311,-1.5302,-1.5108,-1.4027,-1.4016,-1.4491,-1.5034,-1.4724,-1.4137,-1.3921,-1.3835,-1.3801,-1.3794,-1.3438,-1.2133,-0.8684,-0.7118,-0.7063,-0.9307,-1.1055,-1.1704,-1.0192,-0.9812,-0.9254,-0.7903,-0.796,-0.8169,-0.8165,-0.8922,-0.9659,-1.0182,-0.975,-0.9318,-0.9021,-0.8492,-0.804,-0.7722,-0.7702,-0.7677,-0.7642,-0.7642,-0.7632,-0.7632,-0.7634,-0.7386,-0.6866,-0.7386,-0.7184,-0.6334,-0.5866,-0.4869,-1.6554,-1.8375,-2.0628,-2.2246,-2.3595,-2.4455,-2.3997,-2.4252,-2.442,-2.3961,-2.3381,-2.3487,0.0,0.0,-2.3309,-2.5836,-2.5072,-2.478,-2.6553,-2.6868,-2.6314,0.0,0.0,0.0,0.0,0.0,0.0,-1.5769,0.0,-1.6072,-1.5299,-1.5236,-1.5235,-1.524,-1.61,-1.656,-1.6516,-1.8037,-1.8773,-1.8691,-1.703,-1.6219,-1.6136,-1.6145,-1.5725,-1.5084,-1.6753,-1.7064,-1.6413,-1.643,-1.6452,-1.6424,-1.5682,-1.5329,-1.5138,-1.4376,-1.4623,-1.5329,-1.5286,-1.5323,-1.5399,-1.5322,-1.5319,-1.5302,-1.5244,-1.4104,-1.3165,-1.4747,-1.4034,-1.315,-1.4675,-1.3783,-1.3253,-1.6282,-1.6805,-1.5382,-1.0848,-0.9838,-0.9789,-0.9773,-1.0771,-1.1321,-1.0415,-0.9571,-0.8711,-0.7888,-0.8476,-0.9003,-0.8993,-0.9766,-1.0308,-1.0308,-1.0242,-0.9904,-0.9124,-0.906,-0.8704,-0.7879,-0.7819,-0.7822,-0.783,-0.783,-0.782,-0.7836,-0.784,-0.782,-0.7759,-0.7762,-0.7311,-0.6421,-0.6631,-0.5354,-2.1603,-2.277,-2.3762,-2.5554,-2.5683,-2.5615,-2.649,-2.5244,-2.3804,-2.3381,-2.2733,-2.1879,-2.0624,0.0,0.0,-2.2776,-2.4069,0.0,-2.6712,-2.6887,0.0,-2.6384,0.0,-2.4921,-2.2967,-2.2964,0.0,0.0,-1.755,-1.6731,-1.7155,-1.7147,-1.7111,-1.7112,-1.7343,-1.718,-1.658,-1.6343,-1.6174,-1.606,-1.5664,-1.5412,-1.5323,-1.5354,-1.524,-1.5027,-1.5529,-1.6021,-1.6432,-1.5843,-1.598,-1.6498,-1.5648,-1.4923,-1.4305,-1.4155,-1.4233,-1.4342,-1.375,-1.4367,-1.5401,-1.5379,-1.5365,-1.5239,-1.4547,-1.4466,-1.4714,-1.5083,-1.5274,-1.5498,-1.6056,-1.6267,-1.646,-1.6838,-1.7694,-1.8013,-1.6516,-1.6413,-1.5189,-1.043,-1.0716,-1.1632,-1.1237,-0.9955,-0.8923,-0.8702,-0.8859,-0.9002,-0.8997,-0.9753,-1.0298,-1.0298,-1.0276,-1.0173,-0.9923,-0.9902,-0.98,-0.958,-0.9559,-0.9563,-0.9569,-0.9559,-0.9589,-0.9639,-0.9642,-0.9313,-0.8671,-0.8667,-0.7988,-0.668,-0.6094,-0.4776,-2.3961,-2.5059,-2.5868,-2.6543,-2.6283,-2.5774,-2.5572,-2.3808,-2.2043,-2.1544,-2.0626,-1.9643,-1.8718,-2.024,-2.1597,0.0,0.0,0.0,-2.6131,-2.6665,-2.6774,0.0,-2.6679,0.0,-2.4902,-2.5234,-2.4921,0.0,-2.0896,-1.9283,-1.9009,-1.8964,-1.8769,-1.8374,-1.8742,-1.872,-1.8271,-1.7404,-1.6929,-1.6847,-1.6499,-1.6303,-1.6228,-1.585,-1.5664,-1.5631,0.0,-1.5427,-1.5896,-1.5463,-1.5565,-1.5946,-1.5476,-1.4988,-1.4433,-1.3743,-1.3731,-1.3944,-1.3136,-1.3711,-1.4834,-1.4839,-1.5078,-1.5254,-1.4736,-1.4888,-1.5245,-1.5163,-1.6153,-1.7204,-1.7127,-1.7751,-1.8287,-1.7957,-1.8977,-2.0209,-2.072,-1.9525,-1.7052,-1.2621,-1.2211,-1.2601,-1.2643,-1.1246,-1.0136,-1.0134,-0.9821,-0.957,-0.9566,-0.9995,-1.0308,-1.0308,-1.0304,-1.0278,-1.0248,-1.0243,-1.0222,-1.0205,-1.0203,-1.0206,-1.0236,-1.0239,-1.0265,-1.029,-1.0292,-1.0058,-0.957,-0.9179,-0.8239,-0.6778,-0.5909,-0.4306,-2.5073,-2.6247,-2.7198,-2.6477,-2.6087,-2.536,-2.3371,-2.1589,-2.016,-1.95,-1.8366,-1.7683,-1.8348,-1.8888,-1.9758,-2.1347,0.0,-2.383,-2.5522,-2.6422,-2.6722,-2.6266,-2.7438,-2.8003,-2.7319,-2.7182,-2.7139,-2.7078,-2.4971,-2.2929,-2.1172,-2.108,-2.0697,-1.9823,-2.0201,-2.042,-2.041,-1.9425,-1.894,-1.8921,-1.8164,-1.782,-1.7776,-1.696,-1.6634,-1.6621,0.0,0.0,-1.5545,-1.55,-1.5448,-1.5371,-1.5308,-1.5173,-1.4857,-1.3406,-1.3264,-1.37,-1.2907,-1.3279,-1.4121,-1.4227,-1.4732,-1.5307,-1.5292,-1.5236,-1.522,-1.5364,-1.6769,-1.8192,-1.8075,-1.8672,-1.9268,-1.9089,-2.0335,-2.1985,-2.3443,-2.0554,-1.7205,-1.5583,-1.445,-1.3845,-1.4041,-1.2783,-1.1757,-1.1756,-1.1014,-1.0428,-1.029,-1.0292,-1.0293,-1.0293,-1.0308,-1.0303,-1.0304,-1.0297,-1.0276,-1.0225,-1.0203,-1.0245,-1.0291,-1.0291,-1.0292,-1.0293,-1.0291,-1.0232,-1.0136,-0.9257,-0.8071,-0.6609,-0.5737,-0.3883,-2.7388,-2.7949,-2.8128,-2.7487,-2.6259,-2.4983,-2.4284,-2.229,-2.0433,-1.9764,-1.9005,-1.8316,-1.7861,-1.9581,-2.1171,-2.1545,-2.3534,-2.5434,-2.6509,-2.6805,-2.7407,0.0,-2.8513,-2.8447,-2.899,-2.8402,0.0,0.0,0.0,-2.6548,-2.4782,-2.4695,-2.4297,-2.3426,-2.1492,-2.0487,-2.0483,-1.8893,-1.8114,-1.8111,-1.7958,-1.7842,-1.7791,-1.7684,-1.7614,-1.7568,-1.7456,0.0,-1.7381,-1.6678,-1.6374,-1.627,-1.5515,-1.4764,-1.4099,-1.3805,-1.3325,-1.2749,-1.1995,-1.2777,-1.4218,-1.4878,-1.519,-1.5292,-1.5231,-1.5164,-1.5388,-1.6723,-1.7207,-1.7625,-1.8957,-1.9819,-2.0102,-1.9076,-2.096,-2.3046,-2.3468,-2.1225,-1.8841,-1.7876,-1.6098,-1.458,-1.4031,-1.3187,-1.2574,-1.2512,-1.1805,-1.1031,-1.0306,-1.027,-1.0293,-1.0292,-1.0293,-1.0292,-1.0293,-1.0309,-1.0308,-1.0273,-1.0272,-1.0292,-1.0293,-1.0291,-1.0308,-1.0307,-1.0302,-0.9947,-0.9225,-0.8354,-0.7165,-0.5699,-0.4833,-0.3506,-2.9463,-2.9653,-2.9284,-2.8599,-2.6857,-2.5058,-2.4091,-2.1656,-1.9538,-1.9242,-1.8258,-1.7338,-1.699,-1.8723,-2.0212,-2.0289,-2.1756,-2.3363,-2.4728,-2.4914,-2.5587,-2.7354,-2.7947,-2.8532,-2.9377,-2.9479,-2.9504,0.0,0.0,-2.8743,-2.699,-2.6495,-2.5887,-2.5052,-2.341,-2.2093,-2.1182,-2.0798,-2.0158,-1.9261,-1.9711,-1.9682,-1.9194,-1.8776,-1.8557,-1.8517,-1.8082,0.0,-1.7835,-1.6953,-1.6596,-1.6508,-1.5526,-1.4865,-1.4412,-1.3965,-1.3558,-1.3106,-1.2335,-1.2641,-1.3513,-1.4342,-1.4937,-1.5291,-1.5224,-1.544,-1.5876,-1.6618,-1.7224,-1.7835,-1.8591,-1.9264,-1.9741,-1.9647,-2.1114,-2.2455,-2.2299,-2.196,-2.1113,-1.9179,-1.7562,-1.6241,-1.5353,-1.417,-1.3377,-1.3376,-1.2656,-1.1776,-1.079,-1.0305,-0.9931,-0.9648,-0.9629,-0.9629,-0.9629,-0.9199,-0.9141,-0.9588,-0.9627,-0.9801,-1.0225,-1.0257,-1.0253,-1.0253,-0.9842,-0.9412,-0.9004,-0.7665,-0.6489,-0.5464,-0.4251,-0.3073,-3.1023,-3.1186,-3.0668,-2.9588,-2.7624,-2.5533,-2.3848,-2.123,-1.9114,-1.8987,-1.7699,-1.6636,-1.6823,-1.7891,-1.8821,0.0,-2.0061,-2.127,-2.2633,-2.3143,-2.4021,-2.5759,-2.7281,0.0,-2.9582,-3.03,0.0,0.0,0.0,0.0,-2.8735,-2.789,-2.7162,-2.6536,-2.532,-2.3927,-2.2376,-2.2847,-2.2225,-2.0508,-2.1386,-2.1346,-2.0483,-1.978,-1.9485,-1.9422,-1.8568,0.0,0.0,-1.7047,-1.6604,-1.6508,-1.549,-1.5056,-1.4923,-1.4206,-1.3865,-1.3659,-1.2862,-1.2634,-1.2786,-1.3292,-1.417,-1.5013,-1.5132,-1.5544,-1.6003,-1.612,-1.6863,-1.7711,-1.7927,-1.8497,-1.9236,-2.0269,-2.0948,-2.1291,-2.1117,-2.201,-2.2142,-1.9745,-1.8583,-1.7608,-1.6524,-1.5241,-1.4337,-1.4235,-1.346,-1.2526,-1.1503,-1.0665,-0.9806,-0.8908,-0.8697,-0.8644,-0.8645,-0.8066,-0.7986,-0.868,-0.8719,-0.9086,-0.9911,-0.9767,-0.9744,-0.9919,-0.9125,-0.8624,-0.8432,-0.6884,-0.5768,-0.5085,-0.3736,-0.2675,-3.1685,-3.2425,-3.2493,-3.0227,-2.8399,-2.6541,-2.4198,-2.2267,-2.0736,-1.9955,-1.8564,-1.7715,-1.851,-1.8259,0.0,0.0,0.0,-2.1749,-2.1901,-2.3283,-2.4895,-2.6587,0.0,0.0,-3.0425,-3.0652,0.0,0.0,0.0,0.0,-3.0464,-2.9702,-2.923,-2.9149,-2.6839,-2.5114,-2.4177,-2.3453,-2.2237,-2.0514,-2.1379,-2.1333,-2.0505,-2.0424,-2.0389,-2.033,-1.9528,0.0,0.0,-1.7318,-1.6603,-1.6491,-1.5497,-1.5061,-1.498,-1.4831,-1.4298,-1.352,-1.2845,-1.2645,-1.259,-1.1945,-1.2769,-1.4144,-1.4818,-1.4982,-1.5076,-1.5737,-1.594,-1.6243,-1.7559,-1.8451,-1.9309,-2.0554,-2.0372,-2.0087,-2.0766,-2.0522,-1.9971,-1.9328,-1.866,-1.774,-1.6356,-1.6005,-1.5676,-1.5015,-1.4111,-1.3216,-1.2388,-1.1738,-1.0527,-0.841,-0.774,-0.7446,-0.7456,-0.7599,-0.7726,-0.7812,-0.7814,-0.8201,-0.9067,-0.836,-0.8275,-0.9009,-0.8236,-0.7439,-0.6633,-0.5682,-0.4753,-0.3851,-0.3149,-0.2382,-3.1288,-3.1827,-3.1556,-3.0734,-2.8969,-2.6925,-2.5019,-2.2479,-2.0297,-1.943,-1.7954,-1.6919,-1.7262,-1.7586,-1.7758,0.0,0.0,0.0,-1.9444,-2.0525,-2.2286,-2.5005,-2.6578,0.0,0.0,0.0,0.0,0.0,0.0,0.0,-3.0703,-3.0428,-2.9795,-2.8745,-2.7764,-2.6094,-2.3636,-2.4302,-2.3252,-2.0515,-2.1919,-2.1857,-2.0504,-2.0499,-2.051,-2.0505,-1.9668,0.0,0.0,-1.7354,-1.6603,-1.6499,-1.5488,-1.5054,-1.5,-1.4876,-1.4653,-1.4281,-1.3513,-1.333,-1.3379,-1.3098,-1.3069,-1.3325,-1.4048,-1.4865,-1.5579,-1.5782,-1.5888,-1.6104,-1.6863,-1.7502,-1.8108,-1.8612,-1.9171,-1.9687,-2.003,-2.0294,-2.0314,-1.9849,-1.9155,-1.8349,-1.751,-1.6534,-1.5793,-1.564,-1.4719,-1.3793,-1.2984,-1.0987,-0.9361,-0.8657,-0.807,-0.7342,-0.6426,-0.6699,-0.6918,-0.6908,-0.6923,-0.7519,-0.8892,-0.8105,-0.8038,-0.8888,-0.7589,-0.6818,-0.6632,-0.5038,-0.3659,-0.2495,-0.2336,-0.2094,-3.0217,-3.0862,-3.0716,-3.0196,-2.862,-2.665,-2.4583,-2.2038,-1.9811,-1.8675,-1.7328,-1.6327,-1.6319,-1.6702,-1.685,-1.6237,0.0,-1.6995,-1.7855,-1.8899,-2.0678,-2.3595,0.0,-2.7103,0.0,0.0,0.0,0.0,0.0,0.0,0.0,-3.0127,-2.9597,-2.8635,-2.7906,-2.6229,-2.3503,-2.4695,-2.3816,-2.0866,-2.2364,-2.2302,-2.0883,-2.062,-2.0538,-2.0536,0.0,0.0,0.0,-1.7062,-1.6366,-1.6509,-1.5499,-1.5068,-1.4981,-1.4604,-1.4502,-1.4432,-1.3645,-1.3431,-1.3513,-1.3565,-1.3312,-1.3079,-1.3527,-1.4363,-1.5195,-1.5274,-1.5481,-1.5739,-1.5967,-1.6554,-1.7099,-1.7155,-1.8063,-1.8974,-1.9104,-1.9629,-1.9935,-1.9413,-1.8861,-1.8318,-1.776,-1.6528,-1.5668,-1.5837,-1.5002,-1.4142,-1.3604,-1.1277,-0.9488,-0.9018,-0.8739,-0.8001,-0.6496,-0.6152,-0.6127,-0.6392,-0.615,-0.6764,-0.8445,-0.7449,-0.7384,-0.8485,-0.6877,-0.6112,-0.63,-0.4031,-0.2431,-0.146,-0.1255,-0.1245,-2.8481,-2.9823,-3.0617,-2.8237,-2.7083,-2.5633,-2.2296,-2.0847,-1.9709,-1.7972,-1.6972,-1.6397,-1.6395,-1.5766,-1.5246,-1.5303,-1.6083,0.0,-1.779,-1.939,-2.1133,0.0,0.0,-2.5328,0.0,0.0,0.0,0.0,0.0,0.0,0.0,-2.8657,-2.863,-2.9563,-2.707,-2.5304,-2.4407,-2.4397,-2.3493,-2.1696,-2.2571,-2.2578,-2.1753,-2.0898,-2.0545,0.0,0.0,0.0,0.0,-1.642,-1.5818,-1.6495,-1.5493,-1.5088,-1.499,-1.4058,-1.3709,-1.3622,-1.287,-1.2614,-1.2606,-1.2605,-1.309,-1.364,-1.3384,-1.3276,-1.3351,-1.3961,-1.4415,-1.476,-1.4878,-1.5755,-1.664,-1.6765,-1.7231,-1.7698,-1.7961,-1.8126,-1.8069,-1.7522,-1.7471,-1.7276,-1.6554,-1.5846,-1.5428,-1.5491,-1.4764,-1.4219,-1.4283,-1.334,-1.174,-0.9349,-0.964,-0.943,-0.809,-0.6221,-0.5488,-0.6337,-0.5585,-0.5871,-0.7538,-0.6015,-0.5918,-0.7577,-0.5976,-0.5108,-0.5108,-0.243,-0.1048,-0.0883,0.0111,0.0362,-2.3797,-2.4449,-2.4497,-2.2767,-2.219,-2.1645,-2.0082,-1.9049,-1.8089,-1.6949,-1.5594,-1.462,-1.4625,-1.4497,-1.4583,-1.5202,-1.6048,0.0,0.0,0.0,0.0,-2.2824,-2.579,-2.7776,0.0,0.0,0.0,0.0,0.0,0.0,0.0,-2.6936,-2.6903,-2.7791,-2.6443,-2.5002,-2.3524,-2.3504,-2.2898,-2.1706,-2.2029,-2.2049,-2.1776,-2.0898,0.0,0.0,0.0,0.0,0.0,-1.5899,-1.5105,-1.4788,-1.4424,-1.3857,-1.3218,-1.2825,-1.2626,-1.2509,-1.2381,-1.2568,-1.2909,-1.3039,-1.2968,-1.2873,-1.3262,-1.3931,-1.454,-1.4422,-1.4708,-1.4891,-1.4257,-1.5056,-1.5948,-1.5523,-1.6452,-1.7329,-1.7052,-1.7483,-1.7744,-1.7181,-1.7045,-1.6822,-1.6168,-1.5348,-1.4875,-1.5125,-1.4379,-1.3885,-1.4131,-1.2148,-1.1254,-1.2647,-0.7753,-0.5005,-0.6497,-0.7282,-0.7556,-0.7236,-0.6965,-0.7311,-0.8447,-0.7403,-0.6842,-0.6905,-0.6492,-0.5884,-0.5087,-0.2864,-0.0726,0.1271,0.0348,-0.0103,-1.9221,-1.9922,-1.9988,-1.8825,-1.8593,-1.8359,-1.7262,-1.6596,-1.5967,-1.5078,-1.4072,-1.3348,-1.3348,-1.3676,-1.4149,-1.4719,-1.5559,0.0,0.0,0.0,0.0,-2.2688,0.0,0.0,0.0,0.0,0.0,0.0,0.0,0.0,0.0,-2.5152,-2.4978,-2.5507,-2.468,-2.3706,-2.262,-2.2608,-2.2477,-2.2226,-2.1939,-2.1973,-2.2246,-2.1076,0.0,0.0,0.0,0.0,0.0,-1.5465,-1.4496,-1.3953,-1.3557,-1.3034,-1.2319,-1.0899,-1.0404,-1.0367,-1.0076,-1.0423,-1.1161,-1.2128,-1.2251,-1.2151,-1.2871,-1.3616,-1.416,-1.413,-1.4021,-1.3886,-1.3796,-1.4357,-1.4914,-1.4853,-1.5846,-1.6765,-1.6617,-1.6828,-1.6881,-1.6231,-1.5923,-1.5646,-1.5214,-1.4534,-1.423,-1.4724,-1.4181,-1.3768,-1.3931,-1.2219,-1.1254,-1.1865,-0.7284,-0.4682,-0.5928,-0.7048,-0.7812,-0.8072,-0.779,-0.7723,-0.7989,-0.7087,-0.6203,-0.5404,-0.5395,-0.4853,-0.3739,-0.1647,0.0253,0.1901,0.0663,-0.0065,0.0,-1.6161,-1.6829,-1.6035,-1.594,-1.5619,-1.4082,-1.3764,0.0,-1.2777,-1.2557,-1.2532,-1.2598,-1.3268,-1.3875,-1.4069,-1.4888,0.0,0.0,-1.8639,0.0,0.0,-2.427,0.0,0.0,0.0,0.0,0.0,0.0,0.0,0.0,-2.3228,-2.2793,-2.2746,-2.1959,-2.1613,-2.1805,-2.1744,-2.2149,-2.2999,-2.2138,-2.217,-2.2953,-2.1268,0.0,0.0,0.0,0.0,0.0,-1.5037,-1.393,-1.3733,-1.2858,-1.2369,-1.1781,-0.8519,-0.7376,-0.7313,-0.6357,-0.661,-0.7696,-0.975,-1.0817,-1.1395,-1.1951,-1.2293,-1.2616,-1.3262,-1.2725,-1.2261,-1.3543,-1.3729,-1.3779,-1.4634,-1.5418,-1.6056,-1.646,-1.6216,-1.5699,-1.4947,-1.443,-1.4028,-1.386,-1.3479,-1.3479,-1.4244,-1.4067,-1.3801,-1.3728,-1.329,-1.1598,-0.8003,-0.7711,-0.732,-0.6206,-0.5926,-0.6723,-0.8851,-0.8121,-0.7297,-0.6614,-0.5496,-0.4423,-0.3455,-0.312,-0.238,-0.1196,0.086,0.1639,0.1183,0.0883,0.0251,-1.0497,0.0,-1.3102,-1.1739,-1.1965,-1.2418,0.0,-1.2457,-1.2842,-1.2643,-1.2112,-1.1887,-1.2543,-1.2835,-1.3443,-1.4847,0.0,-1.6687,-1.7745,0.0,0.0,-2.257,0.0,0.0,0.0,0.0,0.0,0.0,0.0,0.0,0.0,-2.0215,-1.9823,-1.9229,-1.8991,-1.9823,-2.1779,-2.1186,-2.1299,-2.2098,-2.1262,-2.1312,-2.2058,-2.0366,0.0,0.0,0.0,0.0,-1.4974,-1.4335,-1.3298,-1.2068,-1.1787,-1.0184,-0.7891,-0.697,-0.5507,-0.3919,-0.3477,-0.3625,-0.4105,-0.4575,-0.7274,-0.9986,-0.8103,-0.9773,-1.238,-1.2897,-1.3211,-1.3439,-1.3558,-1.3981,-1.4308,-1.4242,-1.4862,-1.5431,-1.5216,-1.5679,-1.5873,-1.5052,-1.4457,-1.3898,-1.3266,-1.2671,-1.2467,-1.2902,-1.3067,-1.3311,-1.3793,-1.3126,-1.1112,-0.7205,-0.5469,-0.5053,-0.6238,-0.6702,-0.7784,-0.9771,-0.8454,-0.7574,-0.749,-0.5725,-0.4444,-0.3792,-0.2323,-0.0484,0.1718,0.2224,0.1665,0.0063,-0.0514,-0.0808,-0.8035,-0.9708,-1.1332,-1.0558,-1.0758,-1.1182,-1.1241,-1.1356,-1.144,-1.1455,-1.1105,-1.1087,-1.1986,-1.2442,-1.3163,-1.4567,-1.5504,0.0,0.0,0.0,-2.1094,-2.3073,0.0,0.0,0.0,0.0,0.0,0.0,0.0,0.0,0.0,-1.8625,-1.8453,-1.8005,-1.8005,-1.8663,-2.0033,-1.9612,-1.9828,-2.0642,-1.9815,-1.984,-2.0604,-1.9296,-1.8457,0.0,0.0,0.0,-1.4627,-1.3764,-1.2318,-1.0558,-0.9701,-0.7947,-0.577,-0.4995,-0.3196,-0.1177,-0.1441,-0.17,-0.1935,-0.1896,-0.3836,-0.5849,-0.4023,-0.5239,-0.7896,-1.1,-1.2101,-1.2419,-1.2917,-1.3271,-1.3573,-1.3864,-1.4346,-1.467,-1.4571,-1.4776,-1.4861,-1.448,-1.3906,-1.3311,-1.2682,-1.2417,-1.2221,-1.2061,-1.2344,-1.2651,-1.2868,-1.1804,-0.9647,-0.6017,-0.4168,-0.3518,-0.4352,-0.4948,-0.6384,-0.8942,-0.8224,-0.6997,-0.5435,-0.4132,-0.2839,-0.1506,-0.0078,0.1231,0.2417,0.31,0.1509,-0.2126,-0.1523,-0.1573,-0.6944,-0.8718,-1.063,-1.0543,-1.074,-1.099,-1.1079,-1.0662,-1.0292,-1.0445,-1.0473,-1.0776,-1.1707,-1.2454,0.0,0.0,0.0,0.0,-1.8147,-1.9285,-2.0731,-2.289,0.0,0.0,0.0,0.0,0.0,0.0,0.0,0.0,0.0,-1.7577,-1.7606,-1.7597,-1.7597,-1.7597,-1.7605,-1.786,-1.8293,-1.8882,-1.8144,-1.8125,-1.8671,-1.7948,-1.7538,0.0,0.0,0.0,-1.4627,-1.2956,-1.1022,-0.8963,-0.7423,-0.5749,-0.4039,-0.2754,-0.079,0.1153,0.0601,0.0147,-0.0136,0.0268,-0.046,-0.1315,-0.0302,-0.0638,-0.245,-0.7627,-0.9441,-1.0229,-1.1921,-1.1833,-1.1745,-1.3448,-1.339,-1.3212,-1.4147,-1.3915,-1.3577,-1.373,-1.3232,-1.2664,-1.2285,-1.2381,-1.2236,-1.1508,-1.1781,-1.1896,-1.1451,-0.9986,-0.7846,-0.4907,-0.3474,-0.2586,-0.2252,-0.2342,-0.3848,-0.7285,-0.7246,-0.5542,-0.2031,-0.1561,-0.0448,0.1584,0.2373,0.2646,0.2347,0.3644,0.1797,-0.2952,-0.2077,-0.2392,-0.738,-0.8961,-1.0191,-0.9059,-0.9857,-1.0957,-1.1068,-1.1023,-1.1169,-1.1963,-1.2214,-1.2576,-1.3442,-1.3759,-1.4165,0.0,0.0,-1.5516,0.0,0.0,0.0,0.0,0.0,0.0,0.0,0.0,0.0,0.0,0.0,0.0,0.0,-1.5769,-1.5799,-1.5797,-1.5797,-1.5799,-1.5801,-1.7266,-1.7695,-1.7104,-1.6952,-1.6582,-1.5996,-1.5857,-1.5408,0.0,0.0,-1.3494,-1.1782,-1.1104,-0.9267,-0.6833,-0.6282,-0.3796,-0.0499,-0.0432,0.1104,0.3309,0.4245,0.3679,0.2872,0.5158,0.295,-0.024,0.1698,0.0644,-0.1292,-0.1627,-0.4398,-0.7939,-1.0886,-0.9473,-0.8361,-1.2545,-1.0886,-0.9383,-1.3226,-1.3906,-1.3729,-1.3657,-1.3153,-1.2659,-1.2427,-1.218,-1.1772,-1.1071,-1.1198,-1.1053,-1.0197,-0.8539,-0.6683,-0.473,-0.3227,-0.2514,-0.2826,-0.1163,-0.1823,-0.5845,-0.477,-0.2535,0.0746,0.1202,0.1776,0.265,0.2981,0.3241,0.3442,0.4007,0.386,0.288,-0.1696,-0.3955,-0.5935,-0.7731,-0.9418,-0.8508,-1.0213,-1.2121,-1.2261,-1.201,-1.1883,-1.2402,-1.2572,-1.2938,-1.387,0.0,-1.4383,-1.5253,0.0,-1.5535,0.0,0.0,0.0,0.0,0.0,0.0,0.0,0.0,0.0,0.0,0.0,0.0,0.0,0.0,-1.6305,-1.5428,-1.5864,-1.5886,-1.5403,-1.5734,-1.5699,-1.5293,-1.4824,-1.4374,-1.4002,-1.4003,-1.3765,-1.3349,0.0,-1.2274,-1.0688,-0.9187,-0.7168,-0.4886,-0.3171,-0.1019,0.1223,0.2144,0.2601,0.3045,0.5236,0.5417,0.4949,0.6658,0.5355,0.3436,0.5184,0.4503,0.3014,0.2526,-0.0568,-0.4425,-0.7479,-0.5829,-0.4415,-0.8565,-0.649,-0.4137,-0.6201,-0.6611,-0.6583,-0.6655,-0.8278,-0.9514,-0.9204,-1.0816,-1.1754,-1.0534,-0.9577,-0.8687,-0.7847,-0.522,-0.3199,-0.262,-0.1135,-0.0393,-0.0894,-0.0262,-0.1091,-0.4088,-0.2273,-0.0346,0.126,0.1769,0.2148,0.2469,0.2761,0.3399,0.4413,0.4329,0.4709,0.5323,0.0335,-0.2822,-0.5095,-0.684,-0.8667,-0.8268,-1.0345,-1.2626,-1.3157,-1.2595,-1.2124,-1.264,-1.2672,-1.2862,0.0,-1.3952,0.0,-1.4998,-1.5256,0.0,0.0,0.0,0.0,0.0,0.0,0.0,0.0,0.0,0.0,0.0,0.0,0.0,0.0,0.0,-1.6949,-1.5713,-1.6157,-1.6087,-1.541,-1.4329,-1.3804,-1.3799,-1.2919,-1.2394,-1.2222,-1.2382,-1.2361,-1.2232,-1.2174,-1.1424,-1.0074,-0.7483,-0.5249,-0.3163,-0.0318,0.1403,0.2479,0.3981,0.3761,0.3031,0.5421,0.6256,0.6354,0.7051,0.6893,0.6661,0.7707,0.7504,0.6696,0.5794,0.3423,0.0322,-0.3328,-0.1827,-0.0301,-0.4105,-0.1935,0.071,-0.0297,-0.0457,-0.0462,-0.067,-0.3261,-0.5332,-0.4983,-0.7577,-0.9261,-0.7904,-0.6538,-0.5445,-0.4881,-0.2059,-0.0236,-0.0591,0.0716,0.1407,0.0908,0.0481,-0.0404,-0.1947,-0.0058,0.1163,0.1287,0.1932,0.2333,0.2474,0.2888,0.3651,0.4854,0.4801,0.5448,0.6626,0.3173,0.0302,-0.6565,-0.7387,-0.8066,-0.8014,-0.9363,-1.113,-1.2811,-1.2068,-1.1458,-1.309,-1.3049,-1.2714,0.0,-1.3507,-1.412,-1.4186,-1.481,0.0,0.0,0.0,0.0,0.0,0.0,0.0,0.0,0.0,0.0,0.0,0.0,0.0,0.0,0.0,0.0,-1.6525,-1.5844,-1.5455,-1.5394,-1.3736,-1.289,-1.2881,-1.2012,-1.12,-1.0504,-1.1123,-1.1204,-1.0853,-1.1223,-1.0698,-0.934,-0.6295,-0.3901,-0.1861,0.0901,0.2698,0.3805,0.4264,0.4576,0.4889,0.558,0.6323,0.695,0.7166,0.734,0.7494,0.7447,0.7333,0.7383,0.8298,0.8366,0.6819,0.087,0.2123,0.3872,-0.044,0.1885,0.398,-0.0004,-0.0625,-0.0406,-0.0419,-0.0624,-0.0737,-0.0578,-0.121,-0.161,-0.1239,-0.1267,-0.1327,-0.127,-0.0271,0.038,0.0223,0.111,0.153,0.112,0.1056,0.0953,0.0822,0.1557,0.1864,0.1594,0.257,0.3243,0.3589,0.3987,0.4223,0.436,0.5626,0.6702,0.7579,0.664,0.5766,-0.6916,-0.7478,-0.8136,-0.8672,-0.9224,-0.9988,-1.1394,-1.2049,-1.2465,-1.2751,-1.3118,0.0,0.0,0.0,-1.4099,-1.4032,-1.4758,0.0,0.0,0.0,0.0,0.0,0.0,0.0,0.0,0.0,0.0,0.0,0.0,0.0,0.0,0.0,0.0,-1.5827,-1.6016,-1.5919,-1.5397,-1.4204,-1.3333,-1.278,-1.136,-1.0508,-1.0187,-1.027,-1.0311,-1.02,-0.7972,-0.689,-0.6345,-0.1709,0.0389,0.0852,0.26,0.3524,0.3963,0.436,0.4765,0.5175,0.6024,0.6647,0.7155,0.7662,0.8015,0.826,0.8609,0.8723,0.8887,0.9503,0.9631,0.8585,0.4195,0.6259,0.8511,0.4506,0.7046,0.9914,0.8339,0.8023,0.8075,0.8164,0.5937,0.4104,0.4224,0.1628,-0.0247,0.0399,0.0801,0.1038,0.1089,0.216,0.2594,0.1769,0.1653,0.1565,0.1438,0.1211,0.1378,0.2045,0.243,0.2384,0.1923,0.2304,0.3022,0.4065,0.4207,0.4709,0.5626,0.6153,0.6581,0.6921,0.7202,0.7184,-0.7165,-0.7523,-0.8084,-0.8462,-0.8614,-0.89,-0.9726,-1.105,-1.1995,-1.161,-1.2325,-1.2887,-1.247,0.0,0.0,0.0,0.0,0.0,0.0,0.0,0.0,0.0,0.0,0.0,0.0,0.0,0.0,0.0,0.0,0.0,0.0,0.0,0.0,0.0,-1.6032,-1.5961,-1.5403,-1.4532,-1.38,-1.3183,-1.1674,-1.075,-1.0366,-1.0022,-0.9578,-0.8935,-0.6074,-0.4426,-0.3388,0.1144,0.311,0.3316,0.3876,0.4091,0.4123,0.4549,0.488,0.53,0.6204,0.6823,0.7315,0.8133,0.861,0.9036,0.9775,1.0021,1.0183,1.0703,1.0828,1.0211,0.7834,0.9432,1.1033,0.8521,1.0513,1.2962,1.3079,1.3079,1.3076,1.3018,1.0591,0.8584,0.8773,0.6106,0.398,0.4078,0.4197,0.414,0.3706,0.4194,0.398,0.2385,0.2136,0.2009,0.1778,0.1717,0.2041,0.2928,0.3347,0.3472,0.3232,0.325,0.3772,0.4961,0.4971,0.5453,0.6416,0.6623,0.6834,0.7051,0.7523,0.7959,-0.7445,-0.7598,-0.7831,-0.7087,-0.7364,-0.7841,-0.7969,-0.8788,-0.9549,-0.9691,-1.0548,-1.1323,-1.1463,-1.2912,0.0,0.0,0.0,0.0,0.0,0.0,0.0,0.0,0.0,0.0,0.0,0.0,0.0,0.0,0.0,0.0,0.0,0.0,0.0,0.0,-1.5815,-1.5383,-1.5407,-1.453,-1.4101,-1.4092,-1.3096,-1.2041,-1.0999,-1.0453,-0.9004,-0.6853,-0.6077,-0.3933,-0.0792,0.1496,0.3567,0.5219,0.4575,0.4392,0.4517,0.4794,0.5081,0.5388,0.6061,0.6796,0.7589,0.8508,0.9098,0.964,1.0714,1.0876,1.0967,1.2015,1.2359,1.233,1.1917,1.1415,1.1034,1.1158,1.1727,1.2254,1.2381,1.2637,1.2699,1.2283,1.2362,1.262,1.288,1.2893,1.2369,1.086,0.9576,0.8267,0.6784,0.5652,0.4139,0.1873,0.2583,0.2885,0.2156,0.2593,0.3135,0.3578,0.446,0.5203,0.568,0.568,0.5938,0.6373,0.6416,0.6416,0.641,0.709,0.7773,0.84,0.8011,0.8518,-0.7965,-0.8065,-0.803,-0.7792,-0.7805,-0.7896,-0.7978,-0.8812,-0.9802,-1.0646,-1.0586,-1.0417,-1.0505,0.0,0.0,0.0,0.0,0.0,0.0,0.0,0.0,0.0,0.0,0.0,0.0,0.0,0.0,0.0,0.0,0.0,0.0,0.0,0.0,0.0,-1.4859,-1.4732,-1.5391,-1.5092,-1.4642,-1.4031,-1.3634,-1.2882,-1.1818,-1.1151,-0.9269,-0.639,-0.3515,-0.0881,0.1551,0.3599,0.4607,0.4839,0.4489,0.4258,0.4118,0.4538,0.5007,0.5578,0.6468,0.7621,0.8802,0.9692,0.8271,0.6943,1.0976,0.9831,0.793,1.161,1.2779,1.2753,1.2235,1.2264,1.2376,1.2001,1.2549,1.3207,1.3366,1.3366,1.3426,1.3502,1.3512,1.3576,1.392,1.3637,1.3352,1.33,1.1176,0.8714,0.6288,0.5121,0.4362,0.4012,0.3389,0.29,0.2694,0.3727,0.4148,0.3622,0.3843,0.4372,0.5159,0.5507,0.5938,0.6373,0.6416,0.6708,0.7335,0.8747,0.8738,0.7462,0.9048,0.9829,-0.7843,-0.8048,-0.8211,-0.8548,-0.8049,-0.7553,-0.7696,-0.8431,0.0,0.0,-1.0592,-1.0397,-1.0109,-1.1764,0.0,0.0,0.0,0.0,0.0,0.0,0.0,0.0,0.0,0.0,0.0,0.0,0.0,0.0,0.0,0.0,0.0,0.0,0.0,0.0,-1.4827,-1.4824,-1.5363,-1.5321,-1.4853,-1.4,-1.3865,-1.3403,-1.2638,-1.1658,-0.8885,-0.4549,0.0086,0.2555,0.3375,0.429,0.4466,0.4154,0.4076,0.3944,0.3891,0.4371,0.4952,0.56,0.6607,0.7845,0.917,1.0383,0.9367,0.8356,1.2286,1.1325,0.956,1.2777,1.3532,1.3267,1.2708,1.2973,1.3218,1.2474,1.3024,1.3693,1.3529,1.3813,1.4079,1.3936,1.3915,1.3973,1.4046,1.381,1.3716,1.4046,1.1772,0.9132,0.6544,0.5275,0.4888,0.5712,0.4879,0.4008,0.3223,0.4148,0.4543,0.4196,0.4324,0.4675,0.5246,0.5376,0.555,0.5852,0.6601,0.7063,0.7167,0.9385,1.0268,0.9969,1.0758,1.1033,-0.7237,-0.7692,-0.8301,-0.9097,-0.8156,-0.7049,-0.7167,-0.7763,-0.8619,-0.9694,0.0,-1.087,-1.0125,0.0,0.0,0.0,0.0,0.0,0.0,0.0,0.0,0.0,0.0,0.0,0.0,0.0,0.0,0.0,0.0,0.0,0.0,0.0,0.0,-1.5419,-1.5312,-1.5284,-1.5285,-1.5138,-1.4659,0.0,-1.3741,-1.358,-1.3365,-1.2061,-0.8197,-0.2206,0.3743,0.566,0.4531,0.3902,0.3483,0.3235,0.3382,0.3539,0.3709,0.4237,0.4837,0.5548,0.655,0.7687,0.8972,1.0716,1.1316,1.178,1.3936,1.396,1.3507,1.4559,1.4369,1.3743,1.3267,1.3468,1.3618,1.2874,1.3322,1.3832,1.3273,1.4084,1.4622,1.3799,1.3821,1.3868,1.3621,1.3705,1.3752,1.3621,1.1548,0.9262,0.7231,0.5922,0.5626,0.681,0.6532,0.5588,0.3888,0.4144,0.4583,0.4898,0.542,0.5766,0.5895,0.529,0.5029,0.5159,0.7107,0.7722,0.6892,0.9634,1.2057,1.4182,1.2801,1.2365,-0.688,-0.7324,-0.7602,-0.8421,-0.8264,-0.7648,-0.6601,-0.7405,-0.8687,-0.9754,-1.0133,-1.022,-1.002,0.0,0.0,0.0,0.0,0.0,0.0,0.0,0.0,0.0,0.0,0.0,0.0,0.0,0.0,0.0,0.0,0.0,0.0,0.0,0.0,-1.63,-1.5017,-1.4593,-1.5225,-1.3923,-1.3144,0.0,-1.2829,-1.3,-1.3374,-1.234,-0.8833,-0.3263,0.2449,0.4489,0.371,0.3272,0.2909,0.2685,0.2938,0.3112,0.3264,0.3671,0.4511,0.5615,0.6563,0.7998,0.9682,1.1358,0.9813,0.8191,1.3053,1.1613,0.9147,1.2955,1.3843,1.357,1.365,1.346,1.3403,1.3873,1.4313,1.4408,1.372,1.4134,1.4503,1.4,1.38,1.3668,1.3621,1.4547,1.4915,1.3752,1.0233,0.7433,0.6617,0.6568,0.6562,0.6532,0.5804,0.5159,0.4723,0.5111,0.5111,0.4495,0.5241,0.619,0.7209,0.5443,0.514,0.6556,0.8769,1.0213,1.0699,1.2224,1.2888,1.267,1.3581,1.4394,-0.6345,-0.6668,-0.6867,-0.7708,-0.7556,-0.722,-0.7322,-0.7653,-0.8306,-0.9719,-0.9965,-0.9948,0.0,0.0,0.0,0.0,0.0,0.0,0.0,0.0,0.0,0.0,0.0,0.0,0.0,0.0,0.0,0.0,0.0,0.0,0.0,-1.6367,-1.6791,-1.7259,-1.5949,-1.5442,-1.5869,-1.4181,-1.3105,-1.264,-1.2195,-1.194,-1.183,-0.9316,-0.6708,-0.3878,0.1664,0.3536,0.2608,0.2275,0.2117,0.2114,0.254,0.2833,0.3099,0.3766,0.457,0.5488,0.6594,0.796,0.9478,1.1082,1.0351,0.9514,1.3176,1.2229,1.0503,1.3501,1.3961,1.3588,1.3873,1.3951,1.4014,1.4463,1.478,1.4747,1.4262,1.48,1.5139,1.4405,1.4286,1.4176,1.3658,1.5697,1.695,1.5891,1.2168,0.8917,0.7532,0.7154,0.6943,0.6696,0.6441,0.5927,0.5072,0.5798,0.6007,0.5366,0.5761,0.7069,0.9342,0.8303,0.8103,0.9021,1.0278,1.1392,1.2385,1.3899,1.4541,1.4271,1.4427,1.4824,-0.5881,-0.6209,-0.6492,-0.7223,-0.6869,0.0,-0.8348,-0.8263,-0.831,-0.9908,-1.0054,0.0,0.0,0.0,0.0,0.0,0.0,0.0,0.0,0.0,0.0,0.0,0.0,0.0,0.0,0.0,0.0,0.0,0.0,0.0,-1.6912,-1.7728,-1.8196,-1.8195,-1.729,-1.6801,-1.6793,-1.4925,-1.3632,-1.292,-1.2025,-1.1153,-1.0198,-0.609,-0.4346,-0.4275,0.1017,0.2653,0.1558,0.1383,0.1403,0.1596,0.2191,0.2623,0.2978,0.3976,0.4676,0.5322,0.6674,0.7863,0.9009,1.0639,1.1515,1.2175,1.3607,1.3702,1.3455,1.4495,1.4139,1.3507,1.4004,1.4279,1.454,1.491,1.5097,1.5124,1.479,1.5701,1.6134,1.4582,1.5092,1.5531,1.4661,1.7002,1.8881,1.8452,1.5394,1.2024,0.8915,0.7821,0.7273,0.7154,0.7328,0.6865,0.5371,0.6301,0.6976,0.6989,0.7131,0.8596,1.1787,1.195,1.195,1.195,1.195,1.2353,1.3162,1.5332,1.6497,1.671,1.5828,1.5475,-0.588,-0.6659,-0.7261,-0.7369,-0.7358,-0.757,0.0,0.0,-0.9944,0.0,0.0,0.0,0.0,0.0,0.0,0.0,0.0,0.0,0.0,0.0,0.0,0.0,0.0,0.0,0.0,0.0,0.0,0.0,0.0,0.0,-1.7796,-1.8533,-1.8945,-1.8952,-1.81,-1.7617,-1.7554,-1.5193,-1.3942,-1.3813,-1.2878,-1.1743,-1.0344,-0.6754,-0.502,-0.4585,0.0089,0.1743,0.1109,0.1242,0.1316,0.1387,0.1939,0.238,0.2818,0.3483,0.435,0.5395,0.6943,0.7895,0.8802,1.1029,1.1834,1.2175,1.3514,1.3759,1.3602,1.3895,1.3304,1.2837,1.3902,1.3588,1.3423,1.5318,1.5944,1.5951,1.5243,1.6677,1.71,1.378,1.6014,1.8462,1.8294,1.8689,1.9146,1.95,1.8301,1.5279,0.9659,0.8814,0.8439,0.767,0.6999,0.6447,0.6167,0.6664,0.766,0.914,0.9986,1.1525,1.4136,1.4479,1.4582,1.4582,1.4582,1.4444,1.4197,1.7205,1.8316,1.7666,1.891,1.8717,-0.5382,-0.573,-0.6109,-0.6603,-0.6776,-0.73,-0.9072,-0.9772,-1.0579,-1.2415,0.0,0.0,0.0,0.0,0.0,0.0,0.0,0.0,0.0,0.0,0.0,0.0,0.0,0.0,0.0,0.0,0.0,0.0,0.0,-1.8047,-1.7952,-1.9612,-2.0554,-2.0559,-2.0153,-1.9703,-1.9226,-1.7156,-1.5187,-1.3325,-1.2341,-1.1155,-0.9713,-0.6538,-0.5066,-0.4832,-0.0399,0.124,0.0806,0.1118,0.1356,0.1576,0.2159,0.2561,0.2917,0.3708,0.4309,0.4973,0.6464,0.7557,0.8507,1.0103,1.0877,1.1444,1.2572,1.275,1.2709,1.3536,1.3398,1.3208,1.4132,1.4262,1.4373,1.538,1.6403,1.7231,1.7567,1.836,1.8658,1.7497,1.8946,2.0359,2.0359,2.0118,1.9914,1.9811,1.765,1.4969,1.1939,1.008,0.8935,0.8822,0.8234,0.7931,0.8139,0.8146,0.8889,1.071,1.1366,1.2762,1.5207,1.592,1.6151,1.5901,1.6411,1.6799,1.704,1.8419,1.9147,1.9214,1.996,1.9894,-0.4995,-0.4959,-0.5125,-0.5985,-0.6426,-0.7292,0.0,0.0,-1.1729,0.0,0.0,0.0,0.0,0.0,0.0,0.0,0.0,0.0,0.0,0.0,0.0,0.0,0.0,0.0,0.0,0.0,0.0,0.0,0.0,-1.9005,-1.8569,-2.0531,-2.1668,-2.1649,-2.1801,-2.1586,-2.0996,-1.9096,-1.6441,-1.3081,-1.2121,-1.0807,-0.9129,-0.6158,-0.4778,-0.4535,-0.0679,0.0864,0.0652,0.1054,0.1405,0.1752,0.2349,0.2695,0.3017,0.3913,0.4428,0.4819,0.6197,0.7373,0.8417,0.9369,1.0324,1.1179,1.1974,1.2187,1.2347,1.3518,1.3631,1.3647,1.451,1.5018,1.54,1.592,1.7158,1.8433,1.94,2.0342,2.0926,2.0757,2.1277,2.1793,2.1793,2.1375,2.0772,1.9952,1.7604,1.5423,1.3815,1.0993,0.9376,0.9908,0.9775,0.9637,0.9619,0.9698,1.0504,1.2285,1.2521,1.3608,1.5852,1.6667,1.6947,1.668,1.7516,1.8319,1.9101,1.9213,1.9603,2.0304,2.0304,2.0304,-0.4995,-0.4989,-0.5197,-0.5994,-0.6871,-0.82,0.0,0.0,0.0,0.0,0.0,0.0,0.0,0.0,0.0,0.0,0.0,0.0,0.0,0.0,0.0,0.0,0.0,0.0,0.0,0.0,0.0,0.0,0.0,-1.9511,-2.0231,-2.1114,-2.1586,-2.1512,-2.2247,-2.2613,-2.2575,-2.0225,-1.7322,-1.3932,-1.3055,-1.1359,-0.8903,-0.5896,-0.4148,-0.3336,-0.0714,0.0535,0.0719,0.1121,0.1451,0.1743,0.2289,0.2679,0.2986,0.3799,0.4575,0.5406,0.6582,0.7734,0.8801,0.9674,1.0897,1.2026,1.2159,1.275,1.3402,1.3886,1.3608,1.3544,1.5158,1.5554,1.5978,1.753,1.8479,1.9247,1.9844,2.2678,2.4205,2.1284,2.1841,2.2797,2.2797,2.2417,2.1589,2.0055,2.013,1.8758,1.4153,1.1314,0.9917,1.0595,1.1075,1.0888,0.9697,1.0914,1.2464,1.4155,1.3976,1.4531,1.6201,1.6582,1.685,1.7157,1.776,1.8433,1.9101,1.9457,1.9904,2.0304,2.0304,2.0304,-0.499,-0.5181,-0.5483,-0.5331,-0.6852,-0.875,-1.0178,-1.2256,-1.4547,0.0,0.0,0.0,0.0,0.0,0.0,0.0,0.0,0.0,0.0,0.0,0.0,0.0,0.0,0.0,0.0,0.0,0.0,0.0,0.0,0.0,-1.9529,-2.1336,-2.2321,-2.2202,-2.3611,-2.3823,-2.27,-1.9748,-1.7116,-1.4822,-1.3251,-1.1235,-0.8779,-0.6061,-0.4306,-0.325,-0.0573,0.0778,0.1125,0.1514,0.179,0.201,0.2392,0.2709,0.2986,0.3654,0.4437,0.526,0.6299,0.7489,0.8721,0.9853,1.084,1.173,1.2465,1.3081,1.3639,1.4145,1.4382,1.4649,1.5458,1.5923,1.6624,1.8539,1.9654,2.076,2.2541,2.3712,2.4393,2.4351,2.4904,2.5154,2.4383,2.3113,2.1361,1.8963,1.9152,1.8609,1.584,1.4399,1.3452,1.299,1.296,1.2737,1.2103,1.2429,1.3256,1.4642,1.461,1.5181,1.6544,1.7146,1.7489,1.7666,1.8383,1.886,1.9101,1.9762,2.0478,2.1245,2.0811,2.0628,-0.4908,-0.5227,-0.5737,0.0,-0.6999,-0.8701,-1.0105,0.0,0.0,0.0,0.0,0.0,0.0,0.0,0.0,0.0,0.0,0.0,0.0,0.0,0.0,0.0,0.0,0.0,0.0,0.0,0.0,0.0,0.0,0.0,-1.9396,-2.1238,-2.243,-2.2621,-2.4049,-2.3994,-2.225,-1.953,-1.7184,-1.5206,-1.3338,-1.0852,-0.7857,-0.5754,-0.3903,-0.2239,0.011,0.1162,0.1234,0.1702,0.1939,0.2035,0.2424,0.2747,0.3098,0.3679,0.4452,0.5366,0.623,0.7424,0.8748,0.9877,1.1003,1.1989,1.273,1.3511,1.4214,1.4584,1.5023,1.5513,1.6113,1.6893,1.8015,1.9791,2.0941,2.2266,2.4319,2.4613,2.4975,2.6628,2.6997,2.6772,2.5786,2.373,2.1296,1.8709,1.8479,1.8166,1.6845,1.6466,1.5923,1.4976,1.466,1.4475,1.4341,1.4204,1.4463,1.5319,1.557,1.6207,1.7299,1.7841,1.8094,1.8214,1.8874,1.9362,1.966,2.022,2.0942,2.1781,2.1103,2.0925,0.0,0.0,0.0,0.0,0.0,0.0,-1.0635,0.0,0.0,0.0,0.0,0.0,0.0,0.0,0.0,0.0,0.0,0.0,0.0,0.0,0.0,0.0,0.0,0.0,0.0,0.0,0.0,0.0,0.0,-2.0238,-2.0098,-2.0919,-2.1799,-2.2661,-2.343,-2.3007,-2.1301,-1.9675,-1.7598,-1.5111,-1.3333,-1.029,-0.6201,-0.4946,-0.2906,-0.0228,0.1331,0.1616,0.108,0.168,0.1872,0.184,0.2335,0.2836,0.3353,0.3915,0.4792,0.581,0.6417,0.7605,0.8934,0.971,1.1349,1.2973,1.2934,1.4004,1.5207,1.5207,1.5467,1.6011,1.7154,1.8492,1.9922,2.1302,2.2494,2.3618,2.4768,2.5425,2.624,2.774,2.779,2.7423,2.6937,2.429,2.1579,1.9542,1.8506,1.7733,1.7216,1.7214,1.7005,1.6318,1.6079,1.6048,1.6229,1.6192,1.6218,1.6363,1.6995,1.772,1.85,1.8577,1.8693,1.8822,1.9213,1.9904,2.0827,2.0794,2.1135,2.1781,2.1135,2.1198,-0.562,0.0,0.0,0.0,0.0,0.0,0.0,0.0,0.0,0.0,0.0,0.0,0.0,0.0,0.0,0.0,0.0,0.0,0.0,0.0,0.0,0.0,0.0,0.0,0.0,0.0,0.0,0.0,-1.9737,-2.0173,-2.0031,-2.0859,-2.1738,-2.2601,-2.2231,-2.1768,-2.1233,-1.9012,-1.7216,-1.5864,-1.3496,-1.0558,-0.7137,-0.5107,-0.2849,-0.0433,0.1216,0.1792,0.1625,0.2061,0.2071,0.1856,0.2522,0.2954,0.3334,0.4331,0.528,0.6202,0.7288,0.8352,0.939,1.0718,1.1956,1.3003,1.3633,1.4719,1.5797,1.5939,1.6492,1.7206,1.8205,1.8905,1.9759,2.1267,2.253,2.3664,2.4513,2.5769,2.6916,2.778,2.7925,2.7855,2.7705,2.5728,2.386,2.2802,2.0435,1.8825,1.8889,1.8714,1.8305,1.7598,1.7504,1.7487,1.7489,1.7516,1.7661,1.7885,1.8152,1.8521,1.8983,1.9427,1.9681,1.9666,1.9925,2.0545,2.1509,2.1055,2.1135,2.1797,2.1873,2.1857,-0.5907,-0.6123,-0.6405,0.0,0.0,0.0,0.0,-0.9388,0.0,0.0,0.0,0.0,0.0,0.0,0.0,0.0,0.0,0.0,0.0,0.0,0.0,0.0,0.0,0.0,0.0,0.0,0.0,-1.8819,-1.9297,-1.9535,-1.9468,-2.0592,-2.1305,-2.1507,-2.1324,-2.085,-2.0077,-1.8314,-1.6801,-1.5534,-1.2835,-0.9955,-0.6932,-0.4642,-0.2341,-0.0115,0.1186,0.172,0.1715,0.2201,0.2207,0.1976,0.2585,0.3137,0.3689,0.4633,0.5656,0.6784,0.789,0.8738,0.967,1.1301,1.2358,1.323,1.4135,1.5242,1.6142,1.6347,1.6936,1.7619,1.8092,1.8685,1.9576,2.1067,2.231,2.3441,2.454,2.6014,2.7218,2.768,2.8253,2.8605,2.8477,2.6894,2.5383,2.4519,2.279,2.1347,2.0656,2.0572,2.0215,1.9339,1.9151,1.9012,1.8769,1.8703,1.8741,1.8884,1.8968,1.9214,1.9594,2.0015,2.0292,2.0465,2.0714,2.115,2.1797,2.1417,2.1417,2.1781,2.1991,2.1991,-0.5994,-0.5848,-0.6223,-0.7211,-0.6571,0.0,-0.877,-0.9235,-0.9238,0.0,0.0,0.0,0.0,0.0,0.0,0.0,0.0,0.0,0.0,0.0,0.0,0.0,0.0,0.0,0.0,-1.9292,-1.8773,-1.8677,-1.8569,-1.8531,-1.8524,-1.9967,-2.0495,-1.9823,-2.0533,-2.0164,-1.8596,-1.7685,-1.6429,-1.4763,-1.1842,-0.8976,-0.6147,-0.3911,-0.1676,0.0457,0.1159,0.1531,0.1657,0.2213,0.2335,0.2196,0.2646,0.3403,0.4308,0.5055,0.6159,0.743,0.8413,0.9108,0.9919,1.1643,1.2656,1.3502,1.4529,1.5541,1.6403,1.6688,1.7216,1.769,1.7677,1.8489,1.9676,2.1008,2.2077,2.3175,2.4738,2.6183,2.7205,2.7387,2.8498,2.9287,2.9053,2.7627,2.6204,2.514,2.5045,2.4382,2.2448,2.2524,2.2325,2.1216,2.0805,2.0407,1.9884,1.9696,1.9551,1.9479,1.9588,1.9859,2.0277,2.0429,2.073,2.115,2.1507,2.1913,2.2398,2.2036,2.1857,2.1857,2.1797,2.184,-0.7036,-0.7418,-0.7517,-0.6744,0.0,0.0,-0.6935,-0.6379,-0.6106,0.0,0.0,0.0,0.0,0.0,0.0,0.0,0.0,0.0,0.0,0.0,0.0,0.0,0.0,0.0,0.0,-1.8906,-1.8735,-1.8542,-1.7851,-1.7442,-1.7495,-1.8397,-1.884,-1.8647,-1.9396,-1.9573,-1.9062,-1.761,-1.6402,-1.5374,-1.1858,-0.884,-0.6285,-0.3893,-0.1576,0.0587,0.1048,0.1667,0.2324,0.2681,0.2677,0.2581,0.3347,0.4194,0.5148,0.6355,0.733,0.8184,0.9577,1.0281,1.0864,1.2196,1.3163,1.3873,1.4566,1.5679,1.6945,1.7625,1.8165,1.8765,1.9295,2.0018,2.1043,2.2608,2.2885,2.3375,2.5287,2.6217,2.6601,2.6486,2.7617,2.859,2.8543,2.7273,2.6096,2.554,2.5621,2.5185,2.3727,2.3634,2.3163,2.1721,2.151,2.1089,2.02,2.0224,2.0204,1.9995,2.0395,2.0681,2.0829,2.1087,2.1324,2.1587,2.1961,2.349,2.623,2.3519,2.2209,2.218,2.1648,2.213,-0.6969,-0.6932,-0.6703,-0.6058,0.0,0.0,0.0,0.0,0.0,0.0,0.0,0.0,0.0,0.0,0.0,0.0,0.0,0.0,0.0,0.0,0.0,0.0,0.0,0.0,0.0,-1.8324,-1.7734,-1.7101,-1.6596,-1.6306,-1.635,-1.7035,-1.7619,-1.7998,-1.8322,-1.8279,-1.7819,-1.6895,-1.5735,-1.4314,-1.0811,-0.8379,-0.6842,-0.3583,-0.1422,-0.0211,0.0604,0.1407,0.2168,0.2546,0.3013,0.3568,0.4182,0.4927,0.5837,0.6947,0.8014,0.9093,1.0232,1.1006,1.1664,1.2818,1.35,1.4079,1.5022,1.6305,1.7321,1.7319,1.8205,1.9127,1.9052,2.0439,2.1857,2.1918,2.2976,2.4067,2.4286,2.4978,2.5633,2.5863,2.6495,2.7169,2.781,2.6978,2.6211,2.6227,2.6057,2.5697,2.5012,2.4956,2.4408,2.2991,2.2657,2.2038,2.0907,2.0712,2.0595,2.0407,2.0662,2.0811,2.0893,2.1151,2.1689,2.2478,2.2365,2.3585,2.6143,2.5236,2.3942,2.2344,2.3808,2.501,0.0,0.0,0.0,0.0,0.0,-0.4733,0.0,0.0,0.0,0.0,0.0,0.0,0.0,0.0,0.0,0.0,0.0,0.0,0.0,0.0,0.0,0.0,0.0,0.0,0.0,-1.7332,-1.6373,-1.559,-1.5184,-1.5004,-1.5094,-1.5887,-1.6556,-1.7073,-1.6469,-1.5824,-1.5131,-1.4177,-1.2979,-1.156,-0.8625,-0.7117,-0.678,-0.311,-0.1257,-0.087,0.0221,0.1171,0.1979,0.2496,0.3433,0.4576,0.4908,0.5588,0.6487,0.7393,0.8606,0.9838,1.0752,1.1514,1.2312,1.3329,1.3948,1.453,1.5852,1.6949,1.7594,1.7164,1.8327,1.9587,1.9148,2.1056,2.2815,2.1652,2.311,2.4475,2.3455,2.3778,2.4461,2.5114,2.54,2.5951,2.7142,2.6834,2.6504,2.6885,2.6512,2.6175,2.6026,2.6026,2.5502,2.4215,2.3736,2.2947,2.1531,2.1103,2.086,2.0744,2.0744,2.0777,2.086,2.1263,2.2209,2.3697,2.3214,2.3779,2.5507,2.6874,2.6066,2.334,2.6371,2.8045,0.0,0.0,0.0,0.0,-0.5832,0.0,0.0,0.0,0.0,0.0,0.0,0.0,0.0,0.0,0.0,0.0,0.0,0.0,0.0,0.0,0.0,0.0,0.0,0.0,0.0,0.0,-1.4995,-1.5228,-1.3913,-1.3257,-1.3622,-1.4951,-1.5433,-1.4882,-1.2547,-1.1026,-1.0458,-0.6841,-0.5407,-0.6168,-0.454,-0.4111,-0.4672,-0.2551,-0.1103,-0.0275,0.0354,0.1306,0.246,0.3124,0.4033,0.5065,0.5468,0.6215,0.7204,0.8265,0.9152,1.0016,1.1114,1.2013,1.2803,1.3528,1.4577,1.5774,1.6959,1.7238,1.7449,1.8583,1.9785,2.0974,2.2015,2.343,2.4615,2.4773,2.4212,2.3936,2.4796,2.4024,2.3332,2.3891,2.4784,2.5799,2.7026,2.7147,2.7071,2.7092,2.701,2.6788,2.6253,2.626,2.5815,2.4408,2.4257,2.3529,2.1638,2.1324,2.1151,2.0909,2.0877,2.0942,2.1151,2.21,2.3479,2.5291,2.527,2.5962,2.7408,2.8112,2.7857,2.675,2.7694,2.8651,0.0,0.0,0.0,0.0,0.0,0.0,-0.4434,0.0,-0.4195,0.0,0.0,0.0,0.0,0.0,0.0,0.0,0.0,0.0,0.0,0.0,0.0,0.0,0.0,0.0,0.0,0.0,0.0,0.0,0.0,-1.2576,-1.3143,-1.154,-1.0873,-1.1411,-0.8002,-0.6077,-0.5931,-0.4989,-0.4697,-0.5001,-0.4064,-0.3904,-0.4381,-0.2191,-0.0879,-0.0265,0.0456,0.1399,0.2477,0.3045,0.3886,0.499,0.5983,0.7014,0.8004,0.8572,0.964,1.0852,1.1493,1.2475,1.3623,1.4616,1.5608,1.6486,1.6978,1.7725,1.8603,1.9261,2.0556,2.1825,2.2313,2.369,2.4859,2.449,2.4393,2.4211,2.3393,2.345,2.3478,2.3008,2.3636,2.4653,2.5873,2.6174,2.6265,2.6302,2.6286,2.6282,2.6274,2.6383,2.595,2.4672,2.4581,2.3833,2.1982,2.1691,2.1433,2.1055,2.0909,2.1166,2.1876,2.2931,2.4208,2.5754,2.717,2.8145,2.8764,3.0828,3.1657,3.1247,2.9151,2.8669,-0.7727,0.0,0.0,0.0,0.0,0.0,0.0,0.0,0.0,0.0,0.0,0.0,0.0,0.0,0.0,0.0,0.0,0.0,0.0,0.0,0.0,0.0,0.0,0.0,0.0,0.0,0.0,0.0,0.0,0.0,-1.0983,-0.8375,-0.7001,-0.7242,-0.3581,-0.1615,-0.1637,-0.1982,-0.2384,-0.2819,-0.2528,-0.2814,-0.3527,-0.1631,-0.0496,0.0,0.0689,0.1548,0.2449,0.2959,0.3886,0.514,0.6346,0.7609,0.8723,0.8841,0.9907,1.1236,1.1472,1.25,1.4013,1.5369,1.6224,1.6816,1.7166,1.8178,1.9394,1.9764,2.1054,2.2344,2.2399,2.3743,2.4747,2.378,2.4057,2.4,2.2158,2.2428,2.2808,2.2338,2.255,2.3201,2.444,2.519,2.5683,2.5805,2.5859,2.5966,2.6189,2.6437,2.6199,2.5283,2.504,2.431,2.2756,2.2202,2.1817,2.1536,2.1392,2.1843,2.2867,2.39,2.5023,2.6323,2.8307,2.9579,3.0054,3.2436,3.3887,3.4345,3.0282,2.932,0.0,0.0,0.0,-0.5921,0.0,0.0,0.0,0.0,-0.2684,0.0,0.0,0.0,0.0,0.0,0.0,0.0,0.0,0.0,0.0,0.0,0.0,0.0,0.0,0.0,0.0,0.0,0.0,0.0,0.0,0.0,-0.5962,-0.6327,-0.5294,-0.2411,0.0447,0.2055,0.2316,0.4463,0.4407,0.2167,0.1657,0.0459,-0.1278,-0.0693,0.0058,0.0864,0.1082,0.1673,0.2534,0.3152,0.4312,0.5814,0.6455,0.777,0.9282,0.9224,0.989,1.0838,1.0845,1.202,1.3749,1.5281,1.6181,1.6789,1.8016,1.8733,1.9282,2.0171,2.1308,2.2419,2.2937,2.4015,2.4667,2.34,2.3097,2.2846,2.2122,2.1023,2.0523,2.1791,2.1678,2.1709,2.2802,2.4496,2.5806,2.6109,2.6302,2.6322,2.6115,2.6455,2.6612,2.637,2.5868,2.513,2.4023,2.2922,2.2365,2.2554,2.2667,2.3187,2.4204,2.5024,2.6087,2.7417,2.8408,2.9768,3.144,3.1874,3.3101,3.4969,3.0865,3.1046,0.0,0.0,-0.6803,-0.6129,0.0,0.0,0.0,0.0,0.0,0.0,0.0,0.0,0.0,0.0,0.0,0.0,0.0,0.0,0.0,0.0,0.0,0.0,0.0,0.0,0.0,0.0,0.0,0.0,-0.8055,0.0,0.0,-0.2371,0.017,0.1375,0.4436,0.6163,0.6338,0.5378,0.4032,0.233,0.1522,0.0419,-0.0906,0.0,0.0554,0.0881,0.1453,0.2098,0.2735,0.3303,0.4215,0.5368,0.6409,0.7604,0.8813,0.9273,1.0132,1.1179,1.1995,1.253,1.3161,1.4843,1.5659,1.6268,1.7799,1.8933,1.9888,2.1058,2.2019,2.2652,2.2834,2.3131,2.3176,2.238,2.1993,2.1765,2.1512,2.126,2.1179,2.1527,2.1815,2.2283,2.3113,2.4076,2.4875,2.517,2.5067,2.5061,2.5458,2.5424,2.545,2.5656,2.5694,2.5541,2.5085,2.4431,2.3984,2.3924,2.3927,2.4329,2.5263,2.6138,2.7178,2.8351,2.9938,3.113,3.191,3.2589,3.3464,3.4492,3.3894,3.4159,-0.9113,-0.798,0.0,-0.59,-0.4923,0.0,-0.3474,0.0,0.0,0.0,0.0,0.0,0.0,0.0,0.0,0.0,0.0,0.0,0.0,0.0,0.0,0.0,0.0,0.0,0.0,0.0,-0.8497,-0.7244,-0.6289,0.0,0.0,0.0,0.3838,0.4693,0.6783,0.7731,0.7422,0.5281,0.3592,0.2392,0.1693,0.0942,0.0143,0.0902,0.1348,0.1583,0.2002,0.2594,0.3232,0.3508,0.4282,0.5433,0.6378,0.735,0.8342,0.93,1.0249,1.1146,1.2066,1.2436,1.2677,1.4068,1.4907,1.5823,1.7466,1.8542,1.9521,2.0876,2.1644,2.2021,2.1914,2.2063,2.2062,2.147,2.1212,2.118,2.1375,2.1084,2.09,2.1387,2.1405,2.1554,2.238,2.3032,2.3773,2.4705,2.4553,2.4541,2.5179,2.4975,2.5046,2.5815,2.5869,2.5836,2.5725,2.5622,2.5634,2.5767,2.5937,2.6423,2.731,2.7955,2.8771,2.981,3.1243,3.2184,3.2674,3.3521,3.4093,3.4439,3.5407,3.5701]},{"header":{"parameterUnit":"m.s-1","parameterCategory":1,"la1":30.6,"la2":29.2853,"lo1":-89.7004,"lo2":-87.6739,"dy":0.0162,"dx":0.0183,"nx":112,"ny":82,"refTime":"2026-03-09T00:00:00:Z","depth":0,"parameterNumber":3,"parameterNumberName":"V-component_of_WINDS"},"data":[0.0,0.0,0.0,0.0,0.0,0.0,0.0,0.0,0.0,0.0,0.0,0.0,0.0,0.0,0.0,0.0,0.0,0.0,0.0,0.0,0.0,0.0,0.0,0.0,0.0,0.0,0.0,0.0,0.0,0.0,0.0,0.0,0.0,0.0,0.0,0.0,0.0,0.0,0.0,0.0,0.0,0.0,0.0,0.0,0.0,0.0,0.0,0.0,0.0,0.0,0.0,0.0,0.0,0.0,0.0,0.0,0.0,0.0,0.0,0.0,0.0,0.0,0.0,0.0,0.0,0.0,0.0,0.0,0.0,0.0,0.0,0.0,0.0,0.0,0.0,0.0,0.0,0.0,0.0,0.0,0.0,0.0,0.0,0.0,0.0,0.0,0.0,0.0,0.0,0.0,-0.7353,-0.9295,-0.8581,-0.7181,-0.5254,-0.4232,-0.3128,-0.176,0.0,0.0,0.0,0.0,0.0,0.0,0.0,0.0,0.0,0.0,0.0,0.0,0.0,0.0,0.0,0.0,0.0,0.0,0.0,0.0,0.0,0.0,0.0,0.0,0.0,0.0,0.0,0.0,0.0,0.0,0.0,0.0,0.0,0.0,0.0,0.0,0.0,0.0,0.0,0.0,0.0,0.0,0.0,0.0,0.0,0.0,0.0,0.0,0.0,0.0,0.0,0.0,0.0,0.0,0.0,0.0,0.0,0.0,0.0,0.0,0.0,0.0,0.0,0.0,0.0,0.0,0.0,0.0,0.0,0.0,0.0,0.0,0.0,0.0,0.0,0.0,0.0,0.0,0.0,0.0,0.0,0.0,0.0,0.0,0.0,0.0,0.0,0.0,0.0,0.0,0.0,0.0,0.0,0.0,0.0,0.0,0.0,0.0,0.0,0.0,0.0,0.0,0.0,0.0,-0.7353,-0.9295,-0.791,-0.6379,-0.5205,-0.4803,-0.3861,-0.2142,0.0,0.0,0.0,0.0,0.0,0.0,0.0,0.0,0.0,0.0,0.0,0.0,0.0,0.0,0.0,0.0,0.0,0.0,0.0,0.0,0.0,0.0,0.0,0.0,0.0,0.0,0.0,0.0,0.0,0.0,0.0,0.0,0.0,0.0,0.0,0.0,0.0,0.0,0.0,0.0,0.0,0.0,0.0,0.0,0.0,0.0,0.0,0.0,0.0,0.0,0.0,0.0,0.0,0.0,0.0,0.0,0.0,0.0,0.0,0.0,0.0,0.0,0.0,0.0,0.0,0.0,0.0,0.0,0.0,0.0,0.0,0.0,0.0,0.0,0.0,0.0,0.0,0.0,0.0,0.0,0.0,0.0,0.0,0.0,0.0,0.0,0.0,0.0,0.0,0.0,0.0,0.0,0.0,0.0,0.0,0.0,0.0,0.0,0.0,0.0,0.0,0.0,0.0,-0.6395,-0.6772,-0.7684,-0.8015,-0.7566,-0.6034,-0.4434,-0.3108,-0.2158,-0.3857,0.0,0.0,0.0,0.0,0.0,0.0,0.0,0.0,0.0,0.0,0.0,0.0,0.0,0.0,0.0,0.0,0.0,0.0,0.0,0.0,0.0,0.0,0.0,0.0,0.0,0.0,0.0,0.0,0.0,0.0,0.0,0.0,0.0,0.0,0.0,0.0,0.0,0.0,0.0,0.0,0.0,0.0,0.0,0.0,0.0,0.0,0.0,0.0,0.0,0.0,0.0,0.0,0.0,0.0,0.0,0.0,0.0,0.0,0.0,0.0,0.0,0.0,0.0,0.0,0.0,0.0,0.0,0.0,0.0,0.0,0.0,0.0,0.0,0.0,0.0,0.0,0.0,0.0,0.0,0.0,0.0,0.0,0.0,0.0,0.0,0.0,0.0,0.0,0.0,0.0,0.0,0.0,0.0,0.0,0.0,0.0,0.0,0.0,0.0,0.0,0.0,0.0,-0.6046,-0.6295,-0.6295,-0.7814,-0.7966,-0.59,-0.368,-0.2293,-0.2048,-0.3079,0.0,0.0,0.0,0.0,0.0,0.0,0.0,0.0,0.0,0.0,0.0,0.0,0.0,0.0,0.0,0.0,0.0,0.0,0.0,0.0,0.0,0.0,0.0,0.0,0.0,0.0,0.0,0.0,0.0,0.0,0.0,0.0,0.0,0.0,0.0,0.0,0.0,0.0,0.0,0.0,0.0,0.0,0.0,0.0,0.0,0.0,0.0,0.0,0.0,0.0,0.0,0.0,0.0,0.0,0.0,0.0,0.0,0.0,0.0,0.0,0.0,0.0,0.0,0.0,0.0,0.0,0.0,0.0,0.0,0.0,0.0,0.0,0.0,0.0,0.0,0.0,0.0,0.0,0.0,0.0,0.0,0.0,0.0,0.0,0.0,0.0,0.0,0.0,0.0,0.0,0.0,0.0,0.0,0.0,0.0,0.0,0.0,0.0,0.0,0.0,0.0,0.0,-0.4911,-0.6295,-0.6295,-0.66,-0.581,-0.337,-0.2686,-0.2235,-0.1844,-0.3006,0.0,0.0,0.0,0.0,0.0,0.0,0.0,0.0,0.0,0.0,0.0,0.0,0.0,0.0,0.0,0.0,0.0,0.0,0.0,0.0,0.0,0.0,0.0,0.0,0.0,0.0,0.0,0.0,0.0,0.0,0.0,0.0,0.0,0.0,0.0,0.0,0.0,0.0,0.0,0.0,0.0,0.0,0.0,0.0,0.0,0.0,0.0,0.0,0.0,0.0,0.0,0.0,0.0,0.0,0.0,0.0,0.0,0.0,0.0,0.0,0.0,0.0,0.0,0.0,0.0,0.0,0.0,0.0,0.0,0.0,0.0,0.0,0.0,0.0,0.0,0.0,0.0,0.0,0.0,0.0,0.0,0.0,0.0,0.0,0.0,0.0,0.0,0.0,0.0,0.0,0.0,0.0,0.0,0.0,0.0,0.0,0.0,0.0,0.0,0.0,0.0,0.0,-0.5166,-0.5741,0.0,-0.6075,-0.499,-0.2715,-0.2412,-0.2332,-0.2301,0.0,0.0,0.0,0.0,0.0,0.0,0.0,0.0,0.0,0.0,0.0,0.0,0.0,0.0,0.0,0.0,0.0,0.0,0.0,0.0,0.0,0.0,0.0,0.0,0.0,0.0,0.0,0.0,0.0,0.0,0.0,0.0,0.0,0.0,0.0,0.0,0.0,0.0,0.0,0.0,0.0,0.0,0.0,0.0,0.0,0.0,0.0,0.0,0.0,0.0,0.0,0.0,0.0,0.0,0.0,0.0,0.0,0.0,0.0,0.0,0.0,0.0,0.0,0.0,0.0,0.0,0.0,0.0,0.0,0.0,0.0,0.0,0.0,0.0,0.0,0.0,0.0,0.0,0.0,0.0,0.0,0.0,0.0,0.0,0.0,0.0,0.0,0.0,0.0,0.0,0.0,0.0,0.0,0.0,0.0,0.0,0.0,0.0,0.0,0.0,0.0,0.0,-0.554,-0.552,-0.5528,0.0,-0.5689,-0.4544,-0.2476,-0.2071,-0.1941,-0.1992,0.0,0.0,0.0,0.0,0.0,0.0,0.0,0.0,0.0,0.0,0.0,0.0,0.0,0.0,0.0,0.0,0.0,0.0,0.0,0.0,0.0,0.0,0.0,0.0,0.0,0.0,0.0,0.0,0.0,0.0,0.0,0.0,0.0,0.0,0.0,0.0,0.0,0.0,0.0,0.0,0.0,0.0,0.0,0.0,0.0,0.0,0.0,0.0,0.0,0.0,0.0,0.0,0.0,0.0,0.0,0.0,0.0,0.0,0.0,0.0,0.0,0.0,0.0,0.0,0.0,0.0,0.0,0.0,0.0,0.0,0.0,0.0,0.0,0.0,0.0,0.0,0.0,0.0,0.0,0.0,0.0,0.0,0.0,0.0,0.0,0.0,0.0,0.0,0.0,0.0,0.0,0.0,0.0,0.0,0.0,0.0,0.0,0.0,0.0,0.0,0.0,0.0,-0.5558,-0.5793,-0.5822,-0.5826,-0.5397,-0.4333,-0.2454,-0.1566,-0.0999,0.0,0.0,0.0,0.0,0.0,0.0,0.0,0.0,0.0,0.0,0.0,0.0,0.0,0.0,0.0,0.0,0.0,0.0,0.0,0.0,0.0,0.0,0.0,0.0,0.0,0.0,0.0,0.0,0.0,0.0,0.0,0.0,0.0,0.0,0.0,0.0,0.0,0.0,0.0,0.0,0.0,0.0,0.0,0.0,0.0,0.0,0.0,0.0,0.0,0.0,0.0,0.0,0.0,0.0,0.0,0.0,0.0,0.0,0.0,0.0,0.0,0.0,0.0,0.0,0.0,0.0,0.0,0.0,0.0,0.0,0.0,0.0,0.0,0.0,0.0,0.0,0.0,0.0,0.0,0.0,0.0,0.0,0.0,0.0,0.0,0.0,0.0,0.0,0.0,0.0,0.0,0.0,0.0,0.0,0.0,0.0,0.0,0.0,0.0,0.0,0.0,0.0,0.0,-0.5115,-0.5808,-0.6558,-0.7648,-0.5906,-0.3948,-0.2173,-0.1756,-0.1373,-0.0877,0.0,0.0,0.0,0.0,0.0,0.0,0.0,0.0,0.0,0.0,0.0,0.0,0.0,0.0,0.0,0.0,0.0,0.0,0.0,0.0,0.0,0.0,0.0,0.0,0.0,0.0,0.0,0.0,0.0,0.0,0.0,0.0,0.0,0.0,0.0,0.0,0.0,0.0,0.0,0.0,0.0,0.0,0.0,0.0,0.0,0.0,0.0,0.0,0.0,0.0,0.0,0.0,0.0,0.0,0.0,0.0,0.0,0.0,0.0,0.0,0.0,0.0,0.0,0.0,0.0,0.0,0.0,0.0,0.0,0.0,0.0,0.0,0.0,0.0,0.0,0.0,0.0,0.0,0.0,0.0,0.0,0.0,0.0,0.0,0.0,0.0,0.0,0.0,0.0,0.0,0.0,0.0,0.0,0.0,0.0,0.0,0.0,0.0,0.0,0.0,0.0,0.0,-0.517,-0.6658,-0.7922,-0.8862,-0.7386,-0.5449,-0.325,-0.2807,-0.2475,-0.212,0.0,0.0,0.0,0.0,0.0,0.0,0.0,0.0,0.0,0.0,0.0,0.0,0.0,0.0,0.0,0.0,0.0,0.0,0.0,0.0,0.0,0.0,0.0,0.0,0.0,0.0,0.0,0.0,0.0,0.0,0.0,0.0,0.0,0.0,0.0,0.0,0.0,0.0,0.0,0.0,0.0,0.0,0.0,0.0,0.0,0.0,0.0,0.0,0.0,0.0,0.0,0.0,0.0,0.0,0.0,0.0,0.0,0.0,0.0,0.0,0.0,0.0,0.0,0.0,0.0,0.0,0.0,0.0,0.0,0.0,0.0,0.0,0.0,0.0,0.0,0.0,0.0,0.0,0.0,0.0,0.0,0.0,0.0,0.0,0.0,0.0,0.0,0.0,0.0,0.0,0.0,0.0,0.0,0.0,0.0,0.0,0.0,0.0,0.0,0.0,0.0,0.0,-0.5871,-0.8146,-0.9591,-0.9538,-0.9266,-0.803,-0.5456,-0.4511,-0.4068,-0.4081,0.0,0.0,0.0,0.0,0.0,0.0,0.0,0.0,0.0,0.0,0.0,0.0,0.0,0.0,0.0,0.0,0.0,0.0,0.0,0.0,0.0,0.0,0.0,0.0,0.0,0.0,0.0,0.0,0.0,0.0,0.0,0.0,0.0,0.0,0.0,0.0,0.0,0.0,0.0,0.0,0.0,0.0,0.0,0.0,0.0,0.0,0.0,0.0,0.0,0.0,0.0,0.0,0.0,0.0,0.0,0.0,0.0,0.0,0.0,0.0,-0.0502,0.0,0.0,0.0,0.0,0.0,0.0,0.0,0.0,0.0,0.0,0.0,0.0,0.0,0.0,0.0,0.0,0.0,0.0,0.0,0.0,0.0,0.0,0.0,0.0,0.0,0.0,0.0,0.0,0.0,0.0,0.0,0.0,0.0,0.0,0.0,0.0,0.0,0.0,0.0,0.0,0.0,-0.8198,-0.9604,-1.0286,-0.9854,-0.9194,-0.8694,-0.8506,-0.6436,-0.5222,-0.538,-0.5207,0.0,0.0,0.0,0.0,0.0,0.0,0.0,0.0,0.0,0.0,0.0,0.0,0.0,0.0,0.0,0.0,0.0,0.0,0.0,0.0,0.0,0.0,0.0,0.0,0.0,0.0,0.0,0.0,0.0,0.0,0.0,0.0,0.0,0.0,0.0,0.0,0.0,0.0,0.0,0.0,0.0,0.0,0.0,0.0,0.0,0.0,0.0,0.0,0.0,0.0,0.0,0.0,0.0,0.0,0.0,0.0,0.0,0.0,0.0,0.0,-0.0686,0.0,0.0,0.0,0.0,0.0,0.0,0.0,0.0,0.0,0.0,0.0,0.0,0.0,0.0,0.0,0.0,0.0,0.0,0.0,0.0,0.0,0.0,0.0,0.0,0.0,0.0,0.0,0.0,0.0,0.0,0.0,0.0,0.0,0.0,0.0,0.0,0.0,0.0,0.0,0.0,-0.9863,-1.0545,-1.0705,-1.0236,-0.9738,-0.9277,-0.8899,-0.7896,-0.6959,-0.623,-0.6029,0.0,0.0,0.0,0.0,0.0,0.0,0.0,0.0,0.0,0.0,0.0,0.0,0.0,0.0,0.0,0.0,0.0,0.0,0.0,0.0,0.0,0.0,0.0,0.0,0.0,0.0,0.0,0.0,0.0,0.0,0.0,0.0,0.0,0.0,0.0,0.0,0.0,0.0,0.0,0.0,0.0,0.0,0.0,0.0,0.0,0.0,0.0,0.0,0.0,0.0,0.0,0.0,0.0,-0.0339,-0.0694,-0.0872,-0.0754,-0.0513,-0.0177,-0.0895,-0.0579,0.0505,0.0,0.0,0.0,0.0,0.0,0.0,0.0,0.0,0.0,0.0,0.0,0.0,0.0,0.0,0.0,0.0,0.0,0.0,0.0,0.0,0.0,0.0,0.0,0.0,0.0,-0.598,-0.5851,0.0,0.0,0.0,0.0,0.0,0.0,0.0,0.0,0.0,0.0,0.0,0.0,-1.0886,-1.1062,-1.0865,-1.0419,-1.0251,-0.9676,-0.8444,-0.8787,-0.8418,-0.6984,-0.657,-0.6659,0.0,0.0,0.0,0.0,0.0,0.0,0.0,0.0,0.0,0.0,0.0,0.0,0.0,0.0,0.0,0.0,0.0,0.0,0.0,0.0,0.0,0.0,0.0,0.0,0.0,0.0,0.0,0.0,0.0,0.0,0.0,0.0,0.3903,0.4494,0.0,0.0,0.0,0.0,0.0,0.0,0.0,0.0,0.0,0.0,0.0,0.0,0.0,-0.0111,-0.0401,-0.0245,-0.0111,0.0022,-0.0057,0.0361,0.1207,0.0934,0.0847,0.0906,0.1067,0.0,0.0739,0.1597,0.0,0.0,0.0,0.0,0.0,0.0,0.0,0.0,0.0,0.0,0.0,0.0,0.0,0.0,0.0,0.0,0.0,0.0,0.0,0.0,0.0,0.0,-0.7421,-0.7107,-0.7783,-0.8403,0.0,-0.5871,-0.4582,-0.6591,0.0,0.0,0.0,0.0,0.0,0.0,0.0,0.0,-1.1043,-1.0897,-1.0541,-0.9951,-0.9969,-0.9712,-0.8955,-0.8608,-0.8322,-0.809,-0.749,-0.7023,-0.6714,-0.6026,0.0,0.0,0.0,0.0,0.0,0.0,0.0,0.0,0.0,0.0,0.0,0.0,0.0,0.0,0.0,0.0,0.0,0.0,0.0,0.0,0.0,0.0,0.0,0.0,0.0,0.0,0.0,0.0,0.0,0.262,0.3687,0.4338,0.4905,0.477,0.0,0.0,0.0,0.0,0.0,0.0,0.0,0.0,0.0,0.0406,0.0,-0.0277,-0.0402,-0.0193,0.0157,0.0628,0.0891,0.1249,0.1705,0.1569,0.1452,0.1382,0.1539,0.1802,0.2119,0.2373,0.2312,0.2036,0.0,0.0,0.0,0.0,0.0763,0.0821,0.1463,0.1517,0.0,0.0,0.0,0.0,0.0,0.0,0.0,0.0,0.0,0.0,0.0,0.0,0.0,-0.8096,-0.785,-0.7365,-0.7021,-0.584,-0.5261,0.0,-0.6034,-0.5415,-0.5732,0.0,0.0,0.0,0.0,-0.9169,-0.9577,-0.9629,-0.9403,-0.8806,-0.9193,-0.9239,-0.8599,-0.8432,-0.8228,-0.7926,-0.7702,-0.7344,-0.6795,-0.625,-0.5749,0.0,0.0,0.0,0.0,0.0,0.0,0.0,0.0,0.0,0.0,0.0,0.0,0.0,0.0,0.0,0.0,0.0,0.0,0.0,0.0,0.0,0.0,0.0,0.0,0.0,0.0,0.0,0.0,0.2763,0.3542,0.4334,0.5232,0.5396,0.0,0.0,0.0,0.0,0.0,0.0,0.2377,0.1604,0.0983,0.0618,0.0086,-0.0173,-0.0112,0.009,0.0448,0.1009,0.1697,0.2086,0.2153,0.192,0.1819,0.1876,0.1876,0.2374,0.32,0.2981,0.2905,0.2851,0.2303,0.1913,0.1659,0.1857,0.1924,0.1843,0.1364,0.1295,0.1228,0.0184,0.0,-0.2389,-0.3217,0.0,0.0,0.0,0.0,-0.7858,-0.7996,-0.7687,-0.7535,-0.8467,-0.7563,-0.6372,-0.6033,-0.5766,-0.5678,0.0,-0.578,-0.578,-0.6529,0.0,0.0,0.0,0.0,-0.7946,-0.8502,-0.8705,-0.8607,-0.8153,-0.8524,-0.858,-0.8045,-0.8107,-0.7979,-0.7557,-0.7665,-0.7487,-0.6882,-0.6352,-0.5752,-0.5056,0.0,0.0,0.0,0.0,0.0,0.0,0.0,0.0,0.0,0.0,0.0,0.0,0.0,0.0,0.0,0.0,0.0,0.0,0.0,0.0,0.0,0.0,0.0,0.0,0.0,0.0,0.0,0.0,0.0,0.4942,0.5172,0.0,0.0,0.0,0.0,0.3207,0.3159,0.2903,0.2334,0.2366,0.2028,0.1184,0.0642,0.0443,0.0651,0.0652,0.0676,0.0745,0.2039,0.2831,0.3099,0.2218,0.211,0.2646,0.2646,0.2845,0.3208,0.3171,0.3188,0.3118,0.2388,0.2512,0.3108,0.3311,0.3123,0.2598,0.1557,0.1296,0.1067,-0.1014,-0.2476,-0.3499,-0.4001,-0.4472,0.0,0.0,-0.8199,-0.9476,-0.9032,-0.8302,-0.7672,-0.7739,-0.7363,-0.6857,-0.6451,-0.6373,-0.6148,0.0,-0.5842,-0.6276,-0.6315,0.0,-0.6122,-0.6781,-0.7444,-0.8112,-0.872,-0.8735,-0.8696,-0.8662,-0.8251,-0.7815,-0.7474,-0.7507,-0.7478,-0.7314,-0.7499,-0.7344,-0.674,-0.6258,-0.5481,-0.4379,-0.3654,0.0,0.0,0.0,0.0,0.0,0.0,0.0,0.0,0.0,0.0,0.0,0.0,0.0,0.0,0.0,0.0,0.0,0.0,0.0,0.0,0.0,0.0,0.0,0.0,0.0,0.0,0.0,0.0,0.4833,0.5333,0.0,0.561,0.5125,0.4439,0.3584,0.3489,0.3246,0.2778,0.2591,0.226,0.1737,0.1438,0.1113,0.0697,0.1088,0.1248,0.118,0.2292,0.3377,0.4333,0.4007,0.3659,0.33,0.3902,0.4034,0.3808,0.4007,0.3738,0.3216,0.3432,0.3375,0.3187,0.3095,0.2751,0.2233,0.1422,0.0966,0.0254,-0.276,-0.4003,-0.445,-0.4982,-0.6082,-0.7085,-0.6952,-0.7858,-0.8741,-0.8283,-0.7704,-0.7196,-0.6914,-0.6745,-0.6575,-0.641,-0.6416,-0.651,-0.6765,-0.6789,-0.6527,-0.5791,-0.5905,-0.6153,-0.6276,-0.6829,-0.7367,-0.7677,-0.7833,-0.7837,-0.7633,-0.763,-0.752,-0.7237,-0.723,-0.731,-0.742,-0.7171,-0.681,-0.6333,-0.544,-0.4621,-0.3868,-0.2764,-0.2146,0.0,0.0,0.0,0.0,0.0,0.0,0.0,0.0,0.0,0.0,0.0,0.0,0.0,0.0,0.0,0.0,0.0,0.0,0.0,0.0,0.0,0.0,0.0,0.0,0.0,0.0,0.3655,0.4779,0.5403,0.5774,0.5901,0.5781,0.5331,0.4448,0.4317,0.4044,0.3532,0.3288,0.2963,0.2521,0.2141,0.1695,0.1207,0.1615,0.1911,0.2148,0.2821,0.3707,0.4762,0.4941,0.4504,0.367,0.4591,0.4642,0.4074,0.4443,0.4195,0.3638,0.3837,0.3329,0.2469,0.2307,0.2053,0.1657,0.0832,-0.0052,-0.1206,-0.3632,-0.4751,-0.5151,-0.5408,-0.652,-0.7579,-0.6992,-0.7027,-0.7273,-0.7412,-0.7118,-0.6781,-0.6617,-0.6617,-0.6617,-0.6617,-0.6496,-0.6538,-0.6956,-0.6713,-0.635,-0.6152,-0.5941,-0.5811,-0.5835,-0.6237,-0.6691,-0.7027,-0.7156,-0.7162,-0.701,-0.7134,-0.715,-0.6919,-0.7006,-0.7139,-0.7343,-0.6969,-0.6529,-0.6095,-0.4993,-0.4062,-0.3345,-0.2036,-0.1423,-0.1539,0.0,0.0,0.0,0.0,0.0,0.0,0.0,0.0,0.0,0.0,0.0,0.0,0.0,0.0,0.0,0.0,0.0,0.0,0.0,0.0,0.0,0.0,0.0,0.2998,0.3326,0.3868,0.4806,0.5339,0.5702,0.5928,0.6156,0.6131,0.5748,0.5659,0.5297,0.4568,0.452,0.4206,0.3543,0.2668,0.2211,0.2138,0.2213,0.2674,0.3581,0.3581,0.384,0.432,0.4806,0.4504,0.3711,0.4591,0.4571,0.3963,0.4414,0.4534,0.4354,0.3555,0.2387,0.1129,0.1181,0.1111,0.0879,-0.0157,-0.1682,-0.3245,-0.3601,-0.4588,-0.5593,-0.5116,-0.5658,-0.6422,-0.6422,-0.5766,-0.5368,-0.6649,-0.6679,-0.6496,-0.6901,-0.6979,-0.6937,-0.6937,-0.6653,-0.6282,-0.5809,-0.5522,-0.5834,-0.7459,-0.6129,-0.5016,-0.5463,-0.5749,0.0,-0.6906,-0.6821,-0.6771,-0.6963,-0.6815,-0.6637,-0.6509,-0.6794,-0.7002,-0.7087,-0.687,-0.6496,-0.5976,-0.4916,-0.3836,-0.2757,-0.1541,-0.1005,-0.1199,0.0,0.0,0.0,0.0,0.0,0.0,0.0,0.0,0.0,0.0,0.0,0.0,0.0,0.0,0.0,0.0,0.0,0.0,0.0,0.0,0.0,0.3871,0.3779,0.3598,0.3988,0.4534,0.5187,0.5765,0.6329,0.6925,0.6576,0.627,0.6211,0.605,0.575,0.5252,0.5046,0.4606,0.3889,0.3345,0.2426,0.1127,0.2071,0.2913,0.3581,0.3581,0.384,0.432,0.4806,0.4854,0.4635,0.467,0.4578,0.4423,0.4857,0.4952,0.4791,0.4274,0.3144,0.1776,0.1299,0.0282,-0.0881,-0.1095,-0.1903,-0.2988,-0.3852,-0.4367,-0.4666,-0.4539,-0.5632,-0.6901,-0.6901,-0.6697,-0.6595,-0.6997,-0.6468,-0.6062,-0.681,-0.6258,-0.5626,-0.597,-0.6483,-0.6696,-0.6282,-0.6132,-0.654,-0.7975,-0.6969,-0.6111,-0.6591,-0.6276,0.0,-0.7036,-0.6702,-0.6455,-0.6542,-0.6684,-0.67,-0.6507,-0.6498,-0.6515,-0.6588,-0.5855,-0.5208,-0.4713,-0.3626,-0.2516,-0.1436,-0.1225,-0.1145,0.0,0.0,0.0,0.0,0.0,0.0,0.0,0.0,0.0,0.0,0.0,0.0,0.0,0.0,0.0,0.0,0.0,0.0,0.0,0.0,0.0,0.0,0.5059,0.4927,0.5442,0.502,0.4914,0.5653,0.6164,0.6662,0.7134,0.6958,0.6833,0.6944,0.6678,0.6414,0.6147,0.5843,0.5299,0.4411,0.3822,0.2913,0.1698,0.198,0.2545,0.3315,0.3785,0.3768,0.3442,0.4207,0.4679,0.0,0.4738,0.4674,0.467,0.5021,0.5012,0.0,0.0,0.0,0.0,0.0,0.0235,-0.0934,-0.1729,-0.2347,-0.2959,-0.3968,-0.4316,-0.4418,-0.4918,-0.5835,-0.682,-0.7306,-0.7258,-0.712,-0.7322,-0.6957,-0.6568,-0.6696,-0.6142,-0.568,-0.5938,-0.6233,-0.6568,-0.6872,0.0,0.0,-0.7961,-0.7286,-0.6796,-0.7175,-0.6944,-0.6749,-0.6899,-0.6523,-0.6235,-0.6204,-0.6157,-0.6091,-0.6,-0.5901,0.0,0.0,0.0,-0.4193,-0.3195,-0.2599,0.0,0.0,0.0,0.0,0.0,0.0,0.0,0.0,-0.1512,-0.2274,0.0,0.0,0.0,0.0,0.0,0.0,0.0,0.0,0.0,0.0,0.0,0.0,0.0,0.0,0.0,0.0,0.6468,0.6417,0.7875,0.6385,0.544,0.625,0.6592,0.6836,0.701,0.7291,0.7521,0.7669,0.7376,0.7143,0.7055,0.0,0.0,0.0,0.0,0.343,0.2917,0.2006,0.2002,0.2906,0.3852,0.366,0.2449,0.3477,0.4063,0.4395,0.4718,0.4787,0.4635,0.4943,0.4825,0.4351,0.4021,0.3092,0.1879,0.0985,0.0383,-0.025,-0.208,0.0,0.0,-0.4217,-0.4529,-0.4684,-0.5737,-0.6037,-0.6299,-0.7302,-0.7276,-0.7027,-0.7461,-0.7545,-0.7342,-0.6425,-0.6325,-0.6416,-0.6416,-0.6067,-0.6112,-0.7277,-0.7658,-0.7753,-0.7719,-0.737,-0.7154,-0.7412,-0.7549,-0.7344,-0.6631,-0.6253,-0.5981,-0.5818,0.0,0.0,-0.5138,-0.5056,-0.5136,-0.5387,-0.4508,-0.329,-0.1756,-0.1799,-0.1578,-0.0984,-0.1053,-0.1086,-0.1075,-0.1097,-0.1108,-0.1108,-0.1287,-0.2088,0.0,0.0,0.0,0.0,0.0,0.0,0.0,0.0,0.0,0.0,0.0,0.0,0.0,0.0,0.0,0.7558,0.8436,0.8974,0.9096,0.8432,0.7741,0.7301,0.7219,0.7348,0.7739,0.7463,0.735,0.7613,0.7695,0.7655,0.7409,0.7074,0.0,0.5322,0.4139,0.3212,0.2503,0.2362,0.2475,0.2825,0.0,0.0,0.3714,0.3474,0.3367,0.3506,0.4239,0.4401,0.4192,0.4666,0.4481,0.3829,0.3719,0.2863,0.1621,0.0301,-0.081,-0.1622,-0.1682,-0.3061,-0.4934,-0.5619,-0.5829,-0.5737,-0.5335,-0.5231,0.0,-0.55,-0.6041,-0.6538,-0.6623,-0.6666,-0.6397,-0.5358,-0.5784,-0.6416,-0.6416,-0.6331,-0.6231,-0.6186,-0.7296,-0.8126,-0.7753,-0.7628,-0.7628,-0.7795,-0.7227,-0.6845,-0.6901,-0.5831,-0.5078,-0.509,-0.467,-0.4313,-0.4101,-0.3977,-0.3822,-0.3607,-0.2577,-0.1856,-0.1633,-0.1242,-0.0969,-0.084,-0.0954,-0.0987,-0.0943,-0.1101,-0.1156,-0.1097,-0.1199,-0.19,0.0,0.0,0.0,0.0,0.0,0.0,0.0,0.0,0.0,0.0,0.0,0.5895,0.623,0.0,0.73,0.8631,0.9466,0.9859,0.9639,0.8879,0.8219,0.7804,0.7328,0.7091,0.7144,0.6741,0.6676,0.7209,0.7272,0.7336,0.7383,0.7204,0.6498,0.5188,0.438,0.3545,0.265,0.2586,0.266,0.2905,0.338,0.3598,0.3644,0.3484,0.336,0.3271,0.3979,0.4254,0.4156,0.418,0.3917,0.3435,0.3173,0.2471,0.1515,0.0302,-0.0688,-0.1539,-0.2312,-0.3546,-0.4911,-0.5412,-0.5609,-0.5533,-0.5112,-0.499,-0.499,-0.499,-0.501,-0.5045,-0.5045,-0.5452,-0.5723,-0.5163,-0.5324,-0.5645,-0.5832,-0.6154,-0.6371,-0.6328,-0.6881,-0.751,-0.797,-0.7761,-0.7489,-0.7314,-0.6799,-0.6354,-0.6094,-0.5212,-0.4506,-0.4223,-0.3684,-0.3333,-0.3299,-0.3056,-0.2735,-0.2329,-0.1799,-0.1408,-0.121,-0.0973,-0.0854,-0.0854,-0.0944,-0.0998,-0.1006,-0.1134,-0.1199,-0.121,-0.158,-0.2428,0.0,0.0,0.0,0.0,0.0,0.0,0.0,0.0,0.8337,0.6768,0.6366,0.6491,0.7121,0.7349,0.7932,0.9393,0.9732,0.9801,0.9649,0.859,0.7801,0.7671,0.706,0.6498,0.6236,0.5884,0.5976,0.6757,0.6709,0.6844,0.7253,0.7102,0.637,0.5017,0.4536,0.3878,0.293,0.2792,0.2802,0.2967,0.3629,0.373,0.3287,0.3551,0.3598,0.3465,0.3868,0.4101,0.4187,0.3711,0.341,0.3087,0.2607,0.2078,0.1469,0.0545,-0.025,-0.1065,-0.2703,-0.3666,-0.4311,-0.4913,-0.5072,-0.499,-0.499,-0.499,-0.4985,-0.4898,-0.427,-0.357,-0.3477,-0.4099,-0.4844,-0.5144,-0.4988,-0.4865,-0.5131,-0.5706,-0.6304,-0.6633,-0.6468,-0.6641,-0.7693,-0.7528,-0.713,-0.6733,-0.6337,-0.5823,-0.5233,-0.4502,-0.3868,-0.3456,-0.2758,-0.2363,-0.2442,-0.2087,-0.1715,-0.1346,-0.1392,-0.1236,-0.0818,-0.0873,-0.0918,-0.0918,-0.0987,-0.1053,-0.1097,-0.1177,-0.1247,-0.1324,-0.2119,-0.3147,0.7494,0.6888,0.6977,0.7941,0.7851,0.7712,0.0,0.0,0.9142,0.7949,0.8145,0.8434,0.8039,0.8122,0.8434,0.9,0.8948,0.8892,0.9059,0.8017,0.7035,0.6553,0.6188,0.5951,0.5864,0.5652,0.5801,0.6478,0.6471,0.6675,0.7168,0.6661,0.5949,0.519,0.4421,0.3727,0.3093,0.3126,0.3016,0.2756,0.3282,0.3555,0.3567,0.3846,0.3992,0.4002,0.3929,0.3894,0.3842,0.3481,0.3209,0.295,0.224,0.1815,0.1519,0.0744,-0.0173,-0.1035,-0.1581,-0.2651,-0.3968,-0.5202,-0.5333,-0.499,-0.499,-0.499,-0.4898,-0.4495,-0.3837,-0.3156,-0.2751,-0.2724,-0.3172,-0.4519,-0.4791,-0.4733,-0.4828,-0.5158,-0.56,-0.6254,-0.6315,-0.6269,-0.6099,-0.6437,-0.668,-0.6605,-0.5779,-0.5177,-0.5267,-0.3783,-0.279,-0.3028,-0.224,-0.1558,-0.1227,-0.0885,-0.0693,-0.0698,-0.0764,-0.0801,-0.0796,-0.0922,-0.0987,-0.0987,-0.1053,-0.1097,-0.1097,-0.1226,-0.1291,-0.1335,-0.2601,-0.3618,0.7692,0.7299,0.7331,0.7928,0.8729,0.9212,0.8692,0.9009,0.9243,0.8502,0.8602,0.8669,0.8221,0.8307,0.8482,0.0,0.828,0.8006,0.7789,0.6668,0.5587,0.4916,0.4219,0.3983,0.4477,0.4581,0.4883,0.5523,0.5763,0.612,0.67,0.6263,0.5652,0.4995,0.4294,0.372,0.3278,0.3277,0.3282,0.329,0.3662,0.3916,0.4008,0.4123,0.42,0.4194,0.386,0.3777,0.3814,0.3161,0.2848,0.2697,0.2016,0.1573,0.1293,0.0495,-0.0202,-0.0881,-0.1546,-0.2197,-0.2918,-0.4122,-0.4555,-0.4518,-0.4071,-0.3809,-0.3617,-0.3429,-0.3157,-0.2858,-0.2565,-0.2577,-0.2751,-0.3095,-0.3503,-0.3866,-0.4006,-0.4305,-0.4663,-0.5014,-0.4861,-0.4848,-0.5462,-0.5209,-0.49,-0.4921,-0.4729,-0.4341,-0.3594,-0.274,-0.2141,-0.1971,-0.1467,-0.1056,-0.0839,-0.0624,-0.0526,-0.0593,-0.0659,-0.0751,-0.0854,-0.0944,-0.1016,-0.1053,-0.1086,-0.1118,-0.1156,-0.121,-0.1258,-0.1329,-0.2633,-0.3932,0.7727,0.7627,0.7587,0.7987,0.9179,0.9993,0.9038,0.9278,0.9579,0.9011,0.8974,0.8931,0.8391,0.8359,0.8265,0.8051,0.7475,0.6961,0.6643,0.5313,0.4144,0.3556,0.2502,0.2088,0.2747,0.3239,0.3794,0.4462,0.4946,0.545,0.6067,0.5731,0.5224,0.4636,0.3966,0.3516,0.3305,0.3278,0.3392,0.3613,0.404,0.4231,0.4204,0.4336,0.4382,0.4327,0.3914,0.3707,0.3612,0.2914,0.2627,0.2498,0.1852,0.147,0.1212,0.0309,-0.0263,-0.0686,-0.1599,-0.1938,-0.2081,-0.2973,-0.3467,-0.3626,-0.3175,-0.2944,-0.2815,-0.2712,-0.2687,-0.2648,-0.2661,-0.2823,-0.2869,-0.2517,-0.2925,-0.3399,-0.3421,-0.3615,-0.3876,-0.4071,-0.3647,-0.3516,-0.4433,-0.3861,-0.3282,-0.3261,-0.337,-0.3098,-0.2088,-0.1837,-0.1598,-0.1166,-0.0945,-0.0789,-0.0706,-0.0612,-0.0563,-0.0595,-0.0659,-0.0751,-0.0865,-0.0936,-0.0998,-0.1046,-0.1046,-0.1068,-0.1116,-0.1134,-0.1177,-0.1286,-0.2811,-0.4324,0.7369,0.7411,0.7467,0.8576,0.933,0.9814,0.9858,1.0376,1.0552,0.9568,0.9749,0.9764,0.8743,0.8291,0.787,0.7311,0.6432,0.5769,0.5759,0.411,0.2876,0.267,0.1453,0.0734,0.0,0.1767,0.267,0.3498,0.4081,0.4683,0.5297,0.4937,0.457,0.4215,0.3365,0.3007,0.3093,0.3166,0.3285,0.3416,0.4208,0.4386,0.4008,0.4395,0.451,0.4398,0.4191,0.3676,0.3018,0.2874,0.2661,0.2451,0.178,0.1576,0.1558,0.0334,-0.0255,-0.0619,-0.1416,-0.1754,-0.1845,-0.2081,-0.215,-0.2247,-0.2613,-0.2944,-0.3109,-0.2779,-0.2597,-0.26,-0.2981,-0.322,-0.3417,-0.3513,-0.3722,-0.3761,-0.33,-0.3266,-0.3442,-0.3828,-0.3169,-0.2538,-0.2582,-0.2394,-0.2228,-0.2155,-0.1718,-0.137,-0.1332,-0.1208,-0.1061,-0.0934,-0.0902,-0.0848,-0.0717,-0.0697,-0.067,-0.0599,-0.0659,-0.0729,-0.0796,-0.0865,-0.0899,-0.091,-0.091,-0.091,-0.091,-0.0976,-0.1038,-0.1156,-0.3342,-0.4882,0.8066,0.8217,0.8159,0.9133,0.9771,1.0103,0.9829,1.0258,1.0521,0.9829,0.9603,0.9236,0.8346,0.7966,0.7429,0.6538,0.56,0.4807,0.4448,0.3126,0.1954,0.1414,0.0684,0.0,0.0,0.0,0.0,0.2502,0.3037,0.3677,0.4455,0.4296,0.4106,0.3987,0.3458,0.3095,0.2977,0.315,0.3291,0.3359,0.4051,0.4389,0.4382,0.4388,0.4475,0.4576,0.3854,0.3405,0.3108,0.2688,0.2502,0.2364,0.1633,0.1467,0.1448,0.0521,0.0,-0.0346,-0.1105,-0.1603,-0.1878,-0.2047,-0.2081,-0.1986,-0.1836,-0.2051,-0.2377,-0.2646,-0.2718,-0.2872,-0.3274,-0.3785,-0.4222,-0.4244,-0.4166,-0.3915,-0.3215,-0.2698,-0.2594,-0.3353,-0.3074,-0.2679,-0.2645,-0.2207,-0.1685,-0.1113,-0.0961,-0.0878,-0.0848,-0.0827,-0.0853,-0.0897,-0.0856,-0.0825,-0.0842,-0.0798,-0.0782,-0.0795,-0.0823,-0.0895,-0.1055,-0.1087,-0.1055,-0.0966,-0.0966,-0.0899,-0.0772,-0.0925,-0.0989,-0.0993,-0.2278,-0.3621,0.821,0.8497,0.8677,0.9456,1.0212,1.0569,0.994,1.0332,1.0556,0.9853,0.92,0.86,0.7952,0.7343,0.6702,0.5764,0.4869,0.4103,0.3505,0.2362,0.1288,0.0535,0.0,-0.0342,0.0,0.0,0.0,0.1651,0.2098,0.2716,0.3621,0.3628,0.3615,0.3658,0.329,0.3067,0.2898,0.3135,0.3341,0.3522,0.3843,0.4136,0.4377,0.4238,0.4221,0.4233,0.373,0.3361,0.3104,0.2622,0.2444,0.2373,0.1558,0.1378,0.1436,0.0623,0.0231,-0.0034,-0.0808,-0.1311,-0.168,-0.1914,-0.1981,-0.1956,-0.1629,-0.1721,-0.2004,-0.2583,-0.2762,-0.2908,-0.3342,-0.3902,-0.4484,-0.4987,-0.5159,-0.4902,-0.3686,-0.3076,-0.2853,-0.3205,-0.304,-0.2702,-0.2306,-0.1598,-0.0891,-0.0328,-0.0365,-0.0482,-0.0553,-0.0643,-0.0739,-0.0824,-0.0832,-0.0836,-0.0869,-0.0855,-0.0863,-0.0897,-0.0895,-0.0943,-0.1057,-0.1057,-0.0988,-0.0819,-0.0802,-0.0727,-0.0631,-0.0727,-0.0787,-0.082,-0.192,-0.3117,0.8029,0.852,0.913,0.9673,1.0629,1.1145,1.0248,1.0545,1.0745,0.962,0.8684,0.7916,0.0,0.0,0.565,0.4964,0.4252,0.3593,0.2967,0.1879,0.0861,0.0,0.0,0.0,0.0,0.0,0.0,0.0999,0.0,0.1796,0.2766,0.2996,0.31,0.317,0.2948,0.2808,0.2838,0.2978,0.331,0.3845,0.3581,0.3633,0.3986,0.3951,0.3775,0.3517,0.3752,0.3511,0.2968,0.2639,0.2496,0.2418,0.1579,0.1375,0.1524,0.0722,0.0415,0.0301,-0.0467,-0.0937,-0.1246,-0.1644,-0.1847,-0.1981,-0.1973,-0.1951,-0.2026,-0.2634,-0.2728,-0.2765,-0.3287,-0.3725,-0.4338,-0.5686,-0.6578,-0.6649,-0.483,-0.4458,-0.4231,-0.3413,-0.3038,-0.2536,-0.1533,-0.0606,0.0057,0.0189,0.0111,-0.0098,-0.0452,-0.0619,-0.0698,-0.0698,-0.0806,-0.0866,-0.0818,-0.0872,-0.0896,-0.0898,-0.0908,-0.0874,-0.0806,-0.0806,-0.0701,-0.0496,-0.0428,-0.0427,-0.0475,-0.0424,-0.0447,-0.0562,-0.2091,-0.3186,1.042,1.0739,1.0829,1.0979,1.1368,1.1472,1.0502,1.0199,0.9799,0.8626,0.7828,0.7056,0.6158,0.0,0.0,0.4531,0.3974,0.0,0.2572,0.188,0.0,0.0345,0.0,-0.0217,-0.0301,-0.0451,0.0,0.0,0.0997,0.1243,0.1765,0.2334,0.271,0.2825,0.2863,0.2644,0.2146,0.2297,0.2634,0.3158,0.3045,0.3206,0.3608,0.3474,0.3448,0.3504,0.3407,0.3151,0.275,0.2474,0.2353,0.2319,0.1887,0.17,0.1598,0.1114,0.0839,0.0626,0.006,-0.047,-0.0942,-0.1244,-0.1412,-0.1501,-0.1722,-0.1744,-0.1807,-0.2524,-0.3004,-0.3365,-0.3818,-0.4703,-0.5588,-0.6046,-0.6881,-0.76,-0.7746,-0.7265,-0.6253,-0.432,-0.2947,-0.1842,-0.1082,-0.0348,0.0214,0.0399,0.0387,0.0177,-0.0353,-0.049,-0.054,-0.054,-0.0584,-0.0667,-0.0868,-0.0888,-0.0922,-0.0965,-0.0984,-0.0942,-0.0879,-0.0773,-0.0628,-0.0421,-0.0358,-0.0264,-0.0132,-0.0303,-0.0087,0.0511,0.0,-0.0292,1.1237,1.142,1.1382,1.1199,1.136,1.1207,1.0009,0.9318,0.8683,0.7735,0.6802,0.5959,0.5367,0.5046,0.464,0.0,0.0,0.0,0.2286,0.1689,0.111,0.0,0.0233,0.0,0.0109,0.0,0.0217,0.0,0.0958,0.1137,0.1663,0.2119,0.2429,0.2582,0.2634,0.2506,0.2162,0.2175,0.2342,0.2631,0.2576,0.2692,0.3008,0.3009,0.3045,0.3109,0.0,0.2824,0.2518,0.2242,0.2222,0.2312,0.2003,0.1973,0.1996,0.1535,0.1262,0.1067,0.0459,-0.009,-0.055,-0.0843,-0.1087,-0.1335,-0.1614,-0.1828,-0.2109,-0.2639,-0.3286,-0.3972,-0.475,-0.5853,-0.6747,-0.6848,-0.7619,-0.8474,-0.9117,-0.8338,-0.6803,-0.4438,-0.2763,-0.1547,-0.0912,-0.0294,0.0133,0.0221,0.0236,0.0104,-0.0271,-0.0327,-0.0315,-0.0315,-0.0427,-0.0561,-0.0717,-0.0784,-0.0805,-0.0781,-0.0803,-0.0758,-0.0604,-0.0559,-0.0426,-0.0225,-0.0135,-0.0044,0.0,-0.012,0.0234,0.1028,0.0896,0.051,1.1295,1.1344,1.1405,1.09,1.0872,1.0635,0.9147,0.8233,0.7538,0.6953,0.5791,0.4863,0.4873,0.4404,0.3885,0.3429,0.0,0.2715,0.2065,0.15,0.0933,0.0401,0.0419,0.0489,0.0536,0.0534,0.0711,0.1301,0.1199,0.1352,0.2039,0.2169,0.2267,0.2346,0.2302,0.2281,0.237,0.2213,0.2158,0.2156,0.2069,0.2149,0.234,0.2535,0.2597,0.2558,0.0,0.0,0.2219,0.1972,0.2068,0.2332,0.2083,0.22,0.2453,0.2004,0.1746,0.1561,0.0761,0.0261,-0.0092,-0.0559,-0.0998,-0.1406,-0.1742,-0.2175,-0.265,-0.2952,-0.3679,-0.462,-0.5742,-0.6889,-0.7785,-0.781,-0.8579,-0.9389,-0.965,-0.8356,-0.6518,-0.4395,-0.2841,-0.1669,-0.1074,-0.0502,-0.0154,-0.0205,-0.0168,-0.0159,-0.0225,-0.0157,-0.009,-0.0067,-0.0292,-0.045,-0.0427,-0.0562,-0.0584,-0.0446,-0.049,-0.0425,-0.018,-0.018,-0.0135,0.0045,0.018,0.0201,0.0088,0.0101,0.0494,0.121,0.1089,0.0425,1.2194,1.1936,1.1507,1.0689,1.0344,0.9904,0.8599,0.7675,0.6886,0.6231,0.536,0.4609,0.4165,0.4073,0.3876,0.3172,0.3046,0.2785,0.197,0.1639,0.1376,0.0,0.112,0.1304,0.1392,0.1426,0.0,0.0,0.0,0.1973,0.2005,0.2106,0.2179,0.205,0.1739,0.1567,0.1612,0.1404,0.1346,0.1386,0.1335,0.1561,0.2066,0.1781,0.189,0.2274,0.2066,0.0,0.1865,0.1826,0.1902,0.2106,0.2423,0.2537,0.2486,0.2465,0.226,0.1905,0.1155,0.0642,0.0155,-0.0845,-0.1396,-0.1742,-0.2344,-0.2742,-0.3131,-0.3707,-0.453,-0.5346,-0.5932,-0.7165,-0.8275,-0.8294,-0.9442,-1.0563,-1.0387,-0.8468,-0.6533,-0.5593,-0.3976,-0.2571,-0.191,-0.1212,-0.0769,-0.082,-0.0515,-0.0289,-0.036,-0.0269,-0.009,0.0135,-0.0045,-0.0157,-0.009,-0.027,-0.0292,-0.009,-0.0157,-0.0112,0.0045,0.0202,0.0292,0.0337,0.0472,0.0521,0.0504,0.0292,0.0564,0.1276,0.1205,0.1767,1.1904,1.1531,1.1022,1.0338,0.9642,0.8812,0.7769,0.6724,0.5834,0.5382,0.4679,0.4083,0.3767,0.3682,0.3473,0.2851,0.2623,0.2301,0.1675,0.1524,0.1397,0.1254,0.1526,0.187,0.2119,0.2061,0.2257,0.0,0.0,0.2452,0.2539,0.2376,0.2151,0.1807,0.1483,0.1255,0.111,0.0954,0.0836,0.0799,0.0774,0.0988,0.13,0.1107,0.1176,0.1457,0.1503,0.0,0.1404,0.1632,0.1854,0.21,0.2598,0.2856,0.2932,0.3064,0.2913,0.2488,0.1624,0.0939,0.0265,-0.0971,-0.157,-0.1911,-0.2513,-0.3071,-0.3556,-0.399,-0.4615,-0.5325,-0.6175,-0.7202,-0.8177,-0.8645,-0.9622,-1.0352,-0.9987,-0.9096,-0.7946,-0.651,-0.5077,-0.3712,-0.2569,-0.1897,-0.1465,-0.1288,-0.1219,-0.1186,-0.1229,-0.1609,-0.1329,0.0042,0.0084,0.0021,0.0042,-0.006,-0.004,0.0188,0.0168,0.0257,0.0446,0.0582,0.065,0.065,0.0645,0.0638,0.059,0.0402,0.0668,0.1337,0.0855,0.0569,1.1215,1.0814,1.0336,0.9685,0.8776,0.7806,0.6895,0.5888,0.5032,0.4822,0.4168,0.365,0.3614,0.3356,0.3023,0.0,0.2153,0.1814,0.1384,0.1365,0.1417,0.1463,0.1848,0.0,0.2718,0.2584,0.0,0.0,0.0,0.0,0.2957,0.2563,0.2138,0.1565,0.1272,0.094,0.0537,0.0449,0.0291,0.0045,0.0093,0.0233,0.0447,0.0432,0.051,0.0678,0.0973,0.0,0.0,0.1454,0.1782,0.21,0.2696,0.3097,0.3343,0.3575,0.3489,0.3091,0.2066,0.1244,0.0419,-0.0871,-0.1583,-0.2077,-0.2702,-0.3339,-0.3953,-0.4207,-0.4677,-0.533,-0.6481,-0.724,-0.8017,-0.9024,-0.9657,-0.9985,-0.9568,-0.9627,-0.9115,-0.7138,-0.5948,-0.4842,-0.3324,-0.2756,-0.2367,-0.2001,-0.2162,-0.2293,-0.2236,-0.2758,-0.249,-0.0819,-0.0494,-0.0377,-0.0359,-0.0088,0.0174,0.0436,0.0438,0.0536,0.078,0.0855,0.0895,0.0911,0.0798,0.0698,0.0645,0.0648,0.0914,0.1398,0.05,-0.0655,1.0372,0.9913,0.9548,0.8596,0.7809,0.705,0.6202,0.5552,0.5074,0.4975,0.4243,0.3644,0.385,0.3302,0.0,0.0,0.0,0.1712,0.1196,0.1322,0.1523,0.1684,0.0,0.0,0.3131,0.3019,0.0,0.0,0.0,0.0,0.2732,0.2468,0.198,0.1336,0.0937,0.0384,-0.0369,-0.0409,-0.0631,-0.1165,-0.1074,-0.0792,-0.0313,-0.049,-0.0267,0.0266,0.0341,0.0,0.0,0.1249,0.1599,0.1915,0.2767,0.3167,0.3355,0.3732,0.3764,0.3497,0.2497,0.1665,0.0825,-0.0443,-0.1455,-0.2335,-0.3183,-0.377,-0.4252,-0.4774,-0.5295,-0.5912,-0.674,-0.7408,-0.8196,-0.953,-1.0046,-1.018,-0.9905,-0.9461,-0.8684,-0.7419,-0.6517,-0.5636,-0.4459,-0.4028,-0.3727,-0.3467,-0.3388,-0.3265,-0.3031,-0.2549,-0.2503,-0.327,-0.2534,-0.1943,-0.1824,-0.0531,0.0354,0.0563,0.0529,0.0591,0.0793,0.0805,0.087,0.0987,0.0866,0.0782,0.0785,0.126,0.1487,0.1468,0.0471,-0.0078,1.0015,0.973,0.9273,0.8379,0.7492,0.6651,0.5719,0.5086,0.4639,0.4486,0.4021,0.3635,0.3709,0.318,0.2614,0.0,0.0,0.0,0.1062,0.13,0.1607,0.1913,0.2325,0.0,0.0,0.0,0.0,0.0,0.0,0.0,0.2686,0.2462,0.2018,0.1192,0.0727,0.0057,-0.0877,-0.0849,-0.1168,-0.1705,-0.1533,-0.1289,-0.0985,-0.1074,-0.0851,-0.0313,0.0043,0.0,0.0,0.129,0.1599,0.1661,0.2592,0.32,0.3532,0.4021,0.4098,0.3827,0.3027,0.2111,0.1024,-0.0429,-0.1402,-0.214,-0.305,-0.3914,-0.4689,-0.509,-0.551,-0.6061,-0.6856,-0.7701,-0.8444,-0.8977,-0.9611,-0.9977,-0.9769,-0.9625,-0.9258,-0.8222,-0.7594,-0.686,-0.5647,-0.5173,-0.4791,-0.4264,-0.436,-0.4382,-0.4156,-0.4949,-0.5542,-0.5568,-0.3721,-0.2368,-0.2026,-0.0513,0.0469,0.0589,0.0651,0.0774,0.0974,0.0977,0.104,0.117,0.1016,0.0882,0.08,0.1421,0.206,0.2641,-0.0189,-0.1789,0.9383,0.9142,0.8663,0.7739,0.6871,0.603,0.5057,0.4534,0.4211,0.4012,0.3683,0.3508,0.3543,0.302,0.2481,0.221,0.0,0.1375,0.1131,0.1322,0.1627,0.1909,0.0,0.2789,0.0,0.0,0.0,0.0,0.0,0.0,0.0,0.2305,0.1745,0.1,0.0487,-0.0286,-0.1232,-0.124,-0.1561,-0.2147,-0.1858,-0.1657,-0.1506,-0.1351,-0.1076,-0.0672,0.0,0.0,0.0,0.1268,0.1612,0.1553,0.2524,0.3134,0.3528,0.3981,0.4056,0.3867,0.315,0.2218,0.1063,-0.0503,-0.1517,-0.2306,-0.331,-0.4186,-0.4937,-0.5371,-0.5942,-0.6559,-0.7067,-0.8074,-0.8901,-0.8836,-0.9503,-1.0036,-0.9787,-0.9787,-0.9562,-0.8643,-0.825,-0.7681,-0.6596,-0.6098,-0.5664,-0.5108,-0.5202,-0.5287,-0.5052,-0.6676,-0.7649,-0.7173,-0.4573,-0.2677,-0.2189,-0.0498,0.0563,0.0658,0.0714,0.0845,0.1093,0.103,0.1071,0.123,0.1028,0.0859,0.0774,0.2154,0.3255,0.3958,0.1086,-0.153,0.8167,0.7852,0.7421,0.6454,0.5695,0.4983,0.4132,0.3911,0.3831,0.3656,0.3376,0.3262,0.3373,0.2815,0.2245,0.2117,0.169,0.0,0.1478,0.1569,0.157,0.0,0.0,0.2272,0.0,0.0,0.0,0.0,0.0,0.0,0.0,0.1753,0.1125,0.0645,0.0,-0.0663,-0.1493,-0.1653,-0.1952,-0.2472,-0.2173,-0.1876,-0.1664,-0.1278,-0.0942,0.0,0.0,0.0,0.0,0.122,0.1593,0.1697,0.2558,0.3035,0.322,0.344,0.3545,0.3491,0.2765,0.1885,0.0881,-0.055,-0.1869,-0.3086,-0.4252,-0.4636,-0.4892,-0.5747,-0.6798,-0.7643,-0.754,-0.8599,-0.9655,-0.9437,-0.9999,-1.0477,-1.0059,-0.9841,-0.9406,-0.8405,-0.8147,-0.7918,-0.7284,-0.6808,-0.639,-0.6024,-0.6003,-0.589,-0.5626,-0.6944,-0.7882,-0.7879,-0.5126,-0.3087,-0.2531,-0.0599,0.0662,0.0792,0.0673,0.0747,0.1093,0.0845,0.0832,0.1099,0.084,0.0706,0.0706,0.3778,0.5268,0.5278,0.5096,0.182,0.7789,0.7475,0.6967,0.5729,0.5123,0.4601,0.3858,0.3746,0.3763,0.368,0.3386,0.3174,0.3242,0.2589,0.205,0.2137,0.1828,0.0,0.0,0.0,0.0,0.2198,0.2938,0.3595,0.0,0.0,0.0,0.0,0.0,0.0,0.0,0.1412,0.0763,0.0303,-0.0346,-0.0928,-0.1542,-0.1541,-0.1802,-0.2377,-0.1879,-0.1638,-0.1618,-0.1278,0.0,0.0,0.0,0.0,0.0,0.1356,0.1654,0.1489,0.2317,0.2819,0.3173,0.3527,0.386,0.3974,0.2717,0.1488,0.0141,-0.1949,-0.3596,-0.4942,-0.5939,-0.6166,-0.6284,-0.723,-0.8153,-0.8815,-0.8694,-0.9592,-1.0406,-0.9985,-1.038,-1.0671,-0.9995,-0.9992,-0.9886,-0.9039,-0.892,-0.8757,-0.8017,-0.7736,-0.7416,-0.6893,-0.6782,-0.6548,-0.5998,-0.7084,-0.7449,-0.6237,-0.3073,-0.1723,-0.3382,-0.0781,0.0961,0.1001,0.0963,0.1027,0.1225,0.1073,0.1533,0.272,0.1574,0.0932,0.084,0.2826,0.542,0.8381,0.2555,-0.2146,0.6807,0.6377,0.5826,0.4825,0.4293,0.3902,0.3316,0.3264,0.3321,0.3274,0.312,0.2959,0.2868,0.2411,0.2051,0.2069,0.1807,0.0,0.0,0.0,0.0,0.2886,0.0,0.0,0.0,0.0,0.0,0.0,0.0,0.0,0.0,0.1098,0.0327,-0.0167,-0.0592,-0.1087,-0.1582,-0.1482,-0.167,-0.2091,-0.1534,-0.1296,-0.1312,-0.0874,0.0,0.0,0.0,0.0,0.0,0.1387,0.1652,0.1405,0.2177,0.2652,0.2986,0.362,0.4124,0.4215,0.2373,0.0981,-0.0487,-0.3478,-0.5615,-0.7194,-0.8004,-0.7861,-0.7608,-0.849,-0.9106,-0.9588,-0.9886,-1.0576,-1.1137,-1.0891,-1.1251,-1.1469,-1.074,-1.0516,-1.0244,-0.9657,-0.9333,-0.9033,-0.8608,-0.8223,-0.7888,-0.7584,-0.7187,-0.679,-0.6496,-0.7233,-0.6829,-0.4348,-0.202,-0.0889,-0.1492,0.0772,0.193,0.1224,0.1129,0.1414,0.2103,0.1999,0.2827,0.4739,0.3454,0.3033,0.3579,0.503,0.7242,0.9897,0.2431,-0.33,0.0,0.4787,0.4196,0.3739,0.3352,0.2965,0.2578,0.2582,0.0,0.2542,0.2641,0.2664,0.2335,0.225,0.2167,0.1915,0.1663,0.0,0.0,0.2206,0.0,0.0,0.3573,0.0,0.0,0.0,0.0,0.0,0.0,0.0,0.0,0.0811,0.0,-0.0596,-0.0767,-0.1085,-0.1477,-0.152,-0.1597,-0.176,-0.116,-0.0871,-0.0852,-0.0278,0.0,0.0,0.0,0.0,0.0,0.1349,0.1618,0.1443,0.2094,0.2488,0.2801,0.3771,0.441,0.4438,0.2174,0.0812,-0.0538,-0.4367,-0.7399,-0.9604,-0.9852,-0.939,-0.8916,-0.9591,-0.9853,-1.0152,-1.1114,-1.1623,-1.1925,-1.2063,-1.243,-1.2601,-1.2069,-1.1302,-1.0639,-1.0321,-0.9551,-0.9023,-0.9174,-0.8504,-0.798,-0.8141,-0.7323,-0.6768,-0.6957,-0.7367,-0.6102,-0.2051,-0.1481,-0.0256,0.2523,0.3561,0.3279,0.1422,0.1286,0.1972,0.3535,0.3586,0.4661,0.7007,0.6258,0.672,0.851,0.9826,1.0063,0.9142,0.3443,-0.2664,0.4895,0.0,0.3974,0.3201,0.2872,0.2639,0.0,0.245,0.2613,0.2515,0.2382,0.2203,0.1959,0.1861,0.174,0.1495,0.0,0.1533,0.1552,0.0,0.0,0.3575,0.0,0.0,0.0,0.0,0.0,0.0,0.0,0.0,0.0,0.0883,0.0216,-0.0588,-0.0705,-0.0909,-0.1284,-0.1018,-0.1116,-0.1497,-0.1068,-0.0837,-0.0722,-0.0444,0.0,0.0,0.0,0.0,0.0425,0.1065,0.128,0.1215,0.1735,0.2587,0.3596,0.4251,0.5318,0.6303,0.538,0.4578,0.3584,0.1109,-0.4792,-1.034,-0.72,-0.8164,-1.0527,-1.1361,-1.1948,-1.2423,-1.2979,-1.3442,-1.3637,-1.305,-1.3149,-1.3179,-1.2432,-1.2195,-1.207,-1.176,-1.1093,-1.0473,-1.0271,-0.9635,-0.9058,-0.8744,-0.8205,-0.7569,-0.6915,-0.7655,-0.533,0.222,0.221,0.2644,0.5052,0.4311,0.3047,0.1482,0.2404,0.3492,0.4523,0.5626,0.6942,0.8467,0.8901,1.0555,1.3504,1.3846,0.9325,0.0306,-0.4109,-0.7849,0.4317,0.4171,0.4041,0.3405,0.3085,0.2866,0.2621,0.2466,0.2354,0.2279,0.2134,0.1905,0.1578,0.1555,0.1442,0.1114,0.1152,0.0,0.0,0.0,0.3152,0.4224,0.0,0.0,0.0,0.0,0.0,0.0,0.0,0.0,0.0,0.1017,0.0403,-0.0314,-0.0314,-0.057,-0.1006,-0.0813,-0.0779,-0.0946,-0.0605,-0.039,-0.027,-0.0126,0.0081,0.0,0.0,0.0,0.0223,0.039,0.0403,0.0415,0.1277,0.226,0.3365,0.4638,0.6307,0.7763,0.6302,0.4868,0.3527,0.246,-0.1453,-0.5267,-0.2663,-0.3584,-0.648,-1.1097,-1.2696,-1.3202,-1.3912,-1.4357,-1.4556,-1.417,-1.4159,-1.4105,-1.3528,-1.3246,-1.3032,-1.2755,-1.2195,-1.1571,-1.1073,-1.0512,-0.9985,-0.9466,-0.8928,-0.8453,-0.8119,-0.6543,-0.3111,0.3033,0.4392,0.577,0.8016,0.642,0.447,0.2543,0.3157,0.4609,0.6833,0.7691,0.8935,1.0715,1.1894,1.3401,1.5259,1.6727,0.7765,-1.0569,-0.8636,-1.0528,0.3949,0.4088,0.4295,0.3811,0.3541,0.3334,0.3098,0.2609,0.2211,0.2149,0.2012,0.1755,0.1282,0.1281,0.0,0.0,0.0,0.0,0.251,0.2968,0.3562,0.4657,0.0,0.0,0.0,0.0,0.0,0.0,0.0,0.0,0.0,0.1191,0.0615,0.0077,0.0115,-0.0115,-0.0653,-0.0624,-0.0519,-0.0412,-0.0079,0.0079,0.0163,0.0157,0.0191,0.0,0.0,0.0,-0.0255,-0.0566,-0.0529,-0.0176,0.0928,0.2135,0.3481,0.5348,0.736,0.891,0.7045,0.4822,0.2966,0.3838,0.2715,0.1253,0.2462,0.1867,-0.0802,-0.8323,-1.1302,-1.2576,-1.427,-1.4291,-1.406,-1.4935,-1.4486,-1.3984,-1.4522,-1.4284,-1.3877,-1.367,-1.3174,-1.2609,-1.202,-1.1495,-1.1017,-1.0453,-0.9842,-0.9548,-0.978,-0.5592,-0.1278,0.2185,0.5031,0.7785,1.0483,0.8896,0.6664,0.41,0.4247,0.6101,0.9871,1.0292,1.1397,1.3383,1.4574,1.5201,1.525,1.8532,0.8364,-1.3889,-1.044,-1.2905,0.4478,0.4739,0.4671,0.3432,0.3467,0.3693,0.3278,0.3005,0.2837,0.2707,0.2264,0.1739,0.1206,0.1173,0.099,0.0,0.0,0.0983,0.0,0.0,0.0,0.0,0.0,0.0,0.0,0.0,0.0,0.0,0.0,0.0,0.0,0.1276,0.0828,0.0345,0.0345,0.0241,-0.0034,-0.0038,-0.0154,-0.0411,-0.0222,-0.0072,0.0035,-0.0242,-0.0269,0.0,0.0,-0.0766,-0.1316,-0.1808,-0.075,0.1174,0.115,0.3403,0.672,0.7331,0.8385,0.9747,1.1278,0.9905,0.8224,1.2767,0.8507,0.2331,0.6339,0.4308,0.0448,-0.0417,-0.4495,-0.963,-1.4123,-1.2179,-1.0143,-1.4431,-1.188,-0.9674,-1.3998,-1.4913,-1.4917,-1.5036,-1.4544,-1.4121,-1.417,-1.3528,-1.279,-1.2135,-1.1749,-1.1346,-1.084,-0.7621,-0.3405,0.1792,0.2983,0.5422,1.0364,1.0207,0.8578,0.5644,0.7172,0.9714,1.3143,1.4854,1.5897,1.627,1.5517,1.5085,1.5061,1.8457,1.7969,1.3405,-0.8066,-1.8807,0.3584,0.4263,0.4747,0.3699,0.4023,0.4502,0.4103,0.3672,0.3268,0.2892,0.2472,0.1962,0.1244,0.0,0.0565,0.0133,0.0,0.1257,0.0,0.0,0.0,0.0,0.0,0.0,0.0,0.0,0.0,0.0,0.0,0.0,0.0,0.0,0.1426,0.0809,0.0693,0.0624,0.0471,0.0515,0.0377,0.0033,0.0129,0.0188,0.0214,-0.0122,-0.036,-0.0524,0.0,-0.178,-0.2321,-0.1661,-0.0753,0.0395,0.2347,0.4595,0.7023,0.9287,1.0241,1.0708,1.2798,1.2998,1.2808,1.5591,1.3508,1.0343,1.2672,1.143,0.8753,0.6373,0.1414,-0.4386,-0.9573,-0.7167,-0.4776,-1.0253,-0.7271,-0.3841,-0.6228,-0.6757,-0.6757,-0.6713,-0.8838,-1.0567,-1.0267,-1.2388,-1.3823,-1.3008,-1.0589,-0.8687,-0.8197,-0.2297,0.2781,0.5284,0.7374,0.9484,1.1685,1.0915,0.9763,0.8523,1.0359,1.2183,1.3712,1.523,1.6048,1.6042,1.5459,1.599,1.77,1.9326,2.0,1.936,-0.0159,-1.3138,0.2853,0.3733,0.4584,0.3988,0.4471,0.5037,0.4854,0.4214,0.3563,0.3152,0.2665,0.2066,0.0,0.0609,0.0,0.0262,0.0733,0.0,0.0,0.0,0.0,0.0,0.0,0.0,0.0,0.0,0.0,0.0,0.0,0.0,0.0,0.0,0.1856,0.1237,0.1059,0.0914,0.0774,0.0876,0.0814,0.0512,0.0536,0.046,0.0347,-0.0162,-0.0729,-0.134,-0.2366,-0.3168,-0.3617,-0.171,-0.0679,0.0069,0.3932,0.6331,0.7983,1.0939,1.1839,1.1825,1.3503,1.4828,1.5928,1.6612,1.6953,1.7129,1.7413,1.7055,1.5872,1.2426,0.8264,0.3344,-0.3328,-0.134,0.097,-0.4764,-0.182,0.1924,0.0637,0.0335,0.0361,0.0569,-0.2798,-0.5521,-0.4961,-0.8342,-1.0892,-1.0208,-0.68,-0.4293,-0.4299,0.3111,0.8317,0.8201,1.1305,1.3383,1.3407,1.2237,1.1575,1.1793,1.3183,1.3995,1.4003,1.519,1.5845,1.5843,1.617,1.7554,2.0026,1.9998,1.9811,1.9243,0.9215,-0.0949,0.3202,0.3743,0.4132,0.4018,0.4416,0.4868,0.5047,0.4303,0.3668,0.3877,0.2863,0.1872,0.0,0.0472,-0.0185,0.0619,0.0647,0.0,0.0,0.0,0.0,0.0,0.0,0.0,0.0,0.0,0.0,0.0,0.0,0.0,0.0,0.0,0.0,0.1591,0.1317,0.1013,0.0706,0.0961,0.1014,0.0872,0.0682,0.0489,0.0275,-0.0802,-0.18,-0.2731,-0.4057,-0.5017,-0.5502,-0.2952,-0.0592,0.1813,0.577,0.9182,1.1886,1.2041,1.2489,1.3164,1.3987,1.5266,1.6676,1.7517,1.772,1.7655,1.776,1.7172,1.6681,1.7594,1.754,1.4707,0.3808,0.4527,0.674,0.1336,0.4185,0.6723,0.166,0.0436,0.0306,0.032,-0.0041,-0.036,-0.0365,-0.0444,-0.0543,-0.0666,0.0458,0.0964,-0.0006,0.4601,0.7921,0.7848,1.0783,1.3429,1.5076,1.51,1.5048,1.5056,1.5135,1.5179,1.517,1.6698,1.7495,1.7447,1.896,1.9869,2.0079,1.9782,1.9464,1.9119,1.8368,1.7615,0.3097,0.3647,0.4123,0.423,0.4524,0.4737,0.4488,0.4356,0.4171,0.3716,0.3089,0.0,0.0,0.0,0.0277,0.0551,0.0903,0.0,0.0,0.0,0.0,0.0,0.0,0.0,0.0,0.0,0.0,0.0,0.0,0.0,0.0,0.0,0.0,0.1698,0.1577,0.1358,0.1009,0.0993,0.0845,0.0586,0.0397,0.0046,-0.0422,-0.1443,-0.2643,-0.3839,-0.2514,-0.2542,-0.3163,0.1716,0.4338,0.5619,0.9068,1.1176,1.2287,1.2752,1.3002,1.3307,1.4544,1.5659,1.6653,1.7412,1.8324,1.9112,1.9,1.9141,1.9388,1.9811,1.9967,1.7999,0.9313,1.1291,1.3957,0.7727,1.0748,1.4492,1.2421,1.1951,1.1916,1.1879,0.9186,0.6899,0.6826,0.3743,0.1365,0.1571,0.4221,0.6203,0.6254,1.0383,1.3344,1.3439,1.3965,1.4584,1.5284,1.5382,1.5368,1.5274,1.7291,1.7514,1.5388,1.5889,1.7138,1.9124,1.9792,2.0,1.9782,1.9665,1.9526,1.9408,1.9264,1.9874,0.2913,0.3508,0.4097,0.4081,0.4389,0.4559,0.4129,0.4242,0.4218,0.3577,0.3044,0.2272,0.0872,0.0,0.0,0.0,0.0,0.0,0.0,0.0,0.0,0.0,0.0,0.0,0.0,0.0,0.0,0.0,0.0,0.0,0.0,0.0,0.0,0.0,0.1614,0.1326,0.0908,0.073,0.0482,0.0115,-0.0357,-0.0822,-0.1319,-0.2429,-0.3135,-0.343,-0.1843,-0.0971,-0.0267,0.5108,0.8262,0.9909,1.1843,1.2779,1.3076,1.3595,1.3687,1.3719,1.4977,1.5881,1.6626,1.7542,1.8785,1.9943,2.0266,2.0776,2.1348,2.1704,2.1838,2.0705,1.5627,1.7103,1.873,1.4043,1.6112,1.9127,1.9119,1.9119,1.9026,1.8852,1.585,1.3474,1.3771,1.0162,0.7217,0.7208,0.9888,1.1856,1.1754,1.4869,1.6901,1.6449,1.5695,1.5259,1.5307,1.6336,1.6928,1.6817,1.8984,1.92,1.6821,1.6718,1.7748,1.9899,1.9936,1.983,1.9602,1.9512,1.9708,2.0191,1.9727,2.0334,0.2673,0.3343,0.399,0.3514,0.3915,0.4346,0.4149,0.3936,0.3737,0.3527,0.2581,0.1667,0.118,0.0677,0.0,0.0,0.0,0.0,0.0,0.0,0.0,0.0,0.0,0.0,0.0,0.0,0.0,0.0,0.0,0.0,0.0,0.0,0.0,0.0,0.1418,0.0907,0.0303,0.0159,-0.0123,-0.0523,-0.1521,-0.2123,-0.2363,-0.383,-0.33,-0.1286,-0.2579,-0.1017,0.2719,0.6229,1.036,1.4437,1.3772,1.4036,1.4774,1.4645,1.4549,1.4604,1.5288,1.5914,1.6653,1.8143,1.9074,1.9875,2.1371,2.1814,2.2118,2.358,2.3996,2.3813,2.3016,2.1581,2.0323,2.0233,1.9908,1.9611,1.9623,1.946,1.9186,1.8735,1.8589,1.8887,2.0024,1.9666,1.8865,1.7809,1.8201,1.7932,1.5983,1.7139,1.7405,1.5532,1.5232,1.5197,1.5338,1.8451,2.0366,2.0292,2.0117,1.9938,1.9807,1.9807,1.9731,1.9615,1.9602,1.9602,1.9583,1.9347,1.9987,2.1462,2.0733,2.0952,0.2958,0.3444,0.3852,0.3717,0.3998,0.4287,0.4131,0.3832,0.3447,0.2977,0.242,0.1884,0.1453,0.0,0.0,0.0,0.0,0.0,0.0,0.0,0.0,0.0,0.0,0.0,0.0,0.0,0.0,0.0,0.0,0.0,0.0,0.0,0.0,0.0,0.1137,0.0643,0.0034,-0.0395,-0.0864,-0.1413,-0.219,-0.2709,-0.3056,-0.4619,-0.4103,-0.1878,-0.0054,0.2753,0.6397,1.0679,1.3286,1.4569,1.4456,1.4607,1.485,1.4727,1.4966,1.5429,1.6008,1.6917,1.8046,1.9545,1.65,1.3626,2.0973,1.9191,1.6081,2.291,2.4813,2.4629,2.3884,2.3187,2.2327,2.1104,2.0988,2.1135,2.1081,2.1081,2.0973,2.0692,2.0708,2.0806,2.0931,2.0999,2.0858,2.0286,1.9753,1.9231,1.8656,1.9111,1.9278,1.8675,1.8739,1.8841,1.8871,1.963,2.0164,2.0285,2.0244,2.0136,1.9949,1.9856,1.9731,1.9615,1.9602,1.9483,1.9235,1.9879,2.0096,1.9959,2.0686,2.132,0.2893,0.3334,0.3742,0.385,0.3904,0.3848,0.3507,0.3428,0.0,0.0,0.2397,0.2092,0.1828,0.1758,0.0,0.0,0.0,0.0,0.0,0.0,0.0,0.0,0.0,0.0,0.0,0.0,0.0,0.0,0.0,0.0,0.0,0.0,0.0,0.0,0.0712,0.0129,-0.0503,-0.0971,-0.143,-0.1843,-0.257,-0.3156,-0.3684,-0.5592,-0.4238,-0.0139,0.4394,0.7692,1.0013,1.2549,1.3848,1.4251,1.4334,1.4593,1.4911,1.4757,1.5128,1.5815,1.6352,1.7416,1.8801,2.0488,1.809,1.5797,2.251,2.1187,1.8562,2.4285,2.572,2.5351,2.4674,2.427,2.3602,2.2048,2.2,2.2235,2.1969,2.1999,2.1993,2.1667,2.1634,2.162,2.1526,2.1678,2.1738,2.1526,2.0085,1.9145,1.9559,1.9858,1.9977,1.9757,1.9939,2.0152,2.0352,2.0164,2.0078,2.0174,2.0127,2.0048,1.9926,1.9892,1.9844,1.9757,2.0937,2.0807,1.9298,2.0126,2.0371,2.0105,2.0888,2.1538,0.2616,0.3069,0.3588,0.3862,0.3674,0.3231,0.2521,0.2826,0.3158,0.2757,0.0,0.2311,0.2245,0.0,0.0,0.0,0.0,0.0,0.0,0.0,0.0,0.0,0.0,0.0,0.0,0.0,0.0,0.0,0.0,0.0,0.0,0.0,0.0,0.0572,0.0067,-0.0534,-0.1203,-0.1524,-0.1767,0.0,-0.2702,-0.3417,-0.4182,-0.648,-0.391,0.2737,0.9441,1.2638,1.3065,1.247,1.2776,1.3605,1.369,1.4194,1.4877,1.4776,1.5227,1.5999,1.6522,1.7678,1.9241,2.1261,2.1853,2.2272,2.5012,2.5446,2.5269,2.6676,2.6602,2.5984,2.5351,2.4935,2.4317,2.2988,2.2958,2.302,2.2421,2.2429,2.2409,2.187,2.1694,2.1664,2.1797,2.1721,2.1691,2.1797,1.9605,1.8275,1.9212,1.9675,1.9782,1.9365,1.9522,1.9813,2.0235,2.0144,2.0049,2.0015,1.988,1.9782,1.9744,1.9915,1.9982,1.9949,2.2887,2.2913,1.9874,2.0312,2.0779,2.1225,2.12,2.1525,0.2624,0.283,0.2976,0.3296,0.3423,0.3227,0.2305,0.255,0.2907,0.2613,0.255,0.2524,0.2521,0.0,0.0,0.0,0.0,0.0,0.0,0.0,0.0,0.0,0.0,0.0,0.0,0.0,0.0,0.0,0.0,0.0,0.0,0.0,0.0,-0.0534,-0.082,-0.1277,-0.1971,-0.1833,-0.1906,0.0,-0.2581,-0.3241,-0.4153,-0.6153,-0.3979,0.1726,0.8908,1.2167,1.2427,1.2428,1.2598,1.2907,1.3532,1.3894,1.414,1.4725,1.5733,1.6904,1.7439,1.8842,2.0764,2.2905,1.9156,1.5487,2.4293,2.2073,1.8049,2.5425,2.6879,2.6207,2.5945,2.5449,2.4815,2.415,2.3938,2.3744,2.3177,2.3065,2.2765,2.1765,2.1661,2.1768,2.1797,2.1166,2.0909,2.1691,2.0192,1.9113,1.9493,1.9489,1.9471,1.9522,1.9751,1.9949,2.0057,1.9941,1.9941,2.0069,1.9908,1.9633,1.9282,1.9793,1.9873,1.9452,2.2261,2.3075,2.1815,2.1606,2.1239,2.0777,2.1013,2.0845,0.2325,0.241,0.2432,0.2692,0.2769,0.2663,0.2238,0.2358,0.2559,0.2514,0.2577,0.2642,0.0,0.0,0.0,0.0,0.0,0.0,0.0,0.0,0.0,0.0,0.0,0.0,0.0,0.0,0.0,0.0,0.0,0.0,0.0,0.0107,-0.044,-0.0942,-0.122,-0.1623,-0.216,-0.1962,-0.19,-0.1974,-0.215,-0.2538,-0.3087,-0.2584,-0.1093,0.145,0.7913,1.1131,1.1765,1.1057,1.1287,1.2142,1.2917,1.3475,1.3977,1.5104,1.6204,1.7274,1.8239,1.9703,2.1414,2.3105,2.0875,1.8673,2.4781,2.3492,2.0952,2.5935,2.6818,2.6242,2.6092,2.5695,2.5282,2.505,2.4842,2.4543,2.3854,2.3686,2.3424,2.2503,2.1789,2.1417,2.1751,2.2007,2.2493,2.3229,2.1951,2.0508,1.9368,1.9261,1.9338,1.9446,1.9532,1.9694,1.9971,1.9732,1.9649,1.9854,1.9763,2.0102,2.0983,2.1352,2.1388,2.1123,2.2553,2.2975,2.2344,2.1505,2.0767,2.0193,2.0894,2.0878,0.1996,0.2063,0.2078,0.2226,0.2116,0.0,0.2198,0.2214,0.2266,0.2402,0.2624,0.0,0.0,0.0,0.0,0.0,0.0,0.0,0.0,0.0,0.0,0.0,0.0,0.0,0.0,0.0,0.0,0.0,0.0,0.0,0.0258,-0.0464,-0.0993,-0.1312,-0.1589,-0.1951,-0.2323,-0.1998,-0.1795,-0.1672,-0.1583,-0.1617,-0.1661,0.149,0.2472,0.1971,0.7234,1.0167,1.1082,0.9687,0.998,1.1353,1.2267,1.3039,1.3863,1.5514,1.658,1.7408,1.8978,2.035,2.1616,2.2946,2.3741,2.4418,2.5592,2.6182,2.6551,2.6977,2.6592,2.6085,2.6199,2.5894,2.5569,2.5695,2.563,2.5296,2.4494,2.4293,2.4032,2.3223,2.2166,2.1573,2.215,2.3401,2.4385,2.471,2.3818,2.203,1.9117,1.9,1.9196,1.9261,1.9216,1.9387,1.9873,1.9536,1.943,1.9737,1.9727,2.0624,2.2643,2.2712,2.2712,2.2712,2.2712,2.2517,2.2123,2.0532,1.966,1.9479,2.0078,2.0351,0.1939,0.2132,0.2237,0.2148,0.1971,0.1852,0.0,0.0,0.225,0.0,0.0,0.0,0.0,0.0,0.0,0.0,0.0,0.0,0.0,0.0,0.0,0.0,0.0,0.0,0.0,0.0,0.0,0.0,0.0,0.0,-0.0777,-0.1499,-0.2117,-0.2537,-0.2423,-0.2633,-0.3135,-0.2203,-0.1681,-0.1604,-0.1155,-0.0898,-0.0746,0.2678,0.4011,0.3864,0.8144,1.0144,1.0331,1.0119,1.0169,1.0534,1.2072,1.2689,1.2979,1.5392,1.6668,1.7508,1.9608,2.084,2.1785,2.3519,2.4129,2.4418,2.5685,2.6152,2.641,2.727,2.6539,2.5747,2.6849,2.6242,2.5512,2.6135,2.6147,2.5776,2.4996,2.4725,2.4196,2.2709,2.3192,2.3844,2.3949,2.4138,2.4177,2.3867,2.4287,2.3193,1.9059,1.8582,1.8734,1.9104,1.936,1.955,1.9559,1.9354,1.957,2.041,2.025,2.0475,2.1256,2.1166,2.1119,2.1119,2.1119,2.1214,2.145,1.8858,1.7921,1.8535,1.7177,1.7301,0.1569,0.1697,0.1795,0.1769,0.1643,0.1635,0.2032,0.2122,0.2176,0.2357,0.0,0.0,0.0,0.0,0.0,0.0,0.0,0.0,0.0,0.0,0.0,0.0,0.0,0.0,0.0,0.0,0.0,0.0,0.0,-0.0827,-0.1137,-0.1932,-0.2478,-0.2752,-0.2832,-0.2945,-0.3088,-0.2411,-0.1797,-0.1195,-0.0242,0.0609,0.1473,0.4205,0.5044,0.4526,0.7939,0.9746,1.0242,1.0212,1.0479,1.104,1.2728,1.333,1.3577,1.6062,1.7122,1.7632,1.9894,2.1048,2.1734,2.2825,2.346,2.3992,2.5355,2.5855,2.6202,2.7297,2.7169,2.6784,2.7147,2.6682,2.6199,2.6505,2.6507,2.6281,2.568,2.5504,2.4873,2.3009,2.2881,2.3113,2.3113,2.3348,2.3523,2.361,2.3211,2.2297,2.0576,1.926,1.8524,1.86,1.8825,1.8912,1.8717,1.8735,1.9172,2.0142,2.0296,2.0423,2.0552,2.0104,1.9945,2.017,1.9732,1.9325,1.9008,1.7787,1.7089,1.6925,1.6163,1.6182,0.128,0.134,0.1397,0.1506,0.1425,0.1484,0.0,0.0,0.22,0.0,0.0,0.0,0.0,0.0,0.0,0.0,0.0,0.0,0.0,0.0,0.0,0.0,0.0,0.0,0.0,0.0,0.0,0.0,0.0,-0.1204,-0.1543,-0.2339,-0.2853,-0.2994,-0.3307,-0.3419,-0.3278,-0.2641,-0.1837,-0.08,0.0423,0.1808,0.33,0.533,0.6007,0.5727,0.8175,0.9629,1.0292,1.0239,1.067,1.1548,1.2992,1.3702,1.4195,1.6616,1.7435,1.7675,1.9958,2.1113,2.1644,2.2206,2.2919,2.3837,2.5103,2.5694,2.618,2.7262,2.749,2.7372,2.7434,2.7093,2.6809,2.7027,2.6932,2.6696,2.6099,2.592,2.5273,2.3256,2.2324,2.1793,2.1793,2.2231,2.2768,2.3465,2.2532,2.1722,2.179,1.9833,1.8502,1.8733,1.8383,1.8125,1.809,1.8335,1.8853,1.9661,2.0135,2.027,2.0108,1.9515,1.9325,1.953,1.8784,1.8002,1.7199,1.7073,1.6595,1.5792,1.5792,1.5792,0.128,0.1302,0.1356,0.155,0.1492,0.152,0.0,0.0,0.0,0.0,0.0,0.0,0.0,0.0,0.0,0.0,0.0,0.0,0.0,0.0,0.0,0.0,0.0,0.0,0.0,0.0,0.0,0.0,0.0,-0.175,-0.2216,-0.2873,-0.3419,-0.3745,-0.4073,-0.4242,-0.4235,-0.2887,-0.1668,-0.0608,0.0541,0.2054,0.3917,0.5619,0.7077,0.8363,0.9602,1.0201,1.0287,1.0232,1.0663,1.149,1.2348,1.3168,1.4201,1.6622,1.7377,1.7545,1.9814,2.0963,2.1512,2.2117,2.3106,2.4252,2.5209,2.5855,2.6446,2.7252,2.6999,2.6725,2.7773,2.7352,2.6856,2.7783,2.7656,2.6983,2.5861,2.552,2.4955,2.3227,2.1746,2.0799,2.0799,2.118,2.1969,2.3377,2.3157,2.2555,2.1899,1.9696,1.875,2.0137,1.8432,1.7425,1.8048,1.8528,1.892,1.9217,1.9684,1.9909,1.9829,1.9588,1.9384,1.9139,1.8472,1.7801,1.7199,1.6765,1.6262,1.5792,1.5792,1.5792,0.1645,0.1809,0.2009,0.1732,0.1661,0.176,0.2187,0.2355,0.2532,0.0,0.0,0.0,0.0,0.0,0.0,0.0,0.0,0.0,0.0,0.0,0.0,0.0,0.0,0.0,0.0,0.0,0.0,0.0,0.0,0.0,-0.2919,-0.3379,-0.3886,-0.4416,-0.4536,-0.4469,-0.431,-0.3039,-0.195,-0.1101,0.0521,0.2184,0.3908,0.5982,0.7572,0.8752,0.971,1.0166,1.0271,1.0773,1.1146,1.1545,1.2905,1.362,1.4201,1.6655,1.7795,1.8343,2.0131,2.1445,2.2426,2.2934,2.365,2.4592,2.5842,2.6672,2.7355,2.8062,2.838,2.8595,2.8921,2.8578,2.8222,2.8412,2.7939,2.7177,2.616,2.5317,2.4607,2.3929,2.3325,2.206,1.9482,2.0359,2.1175,2.0425,2.2325,2.298,2.0736,1.9909,1.9573,1.9626,1.9034,1.8619,1.8549,1.8779,1.902,1.9168,1.9389,1.9518,1.9543,1.9043,1.8755,1.8697,1.7908,1.7434,1.7199,1.6436,1.5501,1.4398,1.5051,1.5334,0.1983,0.2232,0.248,0.0,0.1875,0.1989,0.2333,0.0,0.0,0.0,0.0,0.0,0.0,0.0,0.0,0.0,0.0,0.0,0.0,0.0,0.0,0.0,0.0,0.0,0.0,0.0,0.0,0.0,0.0,0.0,-0.3595,-0.384,-0.4157,-0.4705,-0.4838,-0.4718,-0.4375,-0.34,-0.2491,-0.1632,0.0204,0.2109,0.4068,0.6117,0.7744,0.9064,1.0097,1.0404,1.0238,1.0745,1.1141,1.1541,1.2919,1.3811,1.4577,1.6769,1.8194,1.9186,2.0377,2.1715,2.2939,2.3412,2.4284,2.542,2.669,2.7701,2.8508,2.8935,2.9325,2.9643,2.9677,2.9556,2.9254,2.8796,2.8044,2.7131,2.6193,2.5266,2.4436,2.3871,2.378,2.2967,2.0511,2.0811,2.0656,1.8385,2.0524,2.165,1.9723,1.9711,1.9752,1.9429,1.9106,1.878,1.8439,1.8594,1.8764,1.8834,1.9057,1.906,1.8878,1.8394,1.8173,1.8135,1.7447,1.6905,1.6497,1.5869,1.4869,1.361,1.464,1.4926,0.0,0.0,0.0,0.0,0.0,0.0,0.2382,0.0,0.0,0.0,0.0,0.0,0.0,0.0,0.0,0.0,0.0,0.0,0.0,0.0,0.0,0.0,0.0,0.0,0.0,0.0,0.0,0.0,0.0,-0.366,-0.4272,-0.4256,-0.4336,-0.4508,-0.5034,-0.5048,-0.4528,-0.4003,-0.3222,-0.2225,-0.0436,0.1814,0.4423,0.5946,0.7671,0.9509,1.0837,1.0975,1.0275,1.0175,1.0617,1.1455,1.23,1.3634,1.5281,1.6956,1.8531,1.9932,2.0667,2.1777,2.2972,2.3587,2.5049,2.6746,2.7738,2.8873,2.9845,2.9845,2.9711,2.9644,3.0014,3.0175,2.9957,2.8919,2.7902,2.6931,2.5986,2.5315,2.4469,2.2969,2.2909,2.3318,2.3936,2.2552,2.0388,1.7673,1.795,1.8606,1.8954,1.9035,1.9221,1.9707,1.8579,1.7745,1.7633,1.7983,1.8171,1.8093,1.8547,1.8511,1.7787,1.7707,1.7585,1.7475,1.7073,1.6262,1.5062,1.5108,1.4593,1.361,1.4593,1.4501,0.4027,0.0,0.0,0.0,0.0,0.0,0.0,0.0,0.0,0.0,0.0,0.0,0.0,0.0,0.0,0.0,0.0,0.0,0.0,0.0,0.0,0.0,0.0,0.0,0.0,0.0,0.0,0.0,-0.3792,-0.4104,-0.4487,-0.472,-0.4819,-0.4804,-0.503,-0.5126,-0.5097,-0.4302,-0.3738,-0.3336,-0.1927,0.0415,0.35,0.4804,0.7233,1.044,1.1105,1.164,1.1941,1.1258,1.0779,1.066,1.2681,1.3749,1.4585,1.8042,1.9877,2.0937,2.2768,2.3916,2.4785,2.5876,2.6853,2.7727,2.8423,2.9522,3.0508,3.0456,3.0693,3.0882,3.0599,3.0402,2.9995,2.8872,2.7822,2.6865,2.6172,2.4993,2.3813,2.2798,2.2714,2.286,2.3042,2.0834,1.8979,1.8797,1.808,1.7786,1.8481,1.8072,1.7988,1.8626,1.8285,1.803,1.811,1.8138,1.8051,1.7885,1.7838,1.7653,1.7242,1.674,1.6441,1.6429,1.6207,1.5412,1.4035,1.4743,1.4593,1.3621,1.3536,1.3525,0.5113,0.5161,0.5094,0.0,0.0,0.0,0.0,0.296,0.0,0.0,0.0,0.0,0.0,0.0,0.0,0.0,0.0,0.0,0.0,0.0,0.0,0.0,0.0,0.0,0.0,0.0,0.0,-0.4086,-0.4278,-0.4465,-0.4584,-0.5086,-0.5213,-0.4867,-0.5218,-0.5344,-0.5286,-0.4694,-0.4306,-0.4054,-0.1718,0.0718,0.3251,0.5411,0.7903,1.0566,1.1521,1.2046,1.2204,1.2325,1.1907,1.1353,1.3147,1.4448,1.5665,1.841,2.0747,2.272,2.3928,2.5022,2.6036,2.7283,2.8085,2.8699,2.9634,3.0571,3.1341,3.1235,3.1031,3.0671,2.9961,2.9757,2.9436,2.834,2.7674,2.7085,2.6201,2.4794,2.3556,2.2919,2.2273,2.1851,2.2049,2.0358,1.8955,1.8899,1.8128,1.7675,1.8035,1.7805,1.765,1.7721,1.7781,1.7729,1.7503,1.7517,1.7476,1.738,1.7229,1.6925,1.6514,1.6064,1.5712,1.5421,1.5119,1.4536,1.3621,1.4176,1.4176,1.361,1.3344,1.3344,0.5994,0.5697,0.5434,0.4638,0.3929,0.0,0.3257,0.3293,0.3226,0.0,0.0,0.0,0.0,0.0,0.0,0.0,0.0,0.0,0.0,0.0,0.0,0.0,0.0,0.0,0.0,-0.3925,-0.4205,-0.4613,-0.4802,-0.4792,-0.4661,-0.5397,-0.554,-0.4942,-0.555,-0.5782,-0.5508,-0.5281,-0.4984,-0.4619,-0.088,0.1725,0.3373,0.674,0.9045,1.0478,1.2034,1.2465,1.2173,1.359,1.359,1.2781,1.3772,1.551,1.7606,1.8704,2.1478,2.4687,2.4783,2.572,2.7068,2.8283,2.9106,2.9799,3.0981,3.1687,3.202,3.1718,3.0742,2.9587,2.8705,2.8608,2.8496,2.7627,2.7385,2.7134,2.6068,2.4416,2.3031,2.2476,2.1475,2.0794,2.0819,2.0257,1.939,1.8265,1.803,1.7878,1.7617,1.7836,1.7678,1.6876,1.7074,1.6973,1.6318,1.6454,1.6625,1.671,1.6582,1.6225,1.57,1.5534,1.513,1.4536,1.3967,1.3693,1.3726,1.357,1.3525,1.3525,1.3621,1.3515,0.7988,0.8458,0.8422,0.6456,0.0,0.0,0.4418,0.3833,0.3525,0.0,0.0,0.0,0.0,0.0,0.0,0.0,0.0,0.0,0.0,0.0,0.0,0.0,0.0,0.0,0.0,-0.4235,-0.4541,-0.5055,-0.5203,-0.5208,-0.5099,-0.5493,-0.5715,-0.5745,-0.6162,-0.6502,-0.6844,-0.6323,-0.593,-0.5672,-0.2548,0.0367,0.3065,0.569,0.8825,1.2212,1.2613,1.3826,1.555,1.5809,1.462,1.2829,1.4942,1.6366,1.7663,2.1115,2.3247,2.4818,2.7232,2.8246,2.8675,2.9998,3.0823,3.1344,3.1416,3.1619,3.1537,3.0374,2.9642,2.9034,2.8472,2.8065,2.7673,2.7304,2.6559,2.5734,2.5287,2.2891,2.0228,1.8118,1.9973,2.1156,1.8803,1.7711,1.7191,1.739,1.72,1.7148,1.7318,1.7014,1.6598,1.622,1.6209,1.6182,1.5925,1.58,1.5856,1.612,1.5579,1.5164,1.4926,1.4628,1.4316,1.3952,1.3392,1.3494,1.4316,1.3442,1.3017,1.3065,1.3858,1.2841,0.8379,0.8409,0.8168,0.7,0.0,0.0,0.0,0.0,0.0,0.0,0.0,0.0,0.0,0.0,0.0,0.0,0.0,0.0,0.0,0.0,0.0,0.0,0.0,0.0,0.0,-0.4654,-0.5043,-0.5515,-0.5674,-0.5734,-0.567,-0.6074,-0.6413,-0.6684,-0.6987,-0.7154,-0.7199,-0.7085,-0.6518,-0.5494,-0.1785,0.0992,0.2975,0.6633,0.9661,1.2088,1.2583,1.3972,1.5927,1.6306,1.5869,1.5152,1.6772,1.8071,1.9395,2.22,2.4483,2.6408,2.8305,2.9436,3.0188,3.1137,3.1613,3.1809,3.185,3.1322,3.0459,2.8967,2.8303,2.783,2.6834,2.6636,2.6633,2.6354,2.5856,2.5251,2.4822,2.1905,1.8881,1.7119,1.838,1.929,1.7888,1.694,1.6618,1.7277,1.7002,1.6768,1.695,1.6754,1.6309,1.5581,1.5791,1.572,1.5051,1.5187,1.5379,1.5659,1.5289,1.5051,1.4903,1.4605,1.4153,1.3707,1.3174,1.3208,1.3901,1.3773,1.3408,1.29,1.3607,1.295,0.0,0.0,0.0,0.0,0.0,0.5279,0.0,0.0,0.0,0.0,0.0,0.0,0.0,0.0,0.0,0.0,0.0,0.0,0.0,0.0,0.0,0.0,0.0,0.0,0.0,-0.4888,-0.5478,-0.5984,-0.6058,-0.6138,-0.6329,-0.6908,-0.7328,-0.7512,-0.7332,-0.7004,-0.654,-0.6238,-0.531,-0.3672,0.0358,0.2714,0.3681,0.8262,1.0826,1.1706,1.2635,1.4092,1.5834,1.6452,1.7259,1.8183,1.8642,1.965,2.1054,2.2755,2.5171,2.7782,2.8759,2.9995,3.1256,3.1982,3.2079,3.1884,3.1795,3.0734,2.9281,2.7873,2.717,2.6592,2.541,2.5318,2.545,2.5018,2.4891,2.469,2.4077,2.1316,1.8685,1.7831,1.7457,1.734,1.7626,1.7095,1.6885,1.7376,1.7053,1.6675,1.6581,1.6581,1.6168,1.4985,1.5341,1.5261,1.4251,1.464,1.5017,1.521,1.521,1.5165,1.5017,1.4751,1.4285,1.3682,1.3268,1.3181,1.3349,1.3767,1.3714,1.3205,1.3292,1.2781,0.0,0.0,0.0,0.0,0.8027,0.0,0.0,0.0,0.0,0.0,0.0,0.0,0.0,0.0,0.0,0.0,0.0,0.0,0.0,0.0,0.0,0.0,0.0,0.0,0.0,0.0,-0.5458,-0.6464,-0.6158,-0.6323,-0.7205,-0.7992,-0.8292,-0.8038,-0.6086,-0.4766,-0.4199,-0.1626,0.0177,0.1227,0.3579,0.5215,0.6286,0.9689,1.1726,1.2595,1.353,1.5315,1.7504,1.7497,1.8771,2.0698,1.9887,2.0014,2.0923,2.318,2.5144,2.6969,2.9144,3.0303,3.1101,3.2661,3.2741,3.1986,3.0595,2.9559,2.8615,2.7681,2.6738,2.6016,2.589,2.5126,2.419,2.3406,2.2976,2.2615,2.2228,2.1068,1.9927,1.9347,1.8255,1.7566,1.7804,1.7798,1.7664,1.7343,1.729,1.6984,1.6405,1.6171,1.5588,1.4593,1.4503,1.4348,1.4052,1.4316,1.4605,1.4915,1.496,1.4869,1.4673,1.4559,1.4317,1.3875,1.3792,1.3659,1.3442,1.2443,1.2769,1.4298,1.321,1.1358,0.0,0.0,0.0,0.0,0.0,0.0,0.5356,0.0,0.3292,0.0,0.0,0.0,0.0,0.0,0.0,0.0,0.0,0.0,0.0,0.0,0.0,0.0,0.0,0.0,0.0,0.0,0.0,0.0,0.0,-0.7043,-0.7819,-0.6496,-0.5843,-0.6163,-0.2913,-0.0962,-0.0558,0.0327,0.1403,0.2659,0.4435,0.6012,0.7438,1.0197,1.2195,1.3474,1.3918,1.5229,1.7087,1.7491,1.8482,1.9831,2.0695,2.1748,2.292,2.4376,2.613,2.7906,2.8808,3.0116,3.1518,3.2446,3.2002,3.1007,3.0316,2.9499,2.851,2.738,2.6669,2.6126,2.5555,2.4747,2.3798,2.2738,2.2352,2.2089,2.191,2.13,2.0772,2.0536,1.9658,1.8917,1.8884,1.8157,1.7467,1.7162,1.7152,1.6905,1.6259,1.5931,1.5286,1.4101,1.3907,1.376,1.3471,1.3752,1.4186,1.4743,1.4915,1.4958,1.4825,1.475,1.4546,1.4129,1.3918,1.3803,1.3643,1.2066,1.1757,1.2546,1.26,1.1365,0.9801,0.0,0.0,0.0,0.0,0.0,0.0,0.0,0.0,0.0,0.0,0.0,0.0,0.0,0.0,0.0,0.0,0.0,0.0,0.0,0.0,0.0,0.0,0.0,0.0,0.0,0.0,0.0,0.0,0.0,-0.6896,-0.4908,-0.351,-0.2981,0.0479,0.2675,0.3374,0.3298,0.3968,0.5358,0.6141,0.733,0.8897,1.0914,1.2627,1.4043,1.4339,1.5371,1.6894,1.7446,1.8482,1.9873,2.1424,2.3075,2.4634,2.4965,2.6322,2.7985,2.7868,2.9449,3.1474,3.151,3.1167,3.0651,3.0187,2.952,2.8618,2.7454,2.6826,2.6277,2.5429,2.4587,2.369,2.2468,2.2141,2.2088,2.187,2.1564,2.1362,2.1291,2.0664,2.008,1.9879,1.8724,1.7734,1.7487,1.7442,1.7105,1.6285,1.5728,1.4974,1.3728,1.3314,1.3062,1.2809,1.3143,1.3699,1.4595,1.484,1.4873,1.485,1.4862,1.4666,1.4144,1.396,1.3793,1.3696,1.2127,1.0929,1.0173,1.1473,1.1035,0.0,0.0,0.0,0.7544,0.0,0.0,0.0,0.0,0.3961,0.0,0.0,0.0,0.0,0.0,0.0,0.0,0.0,0.0,0.0,0.0,0.0,0.0,0.0,0.0,0.0,0.0,0.0,0.0,0.0,0.0,-0.3653,-0.3954,-0.2371,0.1558,0.3644,0.557,0.74,0.862,0.984,1.1019,0.9901,1.0009,1.1216,1.2207,1.3183,1.4134,1.5,1.6262,1.775,1.765,1.945,2.2281,2.2145,2.3392,2.5159,2.4346,2.4947,2.6164,2.6183,2.8146,3.0523,2.9829,3.0594,3.1576,2.9984,2.9264,2.8858,2.8148,2.7272,2.6366,2.5812,2.4868,2.3717,2.2498,2.2305,2.2256,2.1739,2.1675,2.1721,2.1602,2.0935,2.0422,2.0531,1.9748,1.9008,1.8623,1.8417,1.7838,1.6477,1.5583,1.4676,1.3509,1.2547,1.2054,1.2307,1.251,1.3174,1.4507,1.451,1.4419,1.44,1.474,1.4535,1.3819,1.3932,1.3802,1.3508,1.2395,1.0437,0.7672,0.9732,0.9938,0.0,0.0,1.023,0.8245,0.0,0.0,0.0,0.0,0.0,0.0,0.0,0.0,0.0,0.0,0.0,0.0,0.0,0.0,0.0,0.0,0.0,0.0,0.0,0.0,0.0,0.0,0.0,0.0,-0.4604,0.0,0.0,0.0386,0.3394,0.5414,0.8568,1.0515,1.109,1.1089,1.1003,1.0846,1.0831,1.1281,1.2193,1.3184,1.4091,1.4935,1.5812,1.6488,1.7028,1.804,1.9011,2.0035,2.1466,2.2726,2.3729,2.3846,2.4765,2.602,2.6321,2.6719,2.7285,2.8362,2.8991,2.9348,2.9477,2.9576,2.9486,2.8589,2.7806,2.7115,2.6267,2.5243,2.421,2.3378,2.2774,2.2342,2.218,2.2016,2.1931,2.2002,2.1438,2.078,2.027,1.9584,1.8915,1.8455,1.7797,1.6983,1.5908,1.4753,1.3747,1.2932,1.2187,1.1775,1.1965,1.2583,1.3294,1.3952,1.4024,1.4188,1.4366,1.4563,1.4451,1.4135,1.404,1.3779,1.3299,1.3084,1.1932,0.9809,0.7825,0.7261,1.053,1.0494,0.0,0.8387,0.7163,0.0,0.4122,0.0,0.0,0.0,0.0,0.0,0.0,0.0,0.0,0.0,0.0,0.0,0.0,0.0,0.0,0.0,0.0,0.0,0.0,0.0,-0.4734,-0.4439,-0.3187,0.0,0.0,0.0,0.7294,0.8919,1.169,1.3059,1.2855,1.2292,1.1748,1.1252,1.1675,1.2308,1.3085,1.376,1.4665,1.5721,1.6303,1.6852,1.7437,1.8478,1.9116,1.9593,2.1026,2.1967,2.2612,2.3458,2.4293,2.5033,2.5297,2.5357,2.5565,2.674,2.7599,2.8254,2.8925,2.9246,2.9215,2.8602,2.7828,2.6952,2.6001,2.5047,2.4182,2.3533,2.2948,2.2417,2.2231,2.1833,2.1549,2.1481,2.0852,2.0187,1.9713,1.907,1.849,1.8197,1.7272,1.6321,1.543,1.4202,1.3177,1.2521,1.1857,1.1503,1.1656,1.2427,1.3061,1.3485,1.3791,1.4123,1.4369,1.4398,1.4345,1.4219,1.3666,1.3249,1.287,1.2118,1.1242,1.0201,0.6802,0.5176]}]]